[[{"header":{"parameterUnit":"m.s-1","parameterCategory":1,"la1":31.0,"la2":29.5877,"lo1":-88.7671,"lo2":-86.6584,"dy":0.0162,"dx":0.0185,"nx":115,"ny":88,"refTime":"2024-06-01T12:00:00:Z","depth":0,"parameterNumber":2,"parameterNumberName":"U-component_of_WINDS"},"data":[0.0,0.0,0.0,0.0,0.0,0.0,0.0,0.0,0.0,0.0,0.0,0.0,0.0,0.0,0.0,0.0,0.0,0.0,0.0,0.0,0.0,0.0,0.0,0.0,0.0,0.0,0.0,0.0,0.0,0.0,0.0,0.0,0.0,0.0,0.0,0.0,0.0,0.0,0.0,0.0,0.0,0.0,0.0,0.0,0.0,0.0,0.0,0.0,0.0,0.0,0.0,0.0,0.0,0.0,0.0,0.0,0.0,0.0,0.0,0.0,0.0,0.0,0.0,0.0,0.0,0.0,0.0,0.0,0.0,0.0,0.0,0.0,0.0,0.0,0.0,0.0,0.0,0.0,0.0,0.0,0.0,0.0,0.0,0.0,0.0,0.0,0.0,0.0,0.0,0.0,0.0,0.0,0.0,0.0,0.0,0.0,0.0,0.0,0.0,0.0,0.0,0.0,0.0,0.0,0.0,0.0,0.0,0.0,0.0,0.0,0.0,0.0,0.0,0.0,0.0,0.0,0.0,0.0,0.0,0.0,0.0,0.0,0.0,0.0,0.0,0.0,0.0,0.0,0.0,0.0,0.0,0.0,0.0,0.0,0.0,0.0,0.0,0.0,0.0,0.0,0.0,0.0,0.0,0.0,0.0,0.0,0.0,0.0,0.0,0.0,0.0,0.0,0.0,0.0,0.0,0.0,0.0,0.0,0.0,0.0,0.0,0.0,0.0,0.0,0.0,0.0,0.0,0.0,0.0,0.0,0.0,0.0,0.0,0.0,0.0,0.0,0.0,0.0,0.0,0.0,0.0,0.0,0.0,0.0,0.0,0.0,0.0,0.0,0.0,0.0,0.0,0.0,0.0,0.0,0.0,0.0,0.0,0.0,0.0,0.0,0.0,0.0,0.0,0.0,0.0,0.0,0.0,0.0,0.0,0.0,0.0,0.0,0.0,0.0,0.0,0.0,0.0,0.0,0.0,0.0,0.0,0.0,0.0,0.0,0.0,0.0,0.0,0.0,0.0,0.0,0.0,0.0,0.0,0.0,0.0,0.0,0.0,0.0,0.0,0.0,0.0,0.0,0.0,0.0,0.0,0.0,0.0,0.0,0.0,0.0,0.0,0.0,0.0,0.0,0.0,0.0,0.0,0.0,0.0,0.0,0.0,0.0,0.0,0.0,0.0,0.0,0.0,0.0,0.0,0.0,0.0,0.0,0.0,0.0,0.0,0.0,0.0,0.0,0.0,0.0,0.0,0.0,0.0,0.0,0.0,0.0,0.0,0.0,0.0,0.0,0.0,0.0,0.0,0.0,0.0,0.0,0.0,0.0,0.0,0.0,0.0,0.0,0.0,0.0,0.0,0.0,0.0,0.0,0.0,0.0,0.0,0.0,0.0,0.0,0.0,0.0,0.0,0.0,0.0,0.0,0.0,0.0,0.0,0.0,0.0,0.0,0.0,0.0,0.0,0.0,0.0,0.0,0.0,0.0,0.0,0.0,0.0,0.0,0.0,0.0,0.0,0.0,0.0,0.0,0.0,0.0,0.0,0.0,0.0,0.0,0.0,0.0,0.0,0.0,0.0,0.0,0.0,0.0,0.0,0.0,0.0,0.0,0.0,0.0,0.0,0.0,0.0,0.0,0.0,0.0,0.0,0.0,0.0,0.0,0.0,0.0,0.0,0.0,0.0,0.0,0.0,0.0,0.0,0.0,0.0,0.0,0.0,0.0,0.0,0.0,0.0,0.0,0.0,0.0,0.0,0.0,0.0,0.0,0.0,0.0,0.0,0.0,0.0,0.0,0.0,0.0,0.0,0.0,0.0,0.0,0.0,0.0,0.0,0.0,0.0,0.0,0.0,0.0,0.0,0.0,0.0,0.0,0.0,0.0,0.0,0.0,0.0,0.0,0.0,0.0,0.0,0.0,0.0,0.0,0.0,0.0,0.0,0.0,0.0,0.0,0.0,0.0,0.0,0.0,0.0,0.0,0.0,0.0,0.0,0.0,0.0,0.0,0.0,0.0,0.0,0.0,0.0,0.0,0.0,0.0,0.0,0.0,0.0,0.0,0.0,0.0,0.0,0.0,0.0,0.0,0.0,0.0,0.0,0.0,0.0,0.0,0.0,0.0,0.0,0.0,0.0,0.0,0.0,0.0,0.0,0.0,0.0,0.0,0.0,0.0,0.0,0.0,0.0,0.0,0.0,0.0,0.0,0.0,0.0,0.0,0.0,0.0,0.0,0.0,0.0,0.0,0.0,0.0,0.0,0.0,0.0,0.0,0.0,0.0,0.0,0.0,0.0,0.0,0.0,0.0,0.0,0.0,0.0,0.0,0.0,0.0,0.0,0.0,0.0,0.0,0.0,0.0,0.0,0.0,0.0,0.0,0.0,0.0,0.0,0.0,0.0,0.0,0.0,0.0,0.0,0.0,0.0,0.0,0.0,0.0,0.0,0.0,0.0,0.0,0.0,0.0,0.0,0.0,0.0,0.0,0.0,0.0,0.0,0.0,0.0,0.0,0.0,0.0,0.0,0.0,0.0,0.0,0.0,0.0,0.0,0.0,0.0,0.0,0.0,0.0,0.0,0.0,0.0,0.0,0.0,0.0,0.0,0.0,0.0,0.0,0.0,0.0,0.0,0.0,0.0,0.0,0.0,0.0,0.0,0.0,0.0,0.0,0.0,0.0,0.0,0.0,0.0,0.0,0.0,0.0,0.0,0.0,0.0,0.0,0.0,0.0,0.0,0.0,0.0,0.0,0.0,0.0,0.0,0.0,0.0,0.0,0.0,0.0,0.0,0.0,0.0,0.0,0.0,0.0,0.0,0.0,0.0,0.0,0.0,0.0,0.0,0.0,0.0,0.0,0.0,0.0,0.0,0.0,0.0,0.0,0.0,0.0,0.0,0.0,0.0,0.0,0.0,0.0,0.0,0.0,0.0,0.0,0.0,0.0,0.0,0.0,0.0,0.0,0.0,0.0,0.0,0.0,0.0,0.0,0.0,0.0,0.0,0.0,0.0,0.0,0.0,0.0,0.0,0.0,0.0,0.0,0.0,0.0,0.0,0.0,0.0,0.0,0.0,0.0,0.0,0.0,0.0,0.0,0.0,0.0,0.0,0.0,0.0,0.0,0.0,0.0,0.0,0.0,0.0,0.0,0.0,0.0,0.0,0.0,0.0,0.0,0.0,0.0,0.0,0.0,0.0,0.0,0.0,0.0,0.0,0.0,0.0,0.0,0.0,0.0,0.0,0.0,0.0,0.0,0.0,0.0,0.0,0.0,0.0,0.0,0.0,0.0,0.0,0.0,0.0,0.0,0.0,0.0,0.0,0.0,0.0,0.0,0.0,0.0,0.0,0.0,0.0,0.0,0.0,0.0,0.0,0.0,0.0,0.0,0.0,0.0,0.0,0.0,0.0,0.0,0.0,0.0,0.0,0.0,0.0,0.0,0.0,0.0,0.0,0.0,0.0,0.0,0.0,0.0,0.0,0.0,0.0,0.0,0.0,0.0,0.0,0.0,0.0,0.0,0.0,0.0,0.0,0.0,0.0,0.0,0.0,0.0,0.0,0.0,0.0,0.0,0.0,0.0,0.0,0.0,0.0,0.0,0.0,0.0,0.0,0.0,0.0,0.0,0.0,0.0,0.0,0.0,0.0,0.0,0.0,0.0,0.0,0.0,0.0,0.0,0.0,0.0,0.0,0.0,0.0,0.0,0.0,0.0,0.0,0.0,0.0,0.0,0.0,0.0,0.0,0.0,0.0,0.0,0.0,0.0,0.0,0.0,0.0,0.0,0.0,0.0,0.0,0.0,0.0,0.0,0.0,0.0,0.0,0.0,0.0,0.0,0.0,0.0,0.0,0.0,0.0,0.0,0.0,0.0,0.0,0.0,0.0,0.0,0.0,0.0,0.0,0.0,0.0,0.0,0.0,0.0,0.0,0.0,0.0,0.0,0.0,0.0,0.0,0.0,0.0,0.0,0.0,0.0,0.0,0.0,0.0,0.0,0.0,0.0,0.0,0.0,0.0,0.0,0.0,0.0,0.0,0.0,0.0,0.0,0.0,0.0,0.0,0.0,0.0,0.0,0.0,0.0,0.0,0.0,0.0,0.0,0.0,0.0,0.0,0.0,0.0,0.0,0.0,0.0,0.0,0.0,0.0,0.0,0.0,0.0,0.0,0.0,0.0,0.0,0.0,0.0,0.0,0.0,0.0,0.0,0.0,0.0,0.0,0.0,0.0,0.0,0.0,0.0,0.0,0.0,0.0,0.0,0.0,0.0,0.0,0.0,-1.0263,0.0,0.0,0.0,0.0,0.0,0.0,0.0,0.0,0.0,0.0,0.0,0.0,0.0,0.0,0.0,0.0,0.0,0.0,0.0,0.0,0.0,0.0,0.0,0.0,0.0,0.0,0.0,0.0,0.0,0.0,0.0,0.0,0.0,0.0,0.0,0.0,0.0,0.0,0.0,0.0,0.0,0.0,0.0,0.0,0.0,0.0,0.0,0.0,0.0,0.0,0.0,0.0,0.0,0.0,0.0,0.0,0.0,0.0,0.0,0.0,0.0,0.0,0.0,0.0,0.0,0.0,0.0,0.0,0.0,0.0,0.0,0.0,0.0,0.0,0.0,0.0,0.0,0.0,0.0,0.0,0.0,0.0,0.0,0.0,0.0,0.0,0.0,0.0,0.0,0.0,0.0,0.0,0.0,0.0,0.0,0.0,0.0,0.0,0.0,0.0,0.0,0.0,0.0,0.0,0.0,0.0,0.0,0.0,0.0,0.0,-0.9292,-0.9112,-0.9784,-1.0,-0.968,0.0,0.0,0.0,0.0,0.0,0.0,0.0,0.0,0.0,0.0,0.0,0.0,0.0,0.0,0.0,0.0,0.0,0.0,0.0,0.0,0.0,0.0,0.0,0.0,0.0,0.0,0.0,0.0,0.0,0.0,0.0,0.0,0.0,0.0,0.0,0.0,0.0,0.0,0.0,0.0,0.0,0.0,0.0,0.0,0.0,0.0,0.0,0.0,0.0,0.0,0.0,0.0,0.0,0.0,0.0,0.0,0.0,0.0,0.0,0.0,0.0,0.0,0.0,0.0,0.0,0.0,0.0,0.0,0.0,0.0,0.0,0.0,0.0,0.0,0.0,0.0,0.0,0.0,0.0,0.0,0.0,0.0,0.0,0.0,0.0,0.0,0.0,0.0,0.0,0.0,0.0,0.0,0.0,0.0,0.0,0.0,0.0,0.0,0.0,0.0,0.0,0.0,0.0,0.0,0.0,0.0,0.0,0.0,0.0,0.0,0.0,0.0,-0.9883,-1.0202,-0.9874,0.0,0.0,0.0,0.0,0.0,0.0,0.0,0.0,0.0,0.0,0.0,0.0,0.0,0.0,0.0,0.0,0.0,0.0,0.0,0.0,0.0,0.0,0.0,0.0,0.0,0.0,0.0,0.0,0.0,0.0,0.0,0.0,0.0,0.0,0.0,0.0,0.0,0.0,0.0,0.0,0.0,0.0,0.0,0.0,0.0,0.0,0.0,0.0,0.0,0.0,0.0,0.0,0.0,0.0,0.0,0.0,0.0,0.0,0.0,0.0,0.0,0.0,0.0,0.0,0.0,0.0,0.0,0.0,0.0,0.0,0.0,0.0,0.0,0.0,0.0,0.0,0.0,0.0,0.0,0.0,0.0,0.0,0.0,0.0,0.0,0.0,0.0,0.0,0.0,0.0,0.0,0.0,0.0,0.0,0.0,0.0,0.0,0.0,0.0,0.0,0.0,0.0,0.0,0.0,0.0,0.0,0.0,0.0,0.0,0.0,-1.0135,-1.0776,-1.1619,0.0,-1.2048,0.0,0.0,0.0,0.0,0.0,0.0,0.0,0.0,0.0,0.0,0.0,0.0,0.0,0.0,0.0,0.0,0.0,0.0,0.0,0.0,0.0,0.0,0.0,0.0,0.0,0.0,0.0,0.0,0.0,0.0,0.0,0.0,0.0,0.0,0.0,0.0,0.0,0.0,0.0,0.0,0.0,0.0,0.0,0.0,0.0,0.0,0.0,0.0,0.0,0.0,0.0,0.0,0.0,0.0,0.0,0.0,0.0,0.0,0.0,0.0,0.0,0.0,0.0,0.0,0.0,0.0,0.0,0.0,0.0,0.0,0.0,0.0,0.0,0.0,0.0,0.0,0.0,0.0,0.0,0.0,0.0,0.0,0.0,0.0,0.0,0.0,0.0,0.0,0.0,0.0,0.0,0.0,0.0,0.0,0.0,0.0,0.0,0.0,0.0,0.0,0.0,0.0,0.0,0.0,0.0,0.0,0.0,0.0,0.0,0.0,0.0,-1.078,-1.1187,-1.1417,0.0,0.0,0.0,0.0,0.0,0.0,0.0,0.0,0.0,0.0,0.0,0.0,0.0,0.0,0.0,0.0,0.0,0.0,0.0,0.0,0.0,0.0,0.0,0.0,0.0,0.0,0.0,0.0,0.0,0.0,0.0,0.0,0.0,0.0,0.0,0.0,0.0,0.0,0.0,0.0,0.0,0.0,0.0,0.0,0.0,0.0,0.0,0.0,0.0,0.0,0.0,0.0,0.0,0.0,0.0,0.0,0.0,0.0,0.0,0.0,0.0,0.0,0.0,0.0,0.0,0.0,0.0,0.0,0.0,0.0,0.0,0.0,0.0,0.0,0.0,0.0,0.0,0.0,0.0,0.0,0.0,0.0,0.0,0.0,0.0,0.0,0.0,0.0,0.0,0.0,0.0,0.0,0.0,0.0,0.0,0.0,0.0,0.0,0.0,0.0,0.0,0.0,0.0,0.0,0.0,0.0,0.0,0.0,0.0,0.0,-1.0576,0.0,-1.1217,-1.126,-1.1097,-1.0602,0.0,0.0,0.0,0.0,0.0,0.0,0.0,0.0,0.0,0.0,0.0,0.0,0.0,0.0,0.0,0.0,0.0,0.0,0.0,0.0,0.0,0.0,0.0,0.0,0.0,0.0,0.0,0.0,0.0,0.0,0.0,0.0,0.0,0.0,0.0,0.0,0.0,0.0,0.0,0.0,0.0,0.0,0.0,0.0,0.0,0.0,0.0,0.0,0.0,0.0,0.0,0.0,0.0,0.0,0.0,0.0,0.0,0.0,0.0,0.0,0.0,0.0,0.0,0.0,0.0,0.0,0.0,0.0,0.0,0.0,0.0,0.0,0.0,0.0,0.0,0.0,0.0,0.0,0.0,0.0,0.0,0.0,0.0,0.0,0.0,0.0,0.0,0.0,0.0,0.0,0.0,0.0,0.0,0.0,0.0,0.0,0.0,0.0,0.0,0.0,0.0,0.0,0.0,0.0,0.0,0.0,0.0,0.0,0.0,-1.136,-1.1589,-1.2741,-1.2604,-1.1831,0.0,0.0,0.0,0.0,0.0,0.0,0.0,0.0,0.0,0.0,0.0,0.0,0.0,0.0,0.0,0.0,0.0,0.0,0.0,0.0,0.0,0.0,0.0,0.0,0.0,0.0,0.0,0.0,0.0,0.0,0.0,0.0,0.0,0.0,0.0,0.0,0.0,0.0,0.0,0.0,0.0,0.0,0.0,0.0,0.0,0.0,0.0,0.0,0.0,0.0,0.0,0.0,0.0,0.0,0.0,0.0,0.0,0.0,0.0,0.0,0.0,0.0,0.0,0.0,0.0,0.0,0.0,0.0,0.0,0.0,0.0,0.0,0.0,0.0,0.0,0.0,0.0,0.0,0.0,0.0,0.0,0.0,0.0,0.0,0.0,0.0,0.0,0.0,0.0,0.0,0.0,0.0,0.0,0.0,0.0,0.0,0.0,0.0,0.0,0.0,0.0,0.0,0.0,0.0,0.0,0.0,0.0,0.0,0.0,-0.9659,-1.0563,-1.2183,0.0,-1.269,-1.1704,0.0,0.0,0.0,0.0,0.0,0.0,0.0,0.0,0.0,0.0,0.0,0.0,0.0,0.0,0.0,0.0,0.0,0.0,0.0,0.0,0.0,0.0,0.0,0.0,0.0,0.0,0.0,0.0,0.0,0.0,0.0,0.0,0.0,0.0,0.0,0.0,0.0,0.0,0.0,0.0,0.0,0.0,0.0,0.0,0.0,0.0,0.0,0.0,0.0,0.0,0.0,0.0,0.0,0.0,0.0,0.0,0.0,0.0,0.0,0.0,0.0,0.0,0.0,0.0,0.0,0.0,0.0,0.0,0.0,0.0,0.0,0.0,0.0,0.0,0.0,0.0,0.0,0.0,0.0,0.0,0.0,0.0,0.0,0.0,0.0,0.0,0.0,0.0,0.0,0.0,0.0,0.0,0.0,0.0,0.0,0.0,0.0,0.0,0.0,0.0,0.0,0.0,0.0,0.0,0.0,0.0,0.0,0.0,0.0,-0.9545,0.0,-1.2939,0.0,-1.2637,-1.1517,0.0,0.0,0.0,0.0,0.0,0.0,0.0,0.0,0.0,0.0,0.0,0.0,0.0,0.0,0.0,0.0,0.0,0.0,0.0,0.0,0.0,0.0,0.0,0.0,0.0,0.0,0.0,0.0,0.0,0.0,0.0,0.0,0.0,0.0,0.0,0.0,0.0,0.0,0.0,0.0,0.0,0.0,0.0,0.0,0.0,0.0,0.0,0.0,0.0,0.0,0.0,0.0,0.0,0.0,0.0,0.0,0.0,0.0,0.0,0.0,0.0,0.0,0.0,0.0,0.0,0.0,0.0,0.0,0.0,0.0,0.0,0.0,0.0,0.0,0.0,0.0,0.0,0.0,0.0,0.0,0.0,0.0,0.0,0.0,0.0,0.0,0.0,0.0,0.0,0.0,0.0,0.0,0.0,0.0,0.0,0.0,0.0,0.0,0.0,0.0,0.0,0.0,0.0,0.0,0.0,0.0,0.0,0.0,0.0,-1.2162,-1.3465,-1.3765,-1.2964,-1.2482,-1.1238,0.0,0.0,0.0,0.0,0.0,0.0,0.0,0.0,0.0,0.0,0.0,0.0,0.0,0.0,0.0,0.0,0.0,0.0,0.0,0.0,0.0,0.0,0.0,0.0,0.0,0.0,0.0,0.0,0.0,0.0,0.0,0.0,0.0,0.0,0.0,0.0,0.0,0.0,0.0,0.0,0.0,0.0,0.0,0.0,0.0,0.0,0.0,0.0,0.0,0.0,0.0,0.0,0.0,0.0,0.0,0.0,0.0,0.0,0.0,0.0,0.0,0.0,0.0,0.0,0.0,0.0,0.0,0.0,0.0,0.0,0.0,0.0,0.0,0.0,0.0,0.0,0.0,0.0,0.0,0.0,0.0,0.0,0.0,0.0,0.0,0.0,0.0,0.0,0.0,0.0,0.0,0.0,0.0,0.0,0.0,0.0,0.0,0.0,0.0,0.0,0.0,0.0,0.0,0.0,0.0,0.0,0.0,0.0,0.0,-1.183,-1.2557,-1.3517,-1.4687,-1.2555,-1.1447,0.0,0.0,0.0,0.0,0.0,0.0,0.0,0.0,0.0,0.0,0.0,0.0,0.0,0.0,0.0,0.0,0.0,0.0,0.0,0.0,0.0,0.0,0.0,0.0,0.0,0.0,0.0,0.0,0.0,0.0,0.0,0.0,0.0,0.0,0.0,0.0,0.0,0.0,0.0,0.0,0.0,0.0,0.0,0.0,0.0,0.0,0.0,0.0,0.0,0.0,0.0,0.0,0.0,0.0,0.0,0.0,0.0,0.0,0.0,0.0,0.0,0.0,0.0,0.0,0.0,0.0,0.0,0.0,0.0,0.0,0.0,0.0,0.0,0.0,0.0,0.0,0.0,0.0,0.0,0.0,0.0,0.0,0.0,0.0,0.0,0.0,0.0,0.0,0.0,0.0,0.0,0.0,0.0,0.0,0.0,0.0,0.0,0.0,0.0,0.0,0.0,0.0,0.0,0.0,0.0,0.0,0.0,0.0,0.0,-1.3134,-1.3724,-1.449,-1.5411,-1.3144,-1.1996,-1.213,0.0,0.0,0.0,0.0,0.0,0.0,0.0,0.0,0.0,0.0,0.0,0.0,0.0,0.0,0.0,0.0,0.0,0.0,0.0,0.0,0.0,0.0,0.0,0.0,0.0,0.0,0.0,0.0,0.0,0.0,0.0,0.0,0.0,0.0,0.0,0.0,0.0,0.0,0.0,0.0,0.0,0.0,0.0,0.0,0.0,0.0,0.0,0.0,0.0,0.0,0.0,0.0,0.0,0.0,0.0,0.0,0.0,0.0,0.0,0.0,0.0,0.0,0.0,0.0,0.0,0.0,0.0,0.0,0.0,0.0,0.0,0.0,0.0,0.0,0.0,0.0,0.0,0.0,0.0,0.0,0.0,0.0,0.0,0.0,0.0,0.0,0.0,0.0,0.0,0.0,0.0,0.0,0.0,0.0,0.0,0.0,0.0,0.0,0.0,0.0,0.0,0.0,0.0,0.0,0.0,0.0,0.0,0.0,-1.5732,-1.6616,-1.6461,-1.5256,-1.4231,-1.283,0.0,0.0,0.0,0.0,0.0,0.0,0.0,0.0,0.0,0.0,0.0,0.0,0.0,0.0,0.0,0.0,0.0,0.0,0.0,0.0,0.0,0.0,0.0,0.0,0.0,0.0,0.0,0.0,0.0,0.0,0.0,0.0,0.0,0.0,0.0,0.0,0.0,0.0,0.0,0.0,0.0,0.0,0.0,0.0,0.0,0.0,0.0,0.0,0.0,0.0,0.0,0.0,0.0,0.0,0.0,0.0,0.0,0.0,0.0,0.0,0.0,0.0,0.0,0.0,0.0,0.0,0.0,0.0,0.0,0.0,0.0,0.0,0.0,0.0,0.0,0.0,0.0,0.0,0.0,0.0,0.0,0.0,0.0,0.0,0.0,0.0,0.0,0.0,0.0,0.0,0.0,0.0,0.0,0.0,0.0,0.0,0.0,0.0,0.0,0.0,0.0,0.0,0.0,0.0,0.0,0.0,0.0,0.0,0.0,-1.6038,-1.7697,-1.8206,-1.7481,-1.5639,-1.4107,0.0,0.0,0.0,0.0,0.0,0.0,0.0,0.0,0.0,0.0,0.0,0.0,0.0,0.0,0.0,0.0,0.0,0.0,0.0,0.0,0.0,0.0,0.0,0.0,0.0,0.0,0.0,0.0,0.0,0.0,0.0,0.0,0.0,0.0,0.0,0.0,0.0,0.0,0.0,0.0,0.0,0.0,0.0,0.0,0.0,0.0,0.0,0.0,0.0,0.0,0.0,0.0,0.0,0.0,0.0,0.0,0.0,0.0,0.0,0.0,0.0,0.0,0.0,0.0,0.0,0.0,0.0,0.0,0.0,0.0,0.0,0.0,0.0,0.0,0.0,0.0,0.0,0.0,0.0,0.0,0.0,0.0,0.0,0.0,0.0,0.0,0.0,0.0,0.0,0.0,0.0,0.0,0.0,0.0,0.0,0.0,0.0,0.0,0.0,0.0,0.0,0.0,0.0,0.0,0.0,0.0,0.0,0.0,-1.5445,-1.6707,-1.8859,-1.9624,-1.8982,-1.6819,-1.5087,0.0,0.0,0.0,0.0,0.0,0.0,0.0,0.0,0.0,0.0,0.0,0.0,0.0,0.0,0.0,0.0,0.0,0.0,0.0,0.0,0.0,0.0,0.0,0.0,0.0,0.0,0.0,0.0,0.0,0.0,0.0,0.0,0.0,0.0,0.0,0.0,0.0,0.0,0.0,0.0,0.0,0.0,0.0,0.0,0.0,0.0,0.0,0.0,0.0,0.0,0.0,0.0,0.0,0.0,0.0,0.0,0.0,0.0,0.0,0.0,0.0,0.0,0.0,0.0,0.0,0.0,0.0,0.0,0.0,0.0,0.0,0.0,0.0,0.0,0.0,0.0,0.0,0.0,0.0,0.0,0.0,0.0,0.0,0.0,0.0,0.0,0.0,0.0,0.0,0.0,0.0,0.0,0.0,0.0,0.0,0.0,0.0,0.0,0.0,0.0,0.0,0.0,0.0,0.0,0.0,0.0,0.0,0.0,-1.6064,-1.7337,-1.9636,-2.041,-1.9622,-1.776,-1.6029,0.0,0.0,0.0,0.0,0.0,0.0,0.0,0.0,0.0,0.0,0.0,0.0,0.0,0.0,0.0,0.0,0.0,0.0,0.0,0.0,0.0,0.0,0.0,0.0,0.0,0.0,0.0,0.0,0.0,0.0,0.0,0.0,0.0,0.0,0.0,0.0,0.0,0.0,0.0,0.0,0.0,0.0,0.0,0.0,0.0,0.0,0.0,0.0,0.0,0.0,0.0,0.0,0.0,0.0,0.0,0.0,0.0,0.0,0.0,0.0,0.0,0.0,0.0,0.0,0.0,0.0,0.0,0.0,0.0,0.0,0.0,0.0,0.0,0.0,0.0,0.0,0.0,0.0,0.0,0.0,0.0,0.0,0.0,0.0,0.0,0.0,0.0,0.0,0.0,0.0,0.0,0.0,0.0,0.0,0.0,0.0,0.0,0.0,0.0,0.0,0.0,0.0,0.0,0.0,0.0,0.0,0.0,0.0,-1.514,-1.6225,-1.8156,-1.8911,-1.8477,-1.8208,-1.7051,0.0,0.0,0.0,0.0,0.0,0.0,0.0,0.0,0.0,0.0,0.0,0.0,0.0,0.0,0.0,0.0,0.0,0.0,0.0,0.0,0.0,0.0,0.0,0.0,0.0,0.0,0.0,0.0,0.0,0.0,0.0,0.0,0.0,0.0,0.0,0.0,0.0,0.0,0.0,0.0,0.0,0.0,0.0,0.0,0.0,0.0,0.0,0.0,-1.1556,0.0,0.0,0.0,0.0,0.0,0.0,0.0,0.0,0.0,0.0,0.0,0.0,0.0,0.0,0.0,0.0,0.0,0.0,0.0,0.0,0.0,0.0,0.0,0.0,0.0,0.0,0.0,0.0,0.0,0.0,0.0,0.0,0.0,0.0,0.0,0.0,0.0,0.0,0.0,0.0,0.0,0.0,0.0,0.0,0.0,0.0,0.0,0.0,0.0,0.0,0.0,0.0,0.0,0.0,0.0,0.0,0.0,0.0,0.0,-1.5244,-1.6137,-1.7952,-1.8678,-1.8165,-1.7849,-1.6782,0.0,0.0,0.0,0.0,0.0,0.0,0.0,0.0,0.0,0.0,0.0,0.0,0.0,0.0,0.0,0.0,0.0,0.0,0.0,0.0,0.0,0.0,0.0,0.0,0.0,0.0,0.0,0.0,0.0,0.0,0.0,0.0,0.0,0.0,0.0,0.0,0.0,0.0,0.0,0.0,0.0,0.0,0.0,0.0,0.0,0.0,0.0,0.0,0.0,0.0,0.0,0.0,0.0,0.0,0.0,0.0,0.0,0.0,0.0,0.0,0.0,0.0,0.0,0.0,0.0,0.0,0.0,0.0,0.0,0.0,0.0,0.0,0.0,0.0,0.0,0.0,0.0,0.0,0.0,0.0,0.0,0.0,0.0,0.0,0.0,0.0,0.0,0.0,0.0,0.0,0.0,0.0,0.0,0.0,0.0,0.0,0.0,0.0,0.0,0.0,0.0,0.0,0.0,0.0,0.0,0.0,0.0,-1.3613,-1.5463,-1.6323,-1.7976,-1.85,-1.7728,-1.708,-1.5987,0.0,0.0,0.0,0.0,0.0,0.0,0.0,0.0,0.0,0.0,0.0,0.0,0.0,0.0,0.0,0.0,0.0,0.0,0.0,0.0,0.0,0.0,0.0,0.0,0.0,0.0,0.0,0.0,0.0,0.0,0.0,0.0,0.0,0.0,0.0,0.0,0.0,0.0,0.0,-1.1655,-1.2339,0.0,0.0,0.0,0.0,0.0,0.0,0.0,0.0,-1.2391,0.0,0.0,0.0,0.0,0.0,0.0,0.0,0.0,0.0,0.0,0.0,0.0,0.0,0.0,0.0,0.0,0.0,0.0,0.0,0.0,0.0,0.0,0.0,0.0,0.0,0.0,0.0,0.0,0.0,0.0,0.0,0.0,0.0,0.0,0.0,0.0,0.0,0.0,0.0,0.0,0.0,0.0,0.0,0.0,0.0,0.0,0.0,0.0,0.0,0.0,0.0,0.0,0.0,0.0,0.0,0.0,-1.2238,-1.3091,-1.4211,-1.5783,-1.6644,-1.6781,-1.6149,-1.5939,-1.5119,-1.3536,0.0,0.0,0.0,0.0,0.0,0.0,0.0,0.0,0.0,0.0,0.0,0.0,0.0,0.0,0.0,0.0,0.0,0.0,0.0,0.0,0.0,0.0,0.0,0.0,0.0,0.0,0.0,0.0,0.0,0.0,0.0,0.0,0.0,0.0,0.0,0.0,0.0,0.0,0.0,-1.3077,-1.3633,0.0,0.0,0.0,0.0,0.0,0.0,0.0,0.0,-1.1318,0.0,0.0,0.0,0.0,0.0,0.0,0.0,0.0,0.0,0.0,0.0,0.0,0.0,0.0,0.0,0.0,0.0,0.0,0.0,0.0,0.0,0.0,0.0,0.0,0.0,0.0,0.0,0.0,0.0,0.0,0.0,0.0,0.0,0.0,0.0,0.0,0.0,0.0,0.0,0.0,0.0,0.0,0.0,0.0,0.0,0.0,0.0,0.0,0.0,0.0,0.0,0.0,0.0,0.0,0.0,-1.1932,-1.3251,-1.4474,-1.5642,-1.6373,-1.6397,-1.5682,-1.4999,-1.4065,0.0,0.0,0.0,0.0,0.0,0.0,0.0,0.0,0.0,0.0,0.0,0.0,0.0,0.0,0.0,0.0,0.0,0.0,0.0,0.0,0.0,0.0,0.0,0.0,0.0,0.0,0.0,0.0,0.0,0.0,0.0,0.0,0.0,0.0,0.0,0.0,0.0,0.0,0.0,0.0,-1.3332,-1.3554,-1.3076,0.0,0.0,0.0,0.0,0.0,0.0,-1.175,-1.1506,0.0,0.0,0.0,0.0,0.0,0.0,0.0,0.0,0.0,0.0,0.0,0.0,0.0,0.0,0.0,0.0,0.0,0.0,0.0,0.0,0.0,0.0,0.0,0.0,0.0,0.0,0.0,0.0,0.0,0.0,0.0,0.0,0.0,0.0,0.0,0.0,0.0,0.0,0.0,0.0,0.0,0.0,0.0,0.0,0.0,0.0,0.0,0.0,0.0,0.0,0.0,0.0,0.0,0.0,0.0,-1.1495,-1.3425,-1.4839,-1.5658,-1.6365,-1.6397,-1.569,-1.4458,-1.3435,0.0,0.0,0.0,0.0,0.0,0.0,0.0,0.0,0.0,0.0,0.0,0.0,0.0,0.0,0.0,0.0,0.0,0.0,0.0,0.0,0.0,0.0,0.0,0.0,0.0,0.0,0.0,0.0,0.0,0.0,0.0,0.0,0.0,0.0,0.0,0.0,0.0,0.0,0.0,0.0,0.0,-1.3471,-1.3465,-1.3296,0.0,0.0,0.0,0.0,-1.2195,-1.2246,0.0,0.0,0.0,0.0,0.0,0.0,0.0,0.0,0.0,0.0,0.0,0.0,0.0,0.0,0.0,0.0,0.0,0.0,0.0,0.0,0.0,0.0,0.0,0.0,0.0,0.0,0.0,0.0,0.0,0.0,0.0,0.0,0.0,0.0,0.0,0.0,0.0,0.0,0.0,0.0,0.0,0.0,0.0,0.0,0.0,0.0,0.0,0.0,0.0,0.0,0.0,0.0,0.0,0.0,0.0,0.0,-1.1455,-1.2949,-1.4339,-1.5626,-1.6373,-1.6397,-1.5697,-1.4919,-1.3953,0.0,0.0,0.0,0.0,0.0,0.0,0.0,0.0,0.0,0.0,0.0,0.0,0.0,0.0,0.0,0.0,0.0,0.0,0.0,0.0,0.0,0.0,0.0,0.0,0.0,0.0,0.0,0.0,0.0,0.0,0.0,0.0,0.0,0.0,0.0,0.0,0.0,0.0,0.0,0.0,0.0,-1.3907,-1.24,-1.2691,-1.2922,0.0,0.0,0.0,-1.2868,-1.2883,0.0,0.0,0.0,0.0,0.0,0.0,0.0,0.0,0.0,0.0,0.0,0.0,0.0,0.0,0.0,0.0,0.0,0.0,0.0,0.0,0.0,0.0,0.0,0.0,0.0,0.0,0.0,0.0,0.0,0.0,0.0,0.0,0.0,0.0,0.0,0.0,0.0,0.0,0.0,0.0,0.0,0.0,0.0,0.0,0.0,0.0,0.0,0.0,0.0,0.0,0.0,0.0,0.0,0.0,0.0,-0.9994,-1.2059,-1.3473,-1.4768,-1.5944,-1.6468,-1.6397,-1.569,-1.4617,-1.3533,0.0,0.0,0.0,0.0,0.0,0.0,0.0,0.0,0.0,0.0,0.0,0.0,0.0,0.0,0.0,0.0,0.0,0.0,0.0,0.0,0.0,0.0,0.0,0.0,0.0,0.0,0.0,0.0,0.0,0.0,0.0,0.0,0.0,0.0,0.0,0.0,0.0,0.0,0.0,0.0,0.0,0.0,-1.326,-1.3655,0.0,0.0,0.0,-1.3682,-1.3359,0.0,0.0,0.0,0.0,0.0,0.0,0.0,0.0,0.0,0.0,0.0,0.0,0.0,0.0,0.0,0.0,0.0,0.0,0.0,0.0,0.0,0.0,0.0,0.0,0.0,0.0,0.0,0.0,0.0,0.0,0.0,0.0,0.0,0.0,0.0,0.0,0.0,0.0,0.0,0.0,0.0,0.0,0.0,0.0,0.0,0.0,0.0,0.0,0.0,0.0,0.0,0.0,0.0,0.0,0.0,0.0,0.0,-1.2597,-1.4021,-1.5245,-1.6174,-1.6555,-1.6397,-1.5682,-1.4482,0.0,0.0,0.0,0.0,0.0,0.0,0.0,0.0,0.0,0.0,0.0,0.0,0.0,0.0,0.0,0.0,0.0,0.0,0.0,0.0,0.0,0.0,0.0,0.0,0.0,0.0,0.0,-0.6971,0.0,0.0,0.0,0.0,0.0,0.0,0.0,0.0,0.0,0.0,0.0,0.0,0.0,0.0,-1.4081,-1.414,-1.4689,-1.4917,0.0,0.0,-1.4804,-1.4101,-1.4048,-1.3609,0.0,0.0,0.0,0.0,0.0,0.0,0.0,0.0,0.0,0.0,0.0,0.0,0.0,0.0,0.0,0.0,0.0,0.0,0.0,0.0,0.0,0.0,0.0,0.0,0.0,0.0,0.0,0.0,0.0,0.0,0.0,0.0,0.0,0.0,0.0,0.0,0.0,0.0,0.0,0.0,0.0,0.0,0.0,0.0,0.0,0.0,0.0,0.0,0.0,0.0,0.0,0.0,0.0,0.0,0.0,-1.2613,-1.4268,-1.5491,-1.619,-1.6547,-1.6397,-1.5697,-1.4959,-1.3608,0.0,0.0,0.0,0.0,0.0,0.0,0.0,0.0,0.0,0.0,0.0,0.0,0.0,0.0,0.0,0.0,0.0,0.0,0.0,0.0,0.0,0.0,0.0,0.0,0.0,0.0,0.0,0.0,0.0,0.0,0.0,0.0,0.0,0.0,0.0,0.0,0.0,0.0,0.0,0.0,0.0,-1.4087,-1.4384,-1.5211,-1.5782,0.0,0.0,-1.5672,-1.5343,-1.554,-1.5109,-1.3221,0.0,0.0,0.0,0.0,0.0,0.0,0.0,0.0,0.0,0.0,0.0,0.0,0.0,0.0,0.0,0.0,0.0,0.0,0.0,0.0,0.0,0.0,0.0,0.0,0.0,0.0,0.0,0.0,0.0,0.0,0.0,0.0,0.0,0.0,0.0,0.0,0.0,0.0,0.0,0.0,0.0,0.0,0.0,0.0,0.0,0.0,0.0,0.0,0.0,0.0,0.0,0.0,0.0,-1.1003,-1.3163,-1.4506,-1.5626,-1.6484,-1.6659,-1.6404,-1.569,-1.5221,-1.3982,0.0,0.0,0.0,0.0,0.0,0.0,0.0,0.0,0.0,0.0,0.0,0.0,0.0,0.0,0.0,0.0,0.0,0.0,0.0,0.0,0.0,0.0,0.0,0.0,0.0,0.0,0.0,0.0,-0.9449,-0.9875,-0.9916,0.0,0.0,0.0,0.0,0.0,0.0,0.0,0.0,0.0,0.0,-1.4689,-1.5308,-1.584,0.0,0.0,-1.6367,-1.6382,-1.606,-1.5782,-1.5153,-1.3821,-1.3001,0.0,0.0,0.0,0.0,0.0,0.0,0.0,0.0,0.0,0.0,0.0,0.0,0.0,0.0,0.0,0.0,0.0,0.0,0.0,0.0,0.0,0.0,0.0,0.0,0.0,0.0,0.0,0.0,0.0,0.0,0.0,0.0,0.0,0.0,0.0,0.0,0.0,0.0,0.0,0.0,0.0,0.0,0.0,0.0,0.0,0.0,0.0,0.0,0.0,0.0,0.0,0.0,-1.1344,-1.3561,-1.4736,-1.5785,-1.6722,-1.673,-1.6452,-1.5856,-1.5419,-1.4291,0.0,0.0,0.0,0.0,0.0,0.0,0.0,0.0,0.0,0.0,0.0,0.0,0.0,0.0,0.0,0.0,0.0,0.0,0.0,0.0,0.0,0.0,0.0,0.0,0.0,0.0,0.0,0.0,-1.0369,-1.0668,-1.0197,0.0,0.0,0.0,0.0,0.0,0.0,0.0,0.0,0.0,0.0,-1.5343,-1.6124,-1.6455,-1.6652,-1.6652,-1.685,-1.685,-1.6433,-1.6082,-1.5467,-1.4311,0.0,0.0,0.0,0.0,0.0,0.0,0.0,0.0,0.0,0.0,0.0,0.0,0.0,0.0,0.0,0.0,0.0,0.0,0.0,0.0,0.0,0.0,0.0,0.0,0.0,0.0,0.0,0.0,0.0,0.0,0.0,0.0,0.0,0.0,0.0,0.0,0.0,0.0,0.0,0.0,0.0,0.0,0.0,0.0,0.0,0.0,0.0,0.0,0.0,0.0,0.0,0.0,0.0,0.0,-1.3568,-1.4951,-1.6007,-1.6706,-1.673,-1.6555,-1.6182,-1.5539,-1.4522,-1.3084,0.0,0.0,0.0,0.0,0.0,0.0,0.0,0.0,0.0,0.0,0.0,0.0,0.0,0.0,0.0,0.0,0.0,0.0,0.0,0.0,0.0,0.0,0.0,0.0,0.0,0.0,-0.9936,-1.0579,-1.0719,0.0,0.0,0.0,0.0,0.0,0.0,0.0,0.0,0.0,0.0,-1.5072,-1.6096,-1.6831,-1.7099,-1.7282,-1.7289,-1.7304,-1.7099,-1.6484,-1.6616,-1.6374,0.0,0.0,0.0,0.0,0.0,0.0,0.0,0.0,0.0,0.0,0.0,0.0,0.0,0.0,0.0,0.0,0.0,0.0,0.0,0.0,0.0,0.0,0.0,0.0,0.0,0.0,0.0,-0.9922,-0.9581,0.0,0.0,0.0,0.0,0.0,0.0,0.0,0.0,0.0,0.0,0.0,-1.3251,-1.3719,0.0,0.0,0.0,0.0,0.0,0.0,0.0,0.0,0.0,0.0,0.0,0.0,-1.2067,-1.3568,-1.4959,-1.6023,-1.6706,-1.673,-1.6563,-1.6214,-1.5753,-1.4641,-1.279,0.0,0.0,0.0,0.0,0.0,0.0,0.0,0.0,0.0,0.0,0.0,0.0,0.0,0.0,0.0,0.0,0.0,0.0,0.0,0.0,0.0,0.0,0.0,0.0,0.0,-0.9329,0.0,0.0,0.0,0.0,0.0,0.0,0.0,0.0,0.0,0.0,0.0,-1.405,-1.5087,-1.5818,-1.6448,-1.7084,-1.726,-1.7333,0.0,0.0,0.0,0.0,0.0,0.0,0.0,0.0,0.0,0.0,0.0,0.0,0.0,0.0,-1.5504,-1.3806,-1.3228,-1.3038,-1.3148,0.0,0.0,0.0,0.0,0.0,0.0,0.0,0.0,0.0,0.0,0.0,0.0,0.0,0.0,0.0,0.0,-1.1352,0.0,0.0,0.0,0.0,0.0,0.0,0.0,0.0,-1.3997,-1.472,-1.5038,-1.5507,-1.5419,0.0,-1.4633,-1.3394,0.0,0.0,0.0,0.0,0.0,0.0,0.0,0.0,-1.2552,-1.3934,-1.5213,-1.615,-1.6698,-1.673,-1.6627,-1.6381,-1.5817,-1.4752,-1.3155,-1.1996,-1.105,0.0,0.0,0.0,0.0,0.0,0.0,0.0,0.0,0.0,0.0,0.0,0.0,0.0,0.0,0.0,0.0,0.0,0.0,0.0,0.0,0.0,0.0,0.0,-0.9867,0.0,0.0,0.0,0.0,0.0,0.0,0.0,0.0,0.0,-1.3332,-1.4228,-1.52,-1.6161,-1.6506,-1.6901,-1.7428,0.0,0.0,0.0,0.0,0.0,0.0,0.0,-1.674,-1.6711,-1.6382,-1.6104,-1.6089,-1.6616,-1.6967,-1.6748,0.0,0.0,-1.51,-1.4402,-1.4207,-1.423,-1.4088,-1.4023,-1.3985,-1.3936,-1.3831,0.0,0.0,0.0,0.0,0.0,0.0,0.0,0.0,-1.4196,-1.4172,0.0,-1.3783,0.0,0.0,0.0,0.0,0.0,0.0,0.0,0.0,-1.6571,-1.7096,-1.6786,-1.6786,-1.6619,-1.6325,-1.6929,-1.6357,-1.4537,-1.1996,0.0,0.0,0.0,0.0,0.0,0.0,-1.329,-1.4649,-1.5697,-1.6397,-1.6746,-1.6754,-1.6738,-1.6601,-1.5753,-1.4887,-1.4148,-1.3449,-1.2411,-1.0841,-1.0564,0.0,0.0,0.0,0.0,0.0,0.0,0.0,0.0,0.0,0.0,0.0,0.0,0.0,0.0,0.0,0.0,0.0,0.0,0.0,0.0,-0.9711,0.0,0.0,0.0,0.0,0.0,0.0,0.0,0.0,0.0,0.0,-1.3733,-1.4962,-1.6177,-1.6806,0.0,0.0,0.0,0.0,-1.7479,-1.7786,-1.783,-1.783,-1.783,-1.8072,-1.805,-1.7457,0.0,0.0,-1.7457,-1.7874,-1.8064,-1.7479,-1.786,-1.8003,-1.7079,-1.6206,-1.5639,-1.5616,-1.5245,-1.488,-1.4877,-1.5171,-1.5273,-1.6198,0.0,0.0,0.0,0.0,-1.4744,-1.5356,-1.6349,-1.6095,-1.584,-1.5602,-1.5499,0.0,0.0,0.0,0.0,0.0,0.0,-1.5348,-1.5952,-1.6857,-1.7485,-1.7858,-1.8105,-1.8041,-1.7707,-1.7652,-1.7247,-1.6484,-1.5205,-1.337,-1.1098,0.0,0.0,0.0,0.0,-1.4228,-1.5356,-1.6166,-1.6762,-1.7119,-1.7127,-1.6881,-1.6373,-1.6079,-1.5467,-1.4522,-1.3915,-1.3204,-1.2266,-1.1094,0.0,0.0,0.0,0.0,0.0,0.0,0.0,0.0,0.0,0.0,0.0,0.0,0.0,0.0,0.0,0.0,0.0,0.0,0.0,-0.8985,-0.9755,-1.0337,0.0,0.0,0.0,0.0,0.0,0.0,0.0,0.0,0.0,-1.5862,-1.6287,-1.6828,0.0,0.0,-1.7969,-1.7838,-1.7933,-1.8057,-1.8145,0.0,0.0,0.0,-1.805,-1.7969,-1.8013,-1.8189,-1.8233,-1.8057,-1.8174,-1.8142,-1.7764,-1.7887,-1.7853,-1.7197,-1.7154,-1.7177,-1.7241,-1.6833,-1.6464,-1.6457,-1.6353,-1.6296,-1.8375,-1.6976,-1.6206,-1.6206,-1.6698,-1.6659,-1.7191,-1.8081,-1.7723,-1.7525,-1.7437,-1.7159,-1.654,-1.5674,-1.5388,0.0,0.0,0.0,-1.6508,-1.7064,-1.7628,-1.8112,-1.851,-1.8732,-1.8716,-1.851,-1.8287,-1.8017,-1.7676,-1.7247,-1.5793,-1.3449,0.0,0.0,-1.3203,-1.4339,-1.5396,-1.6293,-1.6865,-1.7254,-1.7469,-1.7342,-1.7,-1.6436,-1.6277,-1.584,-1.5078,-1.4568,-1.3995,-1.3122,-1.2005,-1.0963,0.0,0.0,0.0,0.0,0.0,0.0,0.0,0.0,0.0,0.0,0.0,-0.7448,0.0,0.0,0.0,0.0,-0.8699,-0.9468,-1.0236,-1.088,0.0,0.0,0.0,0.0,0.0,0.0,0.0,-1.5123,-1.6184,-1.7055,-1.7552,-1.7618,-1.7765,-1.8152,-1.8262,-1.8277,-1.8211,0.0,-1.835,-1.8474,-1.8496,-1.854,-1.8664,-1.8525,-1.846,-1.865,-1.8686,-1.8686,-1.8686,-1.8686,-1.8585,-1.8492,-1.8492,-1.839,-1.7985,-1.8079,-1.7886,-1.7462,-1.7213,-1.692,-1.6914,-1.6807,-1.6707,-2.0011,-1.9868,-1.8597,-1.82,-1.8446,-1.8772,-1.909,-1.9376,-1.905,-1.9105,-1.936,-1.8716,-1.8081,-1.7445,-1.6794,0.0,0.0,-1.7644,-1.8112,-1.843,-1.8732,-1.8867,-1.8867,-1.8843,-1.8827,-1.8827,-1.8827,-1.8661,-1.8351,-1.8327,-1.7683,-1.6428,-1.5793,-1.5562,-1.5729,-1.6095,-1.6643,-1.735,-1.766,-1.7811,-1.7811,-1.7461,-1.7119,-1.6786,-1.6404,-1.6039,-1.5682,-1.5356,-1.4652,-1.3715,-1.3076,-1.1997,-1.0372,0.0,0.0,0.0,0.0,0.0,0.0,0.0,0.0,0.0,0.0,0.0,0.0,0.0,0.0,0.0,-1.025,0.0,-1.2028,-1.2701,0.0,0.0,0.0,-1.3821,-1.4238,-1.5328,-1.6155,-1.6477,0.0,0.0,0.0,0.0,-1.8877,-1.8906,-1.8599,-1.8489,-1.8789,-1.8606,-1.8533,-1.8891,-1.8921,-1.9016,-1.9308,-1.9338,-1.933,-1.9352,-1.9352,-1.9352,-1.9352,-1.9352,-1.9352,-1.9248,-1.9352,-1.9248,-1.9248,-1.8716,-1.8116,-1.7103,-1.684,-1.6794,-1.6814,-1.6827,-1.6834,-2.1306,-2.1044,-2.071,-2.0162,-1.9511,-1.9582,-1.9669,-1.9733,-1.9662,-1.9662,-1.9733,-1.9566,-1.9399,-1.9241,-1.9074,-1.9042,-1.9129,-1.9288,-1.9407,-1.9479,-1.932,-1.9241,-1.9233,-1.8962,-1.8827,-1.8827,-1.8827,-1.878,-1.8708,-1.87,-1.8533,-1.8208,-1.8041,-1.7326,-1.615,-1.6706,-1.7366,-1.8049,-1.8136,-1.8168,-1.8152,-1.7588,-1.7231,-1.7151,-1.6532,-1.6039,-1.5682,-1.5047,-1.4525,-1.395,-1.2856,-1.2032,-1.1575,-1.0034,0.0,0.0,0.0,0.0,0.0,0.0,0.0,0.0,0.0,-0.9819,-0.8209,0.0,-1.088,0.0,-1.2094,-1.2797,-1.2789,-1.3367,0.0,0.0,-1.497,-1.5482,-1.6755,-1.696,-1.7216,-1.7779,-1.8335,-1.8796,-1.9125,-1.9374,-1.9623,-1.9842,-1.9396,-1.9074,-1.9155,-1.9323,-1.9528,-1.9798,-1.9857,-1.9923,-1.9967,-2.0011,-1.9989,-2.0011,-1.9996,-2.0003,-2.0011,-2.0003,-1.9903,-1.9672,-1.9563,-1.9238,-1.9014,-1.8707,-1.8448,-1.807,-1.7702,-1.7375,-1.7375,-1.7375,-1.7382,-2.1846,-2.1671,-2.1679,-2.1338,-2.0774,-2.0472,-2.0337,-2.0321,-2.017,-2.0098,-2.0098,-1.994,-1.986,-1.986,-1.986,-1.986,-1.986,-1.986,-1.986,-1.9852,-1.9677,-1.959,-1.9582,-1.9383,-1.9217,-1.9074,-1.9074,-1.8986,-1.8835,-1.8827,-1.8827,-1.8827,-1.8827,-1.8343,-1.7429,-1.7771,-1.816,-1.8533,-1.8533,-1.8462,-1.8287,-1.7779,-1.7358,-1.704,-1.6651,-1.6126,-1.5483,-1.5117,-1.4649,-1.3866,-1.2893,-1.2255,-1.2021,-1.0755,-0.9958,0.0,0.0,0.0,0.0,0.0,0.0,0.0,0.0,0.0,0.0,0.0,-1.2284,0.0,-1.355,0.0,-1.4296,-1.5013,-1.5745,-1.6418,-1.6623,-1.7062,-1.794,-1.7999,-1.8174,-1.8679,-1.9023,-1.9345,-1.9659,-1.9857,-2.0033,-2.0216,-1.9923,-1.9703,-1.9718,-1.9864,-2.004,-2.0208,-2.0237,-2.0237,-2.0237,-2.0237,-2.0237,-2.0237,-2.0237,-2.0128,-2.0019,-2.0026,-1.9909,-1.9676,-1.9456,-1.9346,-1.9133,-1.8913,-1.8705,-1.8658,-1.8332,-1.8016,-1.7989,-1.7989,-1.7983,-2.2061,-2.2021,-2.2029,-2.1997,-2.191,-2.1306,-2.106,-2.1028,-2.0726,-2.0567,-2.0512,-2.0154,-1.9995,-2.0003,-1.9995,-1.9995,-2.0003,-2.0003,-2.0003,-1.9995,-1.9948,-1.9932,-1.9932,-1.9884,-1.9717,-1.9439,-1.9431,-1.9248,-1.8899,-1.8891,-1.8875,-1.8827,-1.8827,-1.8827,-1.8827,-1.8827,-1.8827,-1.8827,-1.8827,-1.8676,-1.8367,-1.8025,-1.7525,-1.6897,-1.6738,-1.6222,-1.5308,-1.5263,-1.4847,-1.376,-1.3216,-1.2698,-1.2233,-1.1619,-1.1114,0.0,-1.0777,0.0,0.0,0.0,0.0,0.0,0.0,0.0,0.0,-1.3397,-1.3945,-1.415,-1.486,-1.5526,-1.6052,-1.6916,-1.756,-1.7852,-1.8174,-1.8364,-1.8379,-1.8686,-1.9023,-1.9308,-1.9623,-1.9938,-2.023,-2.0303,-2.0303,-2.0384,-2.0391,-2.0362,-2.0355,-2.0325,-2.0318,-2.034,-2.0362,-2.0442,-2.042,-2.0398,-2.0398,-2.0377,-2.0406,-2.0252,-1.9964,-1.9957,-1.9832,-1.9486,-1.9396,-1.9382,-1.9348,-1.916,-1.8938,-1.8965,-1.8729,-1.8564,-1.847,-1.8437,-1.8497,-2.2656,-2.2386,-2.2386,-2.222,-2.1949,-2.1814,-2.1759,-2.1751,-2.1695,-2.1513,-2.1234,-2.0877,-2.0726,-2.0718,-2.0726,-2.0718,-2.0718,-2.0726,-2.0718,-2.071,-2.0424,-2.0289,-2.0281,-1.9995,-1.9828,-1.9773,-1.9773,-1.9598,-1.9264,-1.9264,-1.9121,-1.8835,-1.8827,-1.8827,-1.8827,0.0,0.0,0.0,-1.8827,-1.8796,-1.8724,-1.8383,-1.8001,-1.7572,-1.6746,0.0,-1.561,-1.5078,-1.4651,-1.4393,-1.4029,0.0,0.0,0.0,0.0,0.0,0.0,0.0,0.0,0.0,0.0,0.0,-1.3953,-1.3616,-1.3382,-1.4853,-1.5635,-1.524,-1.644,-1.7208,-1.7084,-1.7691,-1.8145,-1.8218,-1.8503,-1.8701,-1.8716,-1.922,-1.9608,-1.9659,-1.9952,-2.0267,-2.0574,-2.0633,-2.0728,-2.0947,-2.1028,-2.1028,-2.1006,-2.0779,-2.0735,-2.0955,-2.0976,-2.1013,-2.102,-2.0998,-2.0962,-2.1028,-2.1028,-2.0885,-2.0515,-2.0515,-2.0423,-2.0067,-1.9867,-1.9738,-1.9738,-1.9537,-1.9273,-1.9307,-1.93,-1.9058,-1.8597,-1.8497,-1.8497,-2.2911,0.0,-2.2752,-2.2641,0.0,-2.2482,-2.2482,-2.2458,-2.21,-2.1862,-2.1687,-2.1513,-2.1338,-2.1179,-2.1187,-2.1084,-2.0925,-2.0925,-2.0925,-2.0917,-2.0734,-2.0647,-2.0647,-2.0472,-2.0297,-2.013,-2.0122,-1.9948,-1.963,-1.9614,-1.9439,-1.9098,-1.9098,-1.901,-1.8835,-1.8827,-1.8827,-1.8827,-1.8827,-1.8827,-1.8812,-1.8486,-1.8128,-1.7763,0.0,0.0,0.0,0.0,0.0,0.0,0.0,0.0,0.0,0.0,0.0,-1.3404,-1.3695,-1.396,-1.3975,-1.4399,-1.4889,-1.5379,-1.5555,-1.5521,-1.4955,-1.5957,-1.6616,-1.6623,-1.7362,-1.7816,-1.783,-1.8247,-1.854,-1.8562,-1.8979,-1.9264,-1.9316,-1.9696,-2.0055,-2.0216,-2.0377,-2.0603,-2.0918,-2.0962,-2.102,-2.1181,-2.1211,-2.1211,-2.1203,-2.1072,-2.1035,-2.1189,-2.1211,-2.1203,-2.1211,-2.1211,-2.1211,-2.1203,-2.1089,-2.0845,-2.0608,-2.0385,-2.0155,-1.9931,-1.9707,-1.9591,-1.9591,-1.9482,-1.9366,-1.9366,-1.9366,-1.9292,-1.8978,-1.8925,-1.8925,-2.3157,-2.3109,-2.3109,-2.3077,-2.3014,-2.3014,-2.3014,-2.2974,0.0,0.0,0.0,-2.1989,-2.1798,-2.1544,-2.1544,-2.1377,-2.1107,-2.1044,-2.102,-2.1012,-2.0956,-2.0925,-2.0925,-2.0925,-2.0774,-2.0496,-2.0488,-2.0305,-1.9971,-1.9955,-1.9781,-1.9487,-1.9455,-1.928,-1.8947,-1.8859,-1.8827,-1.8827,-1.8827,-1.8827,-1.8819,-1.8541,-1.8224,-1.7874,-1.754,-1.698,-1.634,-1.6059,-1.5643,-1.4958,-1.4742,-1.4595,-1.4333,-1.4582,-1.4845,-1.5116,-1.5621,-1.5848,-1.5701,-1.6162,-1.6374,-1.6177,-1.6696,-1.6908,-1.6645,-1.6865,-1.7267,-1.7852,-1.7947,-1.8101,-1.8364,-1.8679,-1.8899,-1.8964,-1.944,-1.9777,-1.985,-2.0128,-2.042,-2.0669,-2.0764,-2.0911,-2.1152,-2.1189,-2.1211,-2.1211,-2.1211,-2.1211,-2.1211,-2.1196,-2.1181,-2.1203,-2.1211,-2.1211,-2.1211,-2.1211,-2.1211,-2.1081,-2.0845,-2.0608,-2.027,-1.9931,-1.97,-1.9482,-1.9366,-1.9366,-1.9366,-1.9366,-1.9366,-1.9366,-1.9366,-1.9366,-1.9366,-1.9366,-1.9339,-2.3737,-2.3467,-2.3467,-2.33,-2.3014,-2.3014,-2.3014,-2.2982,-2.2585,-2.241,-2.2394,-2.2092,-2.1926,-2.1886,-2.1886,-2.1862,-2.1791,-2.1513,-2.1377,0.0,-2.1068,-2.0925,-2.0925,-2.0925,-2.0901,-2.0853,-2.0853,-2.0662,-2.0353,-2.0313,-2.0138,-1.9836,-1.9797,-1.9622,-1.9296,-1.8986,-1.8827,-1.8827,-1.8827,-1.8827,-1.8827,-1.878,-1.8581,-1.8232,-1.7715,-1.718,-1.6783,-1.6423,-1.6139,-1.5965,-1.6056,-1.5999,-1.5665,-1.5672,-1.5738,-1.5774,-1.5862,-1.6133,-1.6608,-1.674,-1.6887,-1.7121,-1.7465,-1.7662,-1.7625,-1.7655,-1.783,-1.8203,-1.8467,-1.8664,-1.8738,-1.9016,-1.9308,-1.9564,-1.9711,-1.9864,-2.0142,-2.0457,-2.0676,-2.0742,-2.0976,-2.113,-2.1189,-2.1211,-2.1211,-2.1211,-2.1211,-2.1211,-2.1211,-2.1211,-2.1211,-2.1211,-2.1211,-2.1211,-2.1211,-2.1211,-2.1089,-2.0838,-2.0723,-2.0493,-2.004,-1.9815,-1.97,-1.9482,-1.9366,-1.9366,-1.9366,-1.9366,-1.9366,-1.9366,-1.9366,-1.9366,-1.9366,-1.9366,-1.9366,-2.3959,-2.3832,-2.3816,-2.3729,-2.3562,-2.3387,-2.33,-2.3268,-2.2934,-2.2768,-2.276,-2.2601,-2.2426,-2.2259,-2.2243,-2.214,-2.1949,-2.1791,-2.1727,-2.1711,-2.156,-2.1385,-2.1219,-2.1203,-2.1107,-2.0933,-2.0925,-2.0845,-2.0694,-2.0678,-2.0504,-2.0162,-1.9963,-1.9789,-1.963,-1.9296,-1.9121,-1.9113,-1.8931,-1.8827,-1.8827,-1.8827,-1.8656,-1.8415,-1.7897,-1.7551,-1.7301,-1.6862,-1.659,-1.6503,-1.655,-1.6484,-1.6177,-1.6323,-1.6426,-1.6433,-1.6587,-1.6806,-1.7091,-1.7113,-1.7252,-1.7567,-1.7728,-1.7969,-1.8321,-1.8182,-1.8218,-1.8533,-1.8708,-1.8862,-1.9038,-1.9345,-1.9601,-1.9747,-2.0062,-2.034,-2.0501,-2.0794,-2.0984,-2.0991,-2.1115,-2.1211,-2.1211,-2.1211,-2.1211,-2.1211,-2.1211,-2.1211,-2.1218,-2.1218,-2.1211,-2.1211,-2.1211,-2.1211,-2.1211,-2.1211,-2.1089,-2.0967,-2.073,-2.0385,-2.0046,-1.9822,-1.9591,-1.9482,-1.9372,-1.9366,-1.9379,-1.9366,-1.9366,-1.9366,-1.9366,-1.9366,-1.9366,-1.9366,-1.9366,-2.4245,-2.4174,-2.4174,-2.4126,-2.4031,-2.3769,-2.3657,-2.3626,-2.3284,-2.3133,-2.3125,-2.3054,-2.2863,-2.2625,-2.2601,-2.2458,-2.2212,-2.2108,-2.2077,-2.2069,-2.1997,-2.1822,-2.1576,-2.1497,-2.1298,-2.1052,-2.0964,-2.0925,-2.0925,-2.0925,-2.079,-2.0504,-2.0162,-1.9987,-1.9979,-1.9654,-1.9447,-1.9368,-1.909,-1.8907,-1.8827,-1.8827,-1.8743,-1.8465,-1.8125,-1.7879,-1.7591,-1.7266,-1.6952,-1.6862,-1.6862,-1.6766,-1.6594,-1.6821,-1.696,-1.6989,-1.7194,-1.7362,-1.7428,-1.7435,-1.7582,-1.7896,-1.7999,-1.8247,-1.8694,-1.8635,-1.8621,-1.8855,-1.8913,-1.9038,-1.9345,-1.9594,-1.9813,-1.9967,-2.0406,-2.072,-2.0845,-2.1064,-2.1211,-2.1211,-2.1211,-2.1211,-2.1211,-2.1211,-2.1247,-2.132,-2.132,-2.1342,-2.1408,-2.143,-2.143,-2.1393,-2.1313,-2.1211,-2.1211,-2.1211,-2.1203,-2.1089,-2.0622,-2.0319,-2.0245,-1.9815,-1.9629,-1.9573,-1.9593,-1.9613,-1.9579,-1.9586,-1.9566,-1.9533,-1.9499,-1.9479,-1.9492,-1.9486,-1.9432,-2.4817,-2.4555,-2.4539,-2.4341,-2.4078,-2.4023,-2.4007,-2.3959,-2.3642,-2.3499,-2.3451,-2.3157,-2.2998,-2.2974,-2.2958,-2.2919,-2.2855,-2.2585,-2.2434,-2.2394,-2.21,-2.1941,-2.1886,-2.1608,-2.1433,-2.1362,-2.1091,-2.0956,-2.0948,-2.0933,-2.0909,-2.0837,-2.0519,-2.0353,-2.0313,-2.0003,-1.9677,-1.9383,-1.9336,-1.9161,-1.8843,-1.8827,-1.8651,-1.8481,-1.8249,-1.7948,-1.7747,-1.7446,-1.7238,-1.7238,-1.7223,-1.723,-1.723,-1.7267,-1.7282,-1.7282,-1.7311,-1.745,-1.7728,-1.7772,-1.7911,-1.8233,-1.8518,-1.8694,-1.8811,-1.903,-1.9184,-1.9228,-1.9228,-1.9367,-1.9667,-1.9769,-2.0033,-2.0486,-2.0676,-2.0837,-2.1086,-2.1189,-2.1211,-2.1211,-2.1211,-2.1211,-2.1211,-2.1233,-2.1342,-2.1576,-2.1635,-2.173,-2.1935,-2.1986,-2.1993,-2.1942,-2.1628,-2.1291,-2.1269,-2.1218,-2.1176,-2.0903,-2.0522,-2.0431,-2.0268,-2.0128,-1.982,-1.9953,-2.008,-2.0067,-2.0087,-2.014,-2.002,-1.9813,-1.976,-1.976,-1.976,-1.976,-1.9679,-2.5032,-2.4889,-2.4889,-2.4817,-2.4658,-2.446,-2.4364,-2.4309,-2.3785,-2.3538,-2.3499,-2.3165,-2.3014,-2.3014,-2.3014,-2.3014,-2.3006,-2.2871,-2.2799,-2.2791,-2.2641,-2.2474,-2.2267,-2.214,-2.1965,-2.1735,-2.1401,-2.1234,-2.1195,-2.1028,-2.0925,-2.0917,-2.0766,-2.0702,-2.0678,-2.0353,-2.0106,-1.9963,-2.0123,-1.9939,-1.9325,-1.9469,-1.9455,-1.9088,-1.8996,-1.8711,-1.835,-1.7692,-1.7333,-1.7333,-1.7333,-1.7333,-1.7333,-1.7333,-1.7333,-1.734,-1.7516,-1.7677,-1.7801,-1.7991,-1.824,-1.8562,-1.8708,-1.8862,-1.906,-1.9206,-1.9352,-1.9528,-1.9572,-1.963,-1.9784,-2.0106,-2.0442,-2.0698,-2.0889,-2.1064,-2.1189,-2.1211,-2.1211,-2.1211,-2.1211,-2.1211,-2.124,-2.1379,-2.154,-2.1708,-2.1847,-2.2052,-2.2176,-2.2184,-2.2184,-2.2154,-2.1935,-2.1811,-2.1767,-2.1789,-2.1656,-2.1531,-2.1171,-2.0781,-2.0711,-2.0414,-2.0107,-2.0241,-2.0274,-2.0274,-2.0207,-2.0234,-2.018,-2.006,-2.0054,-2.0054,-2.0054,-2.0054,-1.9987,-2.5103,-2.5103,-2.5103,-2.5103,-2.5079,-2.4841,-2.473,-2.465,-2.4086,-2.3769,-2.3649,-2.3316,-2.3101,-2.3022,-2.3014,-2.3014,-2.3014,-2.3014,-2.3014,-2.3014,-2.3014,-2.2879,-2.2649,-2.2513,-2.2355,-2.2084,-2.1759,-2.1544,-2.1433,-2.1211,-2.1123,-2.124,-2.1019,-2.1019,-2.1293,-2.0849,-2.0488,-2.0452,-2.082,-2.0727,-2.0136,-2.0619,-2.0371,-1.9288,-1.908,-1.8896,-1.8427,-1.7692,-1.7333,-1.7333,-1.7333,-1.7333,-1.7333,-1.7333,-1.7362,-1.7479,-1.7765,-1.7991,-1.8072,-1.8299,-1.8577,-1.8877,-1.8921,-1.9016,-1.9228,-1.9352,-1.9506,-1.9718,-1.9916,-2.004,-2.0084,-2.045,-2.0735,-2.0852,-2.1086,-2.1211,-2.1211,-2.1211,-2.1211,-2.1211,-2.1211,-2.1254,-2.1357,-2.1547,-2.1737,-2.1972,-2.2169,-2.2367,-2.241,-2.2462,-2.2454,-2.244,-2.244,-2.2352,-2.2235,-2.2132,-2.2184,-2.1937,-2.1519,-2.1166,-2.1157,-2.0591,-2.0441,-2.0581,-2.0494,-2.0494,-2.0581,-2.0535,-2.0414,-2.0361,-2.0307,-2.0294,-2.0341,-2.0347,-2.0401,-2.5103,-2.5103,-2.5103,-2.5103,-2.5103,-2.5079,-2.5071,-2.5261,-2.4779,-2.4452,-2.4242,-2.3757,-2.3332,-2.3151,-2.3247,-2.3014,-2.3014,-2.3014,-2.3014,-2.3014,-2.3022,-2.3006,-2.2974,-2.2656,-2.2592,-2.2755,-2.2317,-2.1881,-2.1481,-2.1417,-2.177,-2.235,-2.1538,-2.1522,-2.2215,-2.1481,-2.0828,-2.0832,-2.159,-2.1801,-2.1596,-2.2259,-2.1308,-1.8753,-1.8195,-1.8132,-1.7542,-1.734,-1.734,-1.734,-1.734,-1.7333,-1.734,-1.7347,-1.7501,-1.7779,-1.8101,-1.8416,-1.8657,-1.8738,-1.8891,-1.9177,-1.9213,-1.9257,-1.9323,-1.955,-1.9733,-1.9791,-2.0311,-2.0611,-2.0647,-2.0713,-2.0881,-2.1115,-2.1181,-2.1211,-2.1211,-2.1211,-2.1211,-2.1211,-2.124,-2.1357,-2.162,-2.1679,-2.2008,-2.2367,-2.2571,-2.2689,-2.2908,-2.301,-2.2996,-2.2988,-2.2959,-2.2857,-2.2345,-2.233,-2.2166,-2.1939,-2.1783,-2.1213,-2.1012,-2.0929,-2.094,-2.0929,-2.0915,-2.0942,-2.1029,-2.0989,-2.0855,-2.0715,-2.0488,-2.0454,-2.0628,-2.0648,-2.0702,-2.5103,-2.5103,-2.5103,-2.5586,-2.6181,-2.5464,-2.6067,-2.734,-2.6261,-2.6261,-2.6606,-2.6162,-2.5804,-2.5646,-2.5401,-2.442,-2.3127,-2.3014,-2.3014,-2.3127,-2.3784,-2.4119,-2.4103,-2.3969,-2.4336,-2.4815,-2.3954,-2.3277,-2.2908,-2.2578,-2.2593,-2.2843,-2.2924,-2.3203,-2.3402,-2.3103,-2.2924,-2.2883,-2.3542,-2.3524,-2.2715,-2.3307,-2.2348,-1.9979,-1.9653,-1.9368,-1.8897,-1.8125,-1.7633,-1.7633,-1.745,-1.7428,-1.7633,-1.7838,-1.7999,-1.8138,-1.8438,-1.8664,-1.8789,-1.8986,-1.9147,-1.925,-1.9272,-1.9381,-1.9557,-1.9703,-1.9916,-2.0311,-2.0545,-2.0786,-2.0991,-2.1028,-2.1072,-2.1174,-2.1211,-2.1211,-2.1211,-2.1211,-2.1211,-2.124,-2.1372,-2.1576,-2.1752,-2.2037,-2.2367,-2.2586,-2.2798,-2.2967,-2.3062,-2.3106,-2.3106,-2.3106,-2.3098,-2.304,-2.2864,-2.2791,-2.2661,-2.253,-2.2305,-2.1941,-2.1673,-2.1166,-2.1015,-2.1009,-2.1089,-2.1102,-2.1082,-2.1076,-2.1002,-2.0962,-2.0735,-2.0722,-2.0929,-2.0882,-2.0949,-2.5586,-2.6181,-2.5831,-2.6415,-2.7495,-2.6658,-2.7254,-2.8765,-2.7801,-2.7732,-2.8223,-2.7833,-2.7529,-2.7345,-2.6967,-2.5913,-2.4477,-2.4161,-2.4103,-2.4206,-2.4982,-2.5313,-2.5313,-2.5313,-2.5744,-2.6236,-2.5468,-2.4817,-2.4456,-2.4079,-2.4094,-2.4356,-2.4373,-2.4489,-2.4678,-2.4359,-2.4088,-2.423,-2.4803,-2.4583,-2.3666,-2.4107,-2.3472,-2.1739,-2.1341,-2.063,-1.947,-1.8469,-1.7977,-1.794,-1.7757,-1.7743,-1.7977,-1.8277,-1.846,-1.8496,-1.8767,-1.8942,-1.8972,-1.9162,-1.9316,-1.9425,-1.944,-1.9572,-1.9872,-2.0011,-2.0296,-2.0633,-2.0845,-2.0991,-2.1137,-2.1203,-2.1211,-2.1211,-2.1211,-2.1211,-2.1211,-2.1211,-2.1262,-2.1386,-2.1547,-2.1745,-2.1993,-2.2359,-2.2615,-2.2754,-2.2981,-2.3098,-2.3106,-2.3106,-2.3106,-2.3106,-2.3106,-2.3106,-2.3018,-2.2857,-2.2733,-2.2616,-2.2359,-2.2201,-2.1866,-2.1362,-2.1109,-2.1102,-2.1102,-2.1102,-2.1102,-2.1102,-2.1102,-2.1102,-2.1036,-2.0962,-2.1049,-2.1076,-2.1089,-2.6658,-2.8444,-2.7495,-2.7727,-2.8801,-2.8683,-2.8801,-2.9148,-2.902,-2.8908,-2.8978,-2.8616,-2.8567,-2.8022,-2.7846,-2.7327,-2.7151,-2.6838,-2.6418,-2.6282,-2.6372,-2.6481,-2.649,-2.649,-2.649,-2.6707,-2.6472,-2.627,-2.6028,-2.5927,-2.6153,-2.6545,-2.5607,-2.5519,-2.6348,-2.506,-2.4332,-2.4421,-2.5178,-2.5042,-2.398,-2.4701,-2.4468,-2.3006,-2.2807,-2.1603,-1.9056,-1.8617,-1.8397,-1.8306,-1.8269,-1.8284,-1.8335,-1.8613,-1.8796,-1.884,-1.9089,-1.925,-1.9279,-1.9308,-1.9469,-1.9696,-1.9769,-1.9901,-2.0216,-2.0479,-2.0669,-2.0794,-2.1006,-2.1196,-2.1196,-2.1211,-2.1211,-2.1211,-2.1211,-2.1211,-2.1211,-2.1225,-2.135,-2.1635,-2.1774,-2.1986,-2.2418,-2.2645,-2.2784,-2.2988,-2.3084,-2.3106,-2.3106,-2.3106,-2.3106,-2.3106,-2.3106,-2.3106,-2.2981,-2.2849,-2.2731,-2.2598,-2.2208,-2.1985,-2.1734,-2.1362,-2.1109,-2.1102,-2.1102,-2.1102,-2.1102,-2.1102,-2.1102,-2.1102,-2.1102,-2.1102,-2.1102,-2.1102,-2.1102,-2.8206,-2.8801,-2.8435,-2.9048,-2.9982,-2.9275,-2.9865,-3.1305,-3.0587,-3.0626,-3.1182,-3.1007,-3.0787,-3.0598,-3.0329,-3.0018,-3.0088,-2.9559,-2.8417,-2.6971,-2.7356,-2.7678,-2.7678,-2.7678,-2.7678,-2.7678,-2.7678,-2.7621,-2.7458,-2.7228,-2.7197,-2.7334,-2.7481,-2.7181,-2.6839,-2.6646,-2.6103,-2.4774,-2.584,-2.5489,-2.3791,-2.4992,-2.4894,-2.3185,-2.3393,-2.2655,-2.066,-2.0037,-1.9422,-1.8728,-1.8423,-1.8401,-1.8642,-1.8942,-1.9118,-1.9133,-1.9206,-1.9389,-1.9586,-1.9623,-1.9747,-2.0011,-2.0091,-2.0245,-2.0516,-2.0662,-2.083,-2.0998,-2.1159,-2.1211,-2.1211,-2.1211,-2.1211,-2.1211,-2.1211,-2.1211,-2.1262,-2.1415,-2.1686,-2.1986,-2.2206,-2.2425,-2.2608,-2.2776,-2.2974,-2.3069,-2.3106,-2.3106,-2.3106,-2.3106,-2.3106,-2.3106,-2.3106,-2.3106,-2.2981,-2.2731,-2.248,-2.2362,-2.2111,-2.1859,-2.1607,-2.1362,-2.1229,-2.1102,-2.1102,-2.1102,-2.1102,-2.1102,-2.1102,-2.1102,-2.1102,-2.1102,-2.1102,-2.1102,-2.1102,-2.9512,-3.0227,-2.9747,-3.0344,-3.1421,-3.0577,-3.0946,-3.1777,-3.1179,-3.1295,-3.1822,-3.1724,-3.1829,-3.2086,-3.1826,-3.1629,-3.1578,-3.1143,-2.9904,-2.8271,-2.8495,-2.889,-2.889,-2.889,-2.888,-2.888,-2.889,-2.889,-2.887,-2.863,-2.8481,-2.8629,-2.8778,-2.8553,-2.7883,-2.8003,-2.7311,-2.609,-2.6251,-2.5439,-2.3917,-2.4393,-2.4196,-2.2985,-2.3185,-2.2885,-2.1769,-2.1067,-2.0062,-1.9139,-1.8767,-1.8782,-1.8972,-1.9162,-1.9272,-1.9294,-1.9396,-1.9557,-1.9747,-1.9872,-2.0077,-2.0347,-2.042,-2.0567,-2.0823,-2.0903,-2.1013,-2.1167,-2.1211,-2.1211,-2.1211,-2.1211,-2.1211,-2.1211,-2.1211,-2.1262,-2.1386,-2.1679,-2.1993,-2.2286,-2.2491,-2.2659,-2.2828,-2.2945,-2.3106,-2.3106,-2.3106,-2.3106,-2.3106,-2.3106,-2.3106,-2.3106,-2.2981,-2.2863,-2.2863,-2.2606,-2.223,-2.2111,-2.1866,-2.1734,-2.1614,-2.1355,-2.1102,-2.1102,-2.1102,-2.1102,-2.1102,-2.1102,-2.1102,-2.1102,-2.1102,-2.1102,-2.1102,-2.1102,-2.1102,-3.0587,-3.2498,-3.1421,-3.1421,-3.2373,-3.2258,-3.1652,-3.082,-3.0587,-3.0704,-3.081,-3.0771,-3.1371,-3.225,-3.1655,-3.138,-3.1656,-3.1377,-3.0816,-3.0248,-3.0093,-2.9856,-2.9795,-2.9774,-2.9774,-2.9889,-2.9889,-2.9889,-2.9774,-2.9733,-2.9994,-2.9786,-2.9436,-2.9229,-2.8932,-2.8776,-2.8263,-2.7262,-2.6486,-2.5329,-2.3482,-2.3456,-2.312,-2.2793,-2.2785,-2.2685,-2.2274,-2.1245,-2.0254,-1.9472,-1.9206,-1.9191,-1.9257,-1.9272,-1.9279,-1.9338,-1.9601,-1.9769,-1.9872,-2.012,-2.0406,-2.0698,-2.0764,-2.0867,-2.1108,-2.1145,-2.1152,-2.1203,-2.1325,-2.1318,-2.1318,-2.1432,-2.1447,-2.1247,-2.1298,-2.1423,-2.1723,-2.2037,-2.2315,-2.2564,-2.2667,-2.2754,-2.3025,-2.3084,-2.3098,-2.3106,-2.3106,-2.3106,-2.3106,-2.3106,-2.3106,-2.2981,-2.2863,-2.2738,-2.2738,-2.2237,-2.1985,-2.1859,-2.1614,-2.1481,-2.1481,-2.1229,-2.1102,-2.1102,-2.1102,-2.1102,-2.1102,-2.1102,-2.1102,-2.1102,-2.1102,-2.1102,-2.1102,-2.1102,-2.1102,-3.2133,-3.2612,-3.2373,-3.1903,-3.1305,-3.1305,-3.0587,-2.9512,-2.9394,-3.0001,-3.047,-2.9757,-3.0227,-3.1169,-3.0238,-2.9704,-3.0055,-3.0319,-3.0234,-2.9908,-3.0376,-3.0305,-3.0056,-2.9994,-2.9994,-2.9994,-2.9994,-2.9994,-2.9994,-2.9994,-2.9994,-2.9994,-2.986,-2.936,-2.865,-2.8911,-2.8041,-2.6607,-2.7025,-2.5977,-2.4113,-2.4775,-2.4808,-2.3809,-2.361,-2.3211,-2.2391,-2.068,-1.968,-1.9376,-1.9272,-1.9272,-1.9294,-1.9294,-1.9396,-1.9623,-1.9733,-1.9996,-2.0377,-2.0537,-2.075,-2.1028,-2.105,-2.1115,-2.1189,-2.1211,-2.1211,-2.1318,-2.1873,-2.2207,-2.1653,-2.1995,-2.22,-2.1634,-2.1715,-2.1906,-2.222,-2.2454,-2.263,-2.2908,-2.2959,-2.3018,-2.3069,-2.3106,-2.3106,-2.3106,-2.3106,-2.3106,-2.3106,-2.3106,-2.3106,-2.2988,-2.2863,-2.2738,-2.2487,-2.1985,-2.1734,-2.1607,-2.1481,-2.1229,-2.1229,-2.1102,-2.1102,-2.1102,-2.1102,-2.1102,-2.1102,-2.1102,-2.1102,-2.1102,-2.1102,-2.1102,-2.1102,-2.1102,-2.1102,-3.2727,-3.2727,-3.2727,-3.2258,-3.1652,-3.1652,-3.0587,-2.9275,-2.9512,-2.9394,-2.9394,-2.9639,-2.9747,-2.9992,-3.0344,-3.0227,-2.9837,-3.0797,-3.0807,-3.0279,-3.0335,-3.0243,-3.0036,-2.9994,-2.9994,-2.9994,-2.9994,-2.9994,-2.9994,-2.9994,-2.9994,-2.9994,-2.9994,-2.9659,-2.9187,-2.91,-2.8743,-2.7284,-2.725,-2.6304,-2.479,-2.4977,-2.4774,-2.402,-2.3883,-2.3484,-2.225,-2.0603,-1.9572,-1.936,-1.9279,-1.933,-1.9462,-1.9484,-1.963,-1.9938,-2.0084,-2.0362,-2.0647,-2.0837,-2.1013,-2.1159,-2.1211,-2.1539,-2.1873,-2.1987,-2.1987,-2.2749,-2.3295,-2.3295,-2.2998,-2.3545,-2.3312,-2.246,-2.2557,-2.2826,-2.2715,-2.274,-2.2901,-2.3054,-2.3106,-2.3106,-2.3106,-2.3106,-2.3106,-2.3106,-2.3106,-2.3106,-2.3106,-2.3106,-2.3106,-2.2988,-2.2738,-2.2487,-2.2237,-2.1734,-2.1481,-2.1355,-2.1355,-2.1102,-2.1102,-2.1102,-2.1102,-2.1102,-2.1102,-2.1102,-2.1102,-2.1102,-2.1102,-2.1102,-2.1102,-2.1102,-2.1102,-2.1102,-2.1102,-3.2727,-3.2727,-3.2727,-3.2612,-3.2373,-3.2373,-3.0937,-2.9394,-2.9865,-2.9403,-2.8444,-2.9747,-2.9992,-2.9275,-3.082,-3.1421,-3.0577,-3.1496,-3.1779,-3.1141,-3.0615,-3.0118,-3.0015,-2.9994,-2.9994,-2.9994,-2.9994,-2.9994,-2.9994,-2.9994,-2.9994,-2.9994,-2.9994,-2.9994,-2.9659,-2.9628,-2.9339,-2.8565,-2.7524,-2.6826,-2.5975,-2.5381,-2.4882,-2.4539,-2.3896,-2.3081,-2.183,-2.0677,-1.9959,-1.9411,-1.9381,-1.9564,-1.9791,-1.9806,-1.9974,-2.0237,-2.0494,-2.0676,-2.0808,-2.1042,-2.1181,-2.1211,-2.1211,-2.1759,-2.2539,-2.2765,-2.3191,-2.4172,-2.4727,-2.4872,-2.4907,-2.5293,-2.4771,-2.3839,-2.4259,-2.4104,-2.3444,-2.3054,-2.3106,-2.323,-2.323,-2.3106,-2.3106,-2.3106,-2.3106,-2.3106,-2.3106,-2.3106,-2.3106,-2.3106,-2.2981,-2.2988,-2.2613,-2.2111,-2.1859,-2.1481,-2.1355,-2.1102,-2.1229,-2.1102,-2.1102,-2.1102,-2.1102,-2.1102,-2.1102,-2.1102,-2.1102,-2.1102,-2.1102,-2.1102,-2.1102,-2.1102,-2.1102,-2.1102,-2.1102,-3.2727,-3.2727,-3.2727,-3.2133,-3.1295,-3.1179,-3.0353,-2.9039,-2.9275,-2.9639,-2.9757,-2.963,-2.9757,-3.0227,-3.0109,-2.9512,-2.9747,-3.0762,-3.1181,-3.1391,-3.0833,-3.0325,-3.0077,-3.0015,-2.9994,-2.9994,-2.9994,-2.9994,-2.9994,-2.9994,-2.9994,-2.9994,-2.9994,-2.9889,-2.9669,-2.9554,-2.9323,-2.88,-2.8347,-2.7795,-2.7274,-2.6874,-2.6418,-2.5956,-2.4526,-2.2585,-2.0977,-2.0339,-2.0164,-2.0069,-2.004,-2.0084,-2.012,-2.0135,-2.0296,-2.0545,-2.0676,-2.0837,-2.105,-2.1152,-2.1211,-2.1211,-2.1203,-2.1653,-2.2869,-2.3095,-2.3631,-2.4616,-2.5507,-2.6235,-2.6475,-2.6399,-2.6074,-2.5752,-2.5977,-2.6369,-2.5781,-2.4394,-2.3837,-2.4209,-2.3845,-2.3106,-2.3106,-2.3106,-2.3106,-2.3106,-2.3106,-2.3106,-2.3106,-2.3106,-2.2981,-2.2863,-2.2487,-2.2111,-2.1734,-2.1481,-2.1229,-2.1102,-2.1102,-2.1102,-2.1102,-2.1102,-2.1102,-2.1102,-2.1102,-2.1102,-2.1102,-2.1102,-2.1102,-2.1102,-2.1102,-2.1102,-2.1102,-2.1102,-2.1102,-3.2727,-3.2727,-3.2727,-3.2373,-3.1777,-3.1652,-3.0946,-3.0109,-3.047,-3.0344,-3.0109,-3.0227,-3.047,-2.9992,-3.0353,-3.0461,-3.0169,-3.0827,-3.1461,-3.1478,-3.104,-3.0553,-3.0315,-3.0098,-2.9994,-2.9994,-2.9994,-2.9994,-2.9994,-2.9994,-2.9994,-2.9994,-2.9889,-2.9774,-2.9554,-2.9353,-2.9046,-2.8708,-2.8514,-2.828,-2.7988,-2.7959,-2.7564,-2.6471,-2.4584,-2.2638,-2.1685,-2.0929,-2.0698,-2.0684,-2.0676,-2.0603,-2.0479,-2.0472,-2.0633,-2.0881,-2.0955,-2.1006,-2.1167,-2.1211,-2.1211,-2.1211,-2.1211,-2.1866,-2.2862,-2.3416,-2.4411,-2.545,-2.6719,-2.7704,-2.7741,-2.8205,-2.7885,-2.7071,-2.7475,-2.7829,-2.7598,-2.6147,-2.5063,-2.5546,-2.4941,-2.4332,-2.3961,-2.372,-2.323,-2.323,-2.3106,-2.3106,-2.3106,-2.3106,-2.2856,-2.2731,-2.2355,-2.1985,-2.1607,-2.1355,-2.1229,-2.1102,-2.1102,-2.1102,-2.1102,-2.1102,-2.1102,-2.1102,-2.1102,-2.1102,-2.1102,-2.1102,-2.1102,-2.1102,-2.1102,-2.1102,-2.1102,-2.1102,-2.1102,-3.2727,-3.2727,-3.2727,-3.2727,-3.2727,-3.2612,-3.2018,-3.1411,-3.2248,-3.1431,-3.0227,-3.1893,-3.1411,-3.0344,-3.1652,-3.1893,-3.1572,-3.1704,-3.2045,-3.1878,-3.135,-3.0895,-3.0626,-3.0325,-3.0098,-3.0015,-2.9994,-2.9994,-2.9994,-2.9994,-2.9994,-2.9889,-2.9774,-2.9554,-2.9448,-2.9046,-2.8834,-2.8717,-2.8504,-2.8388,-2.8349,-2.8242,-2.7552,-2.5973,-2.4633,-2.3095,-2.2317,-2.1563,-2.1167,-2.1211,-2.1211,-2.1057,-2.0881,-2.0808,-2.0896,-2.1189,-2.1167,-2.1174,-2.1189,-2.1211,-2.1211,-2.1211,-2.1211,-2.1979,-2.3079,-2.4197,-2.5348,-2.6793,-2.8072,-2.8857,-2.8704,-2.9382,-2.9203,-2.8345,-2.8683,-2.9048,-2.9048,-2.8215,-2.7735,-2.7125,-2.6277,-2.5431,-2.4941,-2.4579,-2.3837,-2.3347,-2.323,-2.3106,-2.3106,-2.2981,-2.2731,-2.248,-2.2104,-2.1734,-2.1481,-2.1355,-2.1102,-2.1102,-2.1102,-2.1102,-2.1102,-2.1102,-2.1102,-2.1102,-2.1102,-2.1102,-2.1102,-2.1102,-2.1102,-2.1102,-2.1102,-2.1102,-2.1102,-2.1102,-2.1102,-3.2727,-3.2727,-3.2727,-3.2727,-3.2727,-3.2727,-3.2612,-3.2498,-3.2612,-3.2487,-3.2133,-3.2498,-3.2487,-3.2133,-3.2248,-3.2487,-3.2217,-3.2333,-3.2272,-3.2024,-3.1643,-3.1333,-3.0756,-3.056,-3.0387,-3.0077,-3.0025,-2.9951,-3.0005,-2.9994,-2.9889,-2.9764,-2.9659,-2.9544,-2.9237,-2.8824,-2.8834,-2.8824,-2.8621,-2.8408,-2.8514,-2.8291,-2.7178,-2.5507,-2.4505,-2.3416,-2.1873,-2.1432,-2.1211,-2.1211,-2.1211,-2.1174,-2.1108,-2.1094,-2.1137,-2.1181,-2.1211,-2.1211,-2.1211,-2.1211,-2.1211,-2.1211,-2.1211,-2.2312,-2.3735,-2.4667,-2.5967,-2.7946,-2.925,-2.9916,-2.9938,-3.0383,-3.0626,-3.0274,-3.0157,-3.0401,-3.0392,-3.0039,-2.9549,-2.8692,-2.7607,-2.665,-2.6277,-2.5668,-2.4818,-2.4209,-2.3845,-2.3479,-2.3106,-2.2856,-2.2613,-2.223,-2.1853,-2.1481,-2.1235,-2.1235,-2.1102,-2.1102,-2.1102,-2.1102,-2.1102,-2.1102,-2.1102,-2.1102,-2.1102,-2.1102,-2.1102,-2.1102,-2.1102,-2.1102,-2.1102,-2.1102,-2.1102,-2.1102,-2.1102,-3.2727,-3.2727,-3.2727,-3.2727,-3.2727,-3.2727,-3.2727,-3.2727,-3.2727,-3.2727,-3.2727,-3.2727,-3.2727,-3.2727,-3.2727,-3.2612,-3.2487,-3.2487,-3.224,-3.1921,-3.1676,-3.1411,-3.087,-3.0707,-3.0437,-3.015,-3.0028,-2.999,-3.0025,-2.9994,-2.9889,-2.9774,-2.9659,-2.9554,-2.9353,-2.9142,-2.893,-2.8834,-2.8621,-2.8504,-2.8514,-2.8301,-2.706,-2.5388,-2.4608,-2.3511,-2.1759,-2.1211,-2.1211,-2.1211,-2.1211,-2.1211,-2.1211,-2.1203,-2.1211,-2.1211,-2.1211,-2.1211,-2.1211,-2.1211,-2.1211,-2.1211,-2.1211,-2.1979,-2.3472,-2.4726,-2.6529,-2.8792,-2.9814,-3.0312,-3.0547,-3.0762,-3.0869,-3.0898,-3.0898,-3.0898,-3.0898,-3.0898,-3.0401,-2.9776,-2.8811,-2.7966,-2.7718,-2.6996,-2.5912,-2.5186,-2.4579,-2.3969,-2.3355,-2.2981,-2.2731,-2.2111,-2.1734,-2.1481,-2.1109,-2.1109,-2.1102,-2.1102,-2.1102,-2.1102,-2.1102,-2.1102,-2.1102,-2.1102,-2.1102,-2.1102,-2.1102,-2.1102,-2.1102,-2.1102,-2.1102,-2.1102,-2.1102,-2.1102,-2.1102,-3.2727,-3.2727,-3.2727,-3.2727,-3.2727,-3.2727,-3.2727,-3.2727,-3.2727,-3.2727,-3.2727,-3.2727,-3.2727,-3.2727,-3.2612,-3.2612,-3.2258,-3.2248,-3.2113,-3.1812,-3.157,-3.1337,-3.1013,-3.0883,-3.0699,-3.0431,-3.038,-3.0095,-2.9972,-2.9784,-2.9784,-2.9774,-2.9659,-2.9554,-2.9448,-2.9142,-2.894,-2.894,-2.8631,-2.8504,-2.8291,-2.8184,-2.7286,-2.5278,-2.5058,-2.4069,-2.1987,-2.1767,-2.1767,-2.1653,-2.1653,-2.1653,-2.1539,-2.1539,-2.1539,-2.1539,-2.1318,-2.1211,-2.1211,-2.1211,-2.1211,-2.1211,-2.1432,-2.2237,-2.3788,-2.5683,-2.7646,-2.9584,-3.0342,-3.0488,-3.0762,-3.0879,-3.0898,-3.0898,-3.0898,-3.0898,-3.0898,-3.0898,-3.0898,-3.0274,-2.9658,-2.9412,-2.9057,-2.8316,-2.7237,-2.6641,-2.6034,-2.4826,-2.4332,-2.3589,-2.3091,-2.223,-2.1607,-2.1355,-2.1102,-2.1102,-2.1102,-2.1102,-2.1102,-2.1102,-2.1102,-2.1102,-2.1102,-2.1102,-2.1102,-2.1102,-2.1102,-2.1102,-2.1102,-2.1102,-2.1102,-2.1102,-2.1102,-2.1102,-2.1102,-3.2727,-3.2727,-3.2727,-3.2727,-3.2727,-3.2727,-3.2727,-3.2727,-3.2727,-3.2727,-3.2727,-3.2727,-3.2727,-3.2727,-3.2623,-3.2498,-3.2373,-3.2133,-3.2028,-3.1767,-3.1792,-3.157,-3.1297,-3.1676,-3.1238,-3.0891,-3.0949,-3.0663,-3.0188,-2.9676,-2.9459,-2.9564,-2.9448,-2.9343,-2.9564,-2.9142,-2.9046,-2.9248,-2.8708,-2.8291,-2.8291,-2.8291,-2.7511,-2.6626,-2.5963,-2.5084,-2.3087,-2.2749,-2.2757,-2.2749,-2.2757,-2.2757,-2.2757,-2.2757,-2.2757,-2.2425,-2.1866,-2.1211,-2.1318,-2.1432,-2.1432,-2.166,-2.223,-2.3497,-2.5343,-2.755,-2.9412,-2.9909,-3.0527,-3.0752,-3.0859,-3.0889,-3.0898,-3.0898,-3.0898,-3.0898,-3.0898,-3.0898,-3.0898,-3.0889,-3.0274,-3.0401,-3.0401,-2.9422,-2.8564,-2.8086,-2.7486,-2.6156,-2.4941,-2.4077,-2.3216,-2.2104,-2.1607,-2.1229,-2.1102,-2.1102,-2.1102,-2.1102,-2.1102,-2.1102,-2.1102,-2.1102,-2.1102,-2.1102,-2.1102,-2.1102,-2.1102,-2.1102,-2.1102,-2.1102,-2.1102,-2.1102,-2.1102,-2.1102,-2.1102,-3.2727,-3.2727,-3.2727,-3.2727,-3.2727,-3.2727,-3.2727,-3.2727,-3.2727,-3.2727,-3.2727,-3.2727,-3.2727,-3.2612,-3.2373,-3.2133,-3.2018,-3.1903,-3.1566,-3.146,-3.1441,-3.1456,-3.1327,-3.1476,-3.1368,-3.138,-3.1227,-3.1113,-3.0648,-3.0257,-2.9956,-2.97,-2.9564,-2.9448,-2.9564,-2.9132,-2.9036,-2.894,-2.8611,-2.8291,-2.8301,-2.8184,-2.7736,-2.6636,-2.6527,-2.5525,-2.4403,-2.3958,-2.3966,-2.3958,-2.3958,-2.3966,-2.3958,-2.3958,-2.3958,-2.3958,-2.3519,-2.2974,-2.2433,-2.2214,-2.2222,-2.2616,-2.3529,-2.5125,-2.6998,-2.8908,-3.0361,-3.0596,-3.0762,-3.0879,-3.0898,-3.0898,-3.0898,-3.0898,-3.0898,-3.0898,-3.0898,-3.0898,-3.0898,-3.0898,-3.0898,-3.0898,-3.0898,-3.0401,-2.9412,-2.8554,-2.7718,-2.652,-2.4941,-2.3589,-2.2724,-2.1859,-2.1481,-2.1229,-2.1102,-2.1102,-2.1102,-2.1102,-2.1102,-2.1102,-2.1102,-2.1102,-2.1102,-2.1102,-2.1102,-2.1102,-2.1102,-2.1102,-2.1102,-2.1102,-2.1102,-2.1102,-2.1102,-2.1102,-2.1102,-3.2727,-3.2727,-3.2727,-3.2727,-3.2727,-3.2727,-3.2727,-3.2727,-3.2727,-3.2727,-3.2727,-3.2727,-3.2727,-3.2612,-3.2258,-3.2143,-3.1903,-3.1672,-3.145,-3.1228,-3.1228,-3.1325,-3.1506,-3.1612,-3.1711,-3.1738,-3.1748,-3.1584,-3.1436,-3.1065,-3.0555,-3.0065,-2.9731,-2.9574,-2.9448,-2.9237,-2.9036,-2.8621,-2.8398,-2.8291,-2.8301,-2.8301,-2.7853,-2.7295,-2.6853,-2.6409,-2.5397,-2.5177,-2.5177,-2.5177,-2.5177,-2.5177,-2.5177,-2.5177,-2.5177,-2.511,-2.4838,-2.4606,-2.4165,-2.394,-2.3674,-2.4144,-2.5238,-2.7016,-2.8592,-2.991,-3.0449,-3.082,-3.0859,-3.0889,-3.0898,-3.0898,-3.0898,-3.0898,-3.0898,-3.0898,-3.0898,-3.0898,-3.0898,-3.0898,-3.0898,-3.0898,-3.0898,-3.0898,-3.0157,-2.9039,-2.7958,-2.6641,-2.5056,-2.334,-2.248,-2.174,-2.1488,-2.1229,-2.1102,-2.1102,-2.1102,-2.1102,-2.1102,-2.1102,-2.1102,-2.1102,-2.1102,-2.1102,-2.1102,-2.1102,-2.1102,-2.1102,-2.1102,-2.1102,-2.1102,-2.1102,-2.1102,-2.1102,-2.1102,-3.2727,-3.2727,-3.2727,-3.2727,-3.2727,-3.2727,-3.2727,-3.2727,-3.2727,-3.2727,-3.2727,-3.2727,-3.2612,-3.2612,-3.2498,-3.2383,-3.2258,-3.2248,-3.1903,-3.1913,-3.2028,-3.1903,-3.1903,-3.2133,-3.2352,-3.2281,-3.2229,-3.222,-3.1942,-3.1593,-3.096,-3.0248,-2.9876,-2.9475,-2.9258,-2.9076,-2.8874,-2.8554,-2.833,-2.8291,-2.8301,-2.8301,-2.8184,-2.8184,-2.8067,-2.7628,-2.6518,-2.6409,-2.6409,-2.6409,-2.6409,-2.6409,-2.64,-2.6473,-2.65,-2.6445,-2.6154,-2.6149,-2.6296,-2.5735,-2.53,-2.583,-2.6998,-2.8629,-2.9719,-3.0413,-3.084,-3.0879,-3.0889,-3.0898,-3.0898,-3.0898,-3.0898,-3.0898,-3.0898,-3.0898,-3.0898,-3.0898,-3.0898,-3.0898,-3.0898,-3.0898,-3.0898,-3.0898,-3.0274,-2.9048,-2.7598,-2.6399,-2.4695,-2.3098,-2.2355,-2.1734,-2.1614,-2.1362,-2.1102,-2.1102,-2.1102,-2.1102,-2.1102,-2.1102,-2.1102,-2.1102,-2.1102,-2.1102,-2.1102,-2.1102,-2.1102,-2.1102,-2.1102,-2.1102,-2.1102,-2.1102,-2.1102,-2.1102,-2.1102,-3.2302,-3.2333,-3.2602,-3.2727,-3.2727,-3.2727,-3.2727,-3.2727,-3.2727,-3.2727,-3.2727,-3.2487,-3.2487,-3.2612,-3.2258,-3.2258,-3.2248,-3.2018,-3.1913,-3.1903,-3.1903,-3.2018,-3.2143,-3.2258,-3.2487,-3.2498,-3.2602,-3.2571,-3.2127,-3.1758,-3.1258,-3.055,-3.0038,-2.9707,-2.9311,-2.8936,-2.8701,-2.8672,-2.8447,-2.831,-2.8301,-2.8301,-2.8301,-2.8301,-2.8301,-2.8077,-2.7628,-2.7628,-2.7628,-2.7549,-2.7558,-2.7587,-2.7644,-2.7787,-2.7882,-2.7948,-2.7735,-2.8033,-2.8183,-2.763,-2.7364,-2.8331,-2.9098,-2.9843,-3.0527,-3.0801,-3.0879,-3.0889,-3.0898,-3.0898,-3.0898,-3.0898,-3.0898,-3.0898,-3.0898,-3.0898,-3.0898,-3.0898,-3.0898,-3.0898,-3.0898,-3.0898,-3.0898,-3.0898,-3.003,-2.9048,-2.7478,-2.5912,-2.4201,-2.2981,-2.223,-2.1734,-2.1481,-2.1362,-2.1102,-2.1102,-2.1102,-2.1102,-2.1102,-2.1102,-2.1102,-2.1102,-2.1102,-2.1102,-2.1102,-2.1102,-2.1102,-2.1102,-2.1102,-2.1102,-2.1102,-2.1102,-2.1102,-2.1102,-2.1102,-3.1836,-3.1899,-3.2323,-3.2613,-3.2716,-3.2727,-3.2727,-3.2727,-3.2727,-3.2727,-3.2727,-3.2498,-3.2487,-3.2498,-3.2373,-3.2258,-3.2373,-3.2258,-3.2028,-3.2018,-3.2018,-3.2028,-3.2133,-3.2133,-3.2258,-3.2383,-3.2383,-3.2238,-3.2072,-3.1684,-3.1335,-3.0873,-3.0448,-3.0053,-2.937,-2.8996,-2.8838,-2.8955,-2.8867,-2.8672,-2.8701,-2.8711,-2.8721,-2.874,-2.876,-2.876,-2.867,-2.8581,-2.8661,-2.8651,-2.8631,-2.8701,-2.8789,-2.8916,-2.9082,-2.9258,-2.9482,-2.9746,-2.9521,-2.9324,-2.9136,-2.9939,-3.0151,-3.0499,-3.0791,-3.0898,-3.0898,-3.0898,-3.0898,-3.0898,-3.0898,-3.0898,-3.0898,-3.0898,-3.0898,-3.0898,-3.0898,-3.0898,-3.0898,-3.0898,-3.0898,-3.0889,-3.0284,-3.0039,-2.8948,-2.7727,-2.6026,-2.4564,-2.334,-2.2355,-2.2111,-2.1607,-2.1229,-2.1229,-2.1102,-2.1102,-2.1102,-2.1102,-2.1102,-2.1102,-2.1102,-2.1102,-2.1102,-2.1102,-2.1102,-2.1102,-2.1102,-2.1102,-2.1102,-2.1102,-2.1102,-2.1102,-2.1102,-2.1102,-2.1102,-3.1391,-3.1443,-3.1868,-3.2302,-3.2623,-3.2727,-3.2727,-3.2727,-3.2727,-3.2727,-3.2727,-3.2612,-3.2612,-3.2612,-3.2612,-3.2612,-3.2498,-3.2498,-3.2383,-3.2133,-3.2133,-3.2028,-3.1903,-3.1903,-3.1903,-3.1787,-3.1903,-3.1903,-3.1787,-3.1582,-3.1341,-3.1129,-3.0846,-3.0466,-2.9629,-2.9541,-2.9541,-2.9541,-2.9502,-2.9414,-2.9375,-2.9346,-2.9336,-2.9326,-2.9326,-2.9297,-2.9287,-2.9287,-2.9277,-2.9287,-2.9307,-2.9316,-2.9365,-2.9463,-2.9551,-2.959,-2.9961,-3.0166,-3.0195,-3.0071,-3.0285,-3.0693,-3.0723,-3.081,-3.0869,-3.0898,-3.0898,-3.0898,-3.0898,-3.0898,-3.0898,-3.0898,-3.0898,-3.0898,-3.0898,-3.0898,-3.0898,-3.0898,-3.0898,-3.0898,-3.0889,-3.0762,-2.9922,-2.9076,-2.7744,-2.6286,-2.4456,-2.323,-2.2355,-2.2111,-2.1859,-2.1481,-2.1102,-2.1102,-2.1102,-2.1102,-2.1102,-2.1102,-2.1102,-2.1102,-2.1102,-2.1102,-2.1102,-2.1102,-2.1102,-2.1102,-2.1102,-2.1102,-2.1102,-2.1102,-2.1102,-2.1102,-2.1102,-2.1102,-2.1102,-3.0915,-3.0957,-3.1402,-3.1692,-3.1909,-3.2499,-3.2727,-3.2727,-3.2727,-3.2727,-3.2727,-3.2727,-3.2727,-3.2727,-3.2612,-3.2612,-3.2487,-3.2373,-3.2258,-3.2018,-3.2018,-3.1903,-3.1787,-3.1787,-3.1787,-3.1787,-3.1797,-3.1556,-3.1441,-3.1325,-3.1218,-3.0995,-3.0986,-3.0742,-3.0332,-3.0029,-2.9658,-2.9873,-2.9746,-2.956,-2.959,-2.9609,-2.9619,-2.9629,-2.9648,-2.9658,-2.9668,-2.9697,-2.9697,-2.9687,-2.9697,-2.9678,-2.9717,-2.9805,-2.998,-3.0068,-3.0381,-3.0644,-3.0654,-3.0664,-3.0713,-3.085,-3.0898,-3.0898,-3.0898,-3.0898,-3.0898,-3.0898,-3.0898,-3.0898,-3.0898,-3.0898,-3.0898,-3.0898,-3.0898,-3.0898,-3.0898,-3.0898,-3.0898,-3.0898,-3.0889,-3.0265,-2.9412,-2.8453,-2.7134,-2.5798,-2.4092,-2.3106,-2.2237,-2.2104,-2.1859,-2.1481,-2.1102,-2.1102,-2.1102,-2.1102,-2.1102,-2.1102,-2.1102,-2.1102,-2.1102,-2.1102,-2.1102,-2.1102,-2.1102,-2.1102,-2.1102,-2.1102,-2.1102,-2.1102,-2.1102,-2.1102,-2.1102,-2.1102,-2.1102,-3.045,-3.0501,-3.0946,-3.1143,-3.1278,-3.2106,-3.2561,-3.2696,-3.2727,-3.2727,-3.2727,-3.2612,-3.2487,-3.2498,-3.2383,-3.2383,-3.2133,-3.2133,-3.1903,-3.1672,-3.1682,-3.1566,-3.145,-3.145,-3.146,-3.146,-3.145,-3.1334,-3.1218,-3.1228,-3.1112,-3.1005,-3.0898,-3.0859,-3.0664,-3.0361,-3.0195,-3.0351,-3.0234,-3.0117,-3.0107,-3.0088,-3.0068,-3.0088,-3.0088,-3.0068,-3.0039,-3.0019,-3.0019,-3.0,-3.0,-3.0,-3.0107,-3.0234,-3.0439,-3.0557,-3.0664,-3.0879,-3.0859,-3.0859,-3.085,-3.0889,-3.0898,-3.0898,-3.0898,-3.0898,-3.0898,-3.0898,-3.0898,-3.0898,-3.0898,-3.0898,-3.0898,-3.0898,-3.0898,-3.0898,-3.0898,-3.0898,-3.0889,-3.0889,-3.0528,-2.9785,-2.892,-2.7838,-2.6633,-2.5178,-2.372,-2.2981,-2.2237,-2.2111,-2.1853,-2.1355,-2.1102,-2.1102,-2.1102,-2.1102,-2.1102,-2.1102,-2.1102,-2.1102,-2.1102,-2.1102,-2.1102,-2.1102,-2.1102,-2.1102,-2.1102,-2.1102,-2.1102,-2.1102,-2.1102,-2.1102,-2.1102,-2.1102,-2.1102,-3.0005,-3.0056,-3.0481,-3.0667,-3.0822,-3.1578,-3.2097,-3.2519,-3.253,-3.2509,-3.2519,-3.225,-3.2146,-3.2197,-3.1998,-3.1797,-3.1787,-3.1787,-3.1556,-3.1325,-3.1334,-3.1112,-3.1122,-3.1005,-3.1122,-3.1005,-3.1005,-3.1112,-3.0879,-3.1005,-3.1005,-3.0898,-3.0898,-3.0898,-3.083,-3.0771,-3.0713,-3.0703,-3.0684,-3.0605,-3.0596,-3.0703,-3.0654,-3.0644,-3.0654,-3.0664,-3.0664,-3.0684,-3.0723,-3.0752,-3.0791,-3.082,-3.0859,-3.0879,-3.0889,-3.0889,-3.0879,-3.0889,-3.0898,-3.0898,-3.0898,-3.0898,-3.0898,-3.0898,-3.0898,-3.0898,-3.0898,-3.0898,-3.0898,-3.0898,-3.0898,-3.0898,-3.0898,-3.0898,-3.0898,-3.0898,-3.0898,-3.0889,-3.0772,-3.0645,-3.0284,-2.954,-2.8206,-2.6996,-2.6147,-2.4695,-2.3472,-2.2981,-2.2355,-2.1985,-2.1734,-2.1355,-2.1102,-2.1102,-2.1102,-2.1102,-2.1102,-2.1102,-2.1102,-2.1102,-2.1102,-2.1102,-2.1102,-2.1102,-2.1102,-2.1102,-2.1102,-2.1102,-2.1102,-2.1102,-2.1102,-2.1102,-2.1102,-2.1102,-2.1102,-2.9994,-3.0015,-3.0139,-3.0191,-3.0284,-3.0586,-3.097,-3.1369,-3.14,-3.1299,-3.1096,-3.141,-3.1438,-3.1448,-3.1637,-3.1632,-3.1556,-3.1441,-3.1218,-3.1102,-3.1112,-3.1005,-3.0889,-3.0898,-3.0898,-3.0898,-3.0898,-3.0898,-3.0889,-3.0898,-3.0898,-3.0898,-3.0898,-3.0898,-3.0898,-3.0898,-3.0898,-3.0898,-3.0898,-3.0898,-3.0898,-3.0898,-3.0898,-3.0898,-3.0898,-3.0898,-3.0898,-3.0898,-3.0898,-3.0898,-3.0898,-3.0898,-3.0898,-3.0898,-3.0889,-3.0889,-3.0889,-3.0898,-3.0898,-3.0898,-3.0898,-3.0898,-3.0898,-3.0898,-3.0898,-3.0898,-3.0898,-3.0898,-3.0898,-3.0898,-3.0898,-3.0898,-3.0898,-3.0898,-3.0898,-3.0898,-3.0898,-3.0889,-3.0762,-3.0147,-2.9785,-2.8582,-2.7366,-2.6641,-2.5668,-2.4209,-2.323,-2.2731,-2.248,-2.2111,-2.1734,-2.1355,-2.1102,-2.1102,-2.1102,-2.1102,-2.1102,-2.1102,-2.1102,-2.1102,-2.1102,-2.1102,-2.1102,-2.1102,-2.1102,-2.1102,-2.1102,-2.1102,-2.1102,-2.1102,-2.1102,-2.1102,-2.1102,-2.1102,-2.1102,-2.9994,-2.9994,-2.9889,-2.9774,-2.971,-2.9733,-2.991,-3.0075,-3.0508,-3.057,-3.051,-3.064,-3.0737,-3.0947,-3.1062,-3.1136,-3.1102,-3.1112,-3.1112,-3.1005,-3.0898,-3.0898,-3.0898,-3.0898,-3.0898,-3.0898,-3.0898,-3.0898,-3.0898,-3.0898,-3.0898,-3.0898,-3.0898,-3.0898,-3.0898,-3.0898,-3.0898,-3.0898,-3.0898,-3.0898,-3.0898,-3.0898,-3.0898,-3.0898,-3.0898,-3.0898,-3.0898,-3.0898,-3.0898,-3.0898,-3.0898,-3.0898,-3.0898,-3.0898,-3.0898,-3.0898,-3.0898,-3.0898,-3.0898,-3.0898,-3.0898,-3.0898,-3.0898,-3.0898,-3.0898,-3.0898,-3.0898,-3.0898,-3.0898,-3.0898,-3.0898,-3.0898,-3.0898,-3.0898,-3.0898,-3.0898,-3.0898,-3.0898,-3.0401,-2.9785,-2.8811,-2.7615,-2.665,-2.6042,-2.5186,-2.372,-2.2856,-2.2606,-2.2362,-2.2111,-2.1859,-2.1481,-2.1229,-2.1102,-2.1102,-2.1102,-2.1102,-2.1102,-2.1102,-2.1102,-2.1102,-2.1102,-2.1102,-2.1102,-2.1102,-2.1102,-2.1102,-2.1102,-2.1102,-2.1102,-2.1102,-2.1102,-2.1102,-2.1102,-2.1102,-2.9994,-2.9889,-2.9669,-2.9343,-2.9132,-2.9056,-2.897,-2.8817,-2.9749,-3.0349,-3.0209,-3.0058,-3.0175,-3.025,-3.0315,-3.0456,-3.0652,-3.077,-3.0829,-3.084,-3.0889,-3.0889,-3.0898,-3.0898,-3.0898,-3.0898,-3.0898,-3.0898,-3.0898,-3.0898,-3.0898,-3.0898,-3.0898,-3.0898,-3.0898,-3.0898,-3.0898,-3.0898,-3.0898,-3.0898,-3.0898,-3.0898,-3.0898,-3.0898,-3.0898,-3.0898,-3.0898,-3.0898,-3.0898,-3.0898,-3.0898,-3.0898,-3.0898,-3.0898,-3.0898,-3.0898,-3.0898,-3.0898,-3.0898,-3.0898,-3.0898,-3.0898,-3.0898,-3.0898,-3.0898,-3.0898,-3.0898,-3.0898,-3.0898,-3.0898,-3.0898,-3.0898,-3.0898,-3.0898,-3.0898,-3.0898,-3.0898,-3.0284,-2.9066,-2.8325,-2.7237,-2.6034,-2.5554,-2.4949,-2.4579,-2.323,-2.2738,-2.2613,-2.2362,-2.2237,-2.1859,-2.1601,-2.1355,-2.1229,-2.1102,-2.1102,-2.1102,-2.1102,-2.1102,-2.1102,-2.1102,-2.1102,-2.1102,-2.1102,-2.1102,-2.1102,-2.1102,-2.1102,-2.1102,-2.1102,-2.1102,-2.1102,-2.1102,-2.1102,-2.1102,-2.9879,-2.9669,-2.9343,-2.9036,-2.8834,-2.8834,-2.8611,-2.8417,-2.8701,-2.8849,-2.8878,-2.9045,-2.927,-2.9456,-2.9731,-2.9853,-2.9971,-3.0273,-3.0351,-3.0508,-3.0654,-3.0781,-3.0879,-3.0859,-3.0889,-3.0898,-3.0898,-3.0898,-3.0898,-3.0898,-3.0898,-3.0898,-3.0898,-3.0898,-3.0898,-3.0898,-3.0898,-3.0898,-3.0898,-3.0898,-3.0898,-3.0898,-3.0898,-3.0898,-3.0898,-3.0898,-3.0898,-3.0898,-3.0898,-3.0898,-3.0898,-3.0898,-3.0898,-3.0898,-3.0898,-3.0898,-3.0898,-3.0898,-3.0898,-3.0898,-3.0898,-3.0898,-3.0898,-3.0898,-3.0898,-3.0898,-3.0898,-3.0898,-3.0898,-3.0898,-3.0898,-3.0898,-3.0898,-3.0898,-3.0898,-3.0898,-3.0889,-2.9431,-2.7975,-2.6883,-2.566,-2.4933,-2.4579,-2.4209,-2.3596,-2.3355,-2.3106,-2.2856,-2.2738,-2.2487,-2.1985,-2.1734,-2.1607,-2.1355,-2.1229,-2.1102,-2.1102,-2.1102,-2.1102,-2.1102,-2.1102,-2.1102,-2.1102,-2.1102,-2.1102,-2.1102,-2.1102,-2.1102,-2.1102,-2.1102,-2.1102,-2.1102,-2.1102,-2.1102,-2.1102,-2.9774,-2.9564,-2.9142,-2.8717,-2.8514,-2.8514,-2.8408,-2.8291,-2.8301,-2.8301,-2.831,-2.8535,-2.873,-2.8887,-2.9189,-2.9414,-2.9531,-2.9805,-2.9902,-3.0049,-3.0322,-3.0498,-3.0625,-3.0771,-3.0879,-3.0898,-3.0898,-3.0898,-3.0898,-3.0898,-3.0898,-3.0898,-3.0898,-3.0898,-3.0898,-3.0898,-3.0898,-3.0898,-3.0898,-3.0898,-3.0898,-3.0898,-3.0898,-3.0898,-3.0898,-3.0898,-3.0898,-3.0898,-3.0898,-3.0898,-3.0898,-3.0898,-3.0898,-3.0898,-3.0898,-3.0898,-3.0898,-3.0898,-3.0898,-3.0898,-3.0898,-3.0898,-3.0898,-3.0898,-3.0898,-3.0898,-3.0898,-3.0898,-3.0898,-3.0898,-3.0898,-3.0898,-3.0898,-3.0898,-3.0898,-3.0898,-3.0167,-2.8948,-2.8215,-2.7966,-2.6633,-2.5063,-2.4702,-2.4702,-2.4216,-2.323,-2.3106,-2.2981,-2.2731,-2.2613,-2.2111,-2.1734,-2.1607,-2.1355,-2.1229,-2.1102,-2.1102,-2.1102,-2.1102,-2.1102,-2.1102,-2.1102,-2.1102,-2.1102,-2.1102,-2.1102,-2.1102,-2.1102,-2.1102,-2.1102,-2.1102,-2.1102,-2.1102,-2.1102,-2.1102,-2.9554,-2.9353,-2.8824,-2.8514,-2.8291,-2.8291,-2.8291,-2.8301,-2.8301,-2.8301,-2.8301,-2.831,-2.8535,-2.873,-2.8857,-2.9121,-2.9316,-2.9414,-2.9463,-2.96,-2.9932,-3.0176,-3.04,-3.0566,-3.0723,-3.085,-3.0898,-3.0898,-3.0898,-3.0898,-3.0898,-3.0898,-3.0898,-3.0898,-3.0898,-3.0898,-3.0898,-3.0898,-3.0898,-3.0898,-3.0898,-3.0898,-3.0898,-3.0898,-3.0898,-3.0898,-3.0898,-3.0898,-3.0898,-3.0898,-3.0898,-3.0898,-3.0898,-3.0898,-3.0898,-3.0898,-3.0898,-3.0898,-3.0898,-3.0898,-3.0898,-3.0898,-3.0898,-3.0898,-3.0898,-3.0898,-3.0898,-3.0889,-3.0889,-3.0889,-3.0889,-3.0898,-3.0898,-3.0889,-3.0889,-3.0528,-2.9431,-2.8343,-2.8215,-2.8206,-2.6512,-2.4826,-2.4702,-2.4702,-2.434,-2.3355,-2.2981,-2.2856,-2.2606,-2.2487,-2.2111,-2.1734,-2.1355,-2.1229,-2.1102,-2.1102,-2.1102,-2.1102,-2.1102,-2.1102,-2.1102,-2.1102,-2.1102,-2.1102,-2.1102,-2.1102,-2.1102,-2.1102,-2.1102,-2.1102,-2.1102,-2.1102,-2.1102,-2.1102,-2.1102,-2.9036,-2.8834,-2.8514,-2.8301,-2.8291,-2.8301,-2.8301,-2.8301,-2.8301,-2.8301,-2.8301,-2.8301,-2.8369,-2.8418,-2.8408,-2.8564,-2.873,-2.8916,-2.9023,-2.9121,-2.9502,-2.9853,-3.0176,-3.043,-3.0586,-3.0752,-3.0898,-3.0898,-3.0898,-3.0898,-3.0898,-3.0898,-3.0898,-3.0898,-3.0898,-3.0898,-3.0898,-3.0898,-3.0898,-3.0898,-3.0898,-3.0898,-3.0898,-3.0898,-3.0898,-3.0898,-3.0898,-3.0898,-3.0898,-3.0898,-3.0898,-3.0898,-3.0898,-3.0898,-3.0898,-3.0898,-3.0898,-3.0898,-3.0898,-3.0898,-3.0898,-3.0898,-3.0898,-3.0898,-3.0898,-3.0898,-3.0889,-3.0889,-3.0889,-3.0762,-3.0762,-3.0889,-3.0898,-3.0889,-3.0772,-2.9549,-2.8343,-2.7375,-2.6762,-2.5904,-2.444,-2.372,-2.372,-2.372,-2.372,-2.3106,-2.2988,-2.2863,-2.2487,-2.2362,-2.1985,-2.1607,-2.1229,-2.1229,-2.1102,-2.1102,-2.1102,-2.1102,-2.1102,-2.1102,-2.1102,-2.1102,-2.1102,-2.1102,-2.1102,-2.1102,-2.1102,-2.1102,-2.1102,-2.1102,-2.1102,-2.1102,-2.1102,-2.1102,-2.1102]},{"header":{"parameterUnit":"m.s-1","parameterCategory":1,"la1":31.0,"la2":29.5877,"lo1":-88.7671,"lo2":-86.6584,"dy":0.0162,"dx":0.0185,"nx":115,"ny":88,"refTime":"2024-06-01T12:00:00:Z","depth":0,"parameterNumber":3,"parameterNumberName":"V-component_of_WINDS"},"data":[0.0,0.0,0.0,0.0,0.0,0.0,0.0,0.0,0.0,0.0,0.0,0.0,0.0,0.0,0.0,0.0,0.0,0.0,0.0,0.0,0.0,0.0,0.0,0.0,0.0,0.0,0.0,0.0,0.0,0.0,0.0,0.0,0.0,0.0,0.0,0.0,0.0,0.0,0.0,0.0,0.0,0.0,0.0,0.0,0.0,0.0,0.0,0.0,0.0,0.0,0.0,0.0,0.0,0.0,0.0,0.0,0.0,0.0,0.0,0.0,0.0,0.0,0.0,0.0,0.0,0.0,0.0,0.0,0.0,0.0,0.0,0.0,0.0,0.0,0.0,0.0,0.0,0.0,0.0,0.0,0.0,0.0,0.0,0.0,0.0,0.0,0.0,0.0,0.0,0.0,0.0,0.0,0.0,0.0,0.0,0.0,0.0,0.0,0.0,0.0,0.0,0.0,0.0,0.0,0.0,0.0,0.0,0.0,0.0,0.0,0.0,0.0,0.0,0.0,0.0,0.0,0.0,0.0,0.0,0.0,0.0,0.0,0.0,0.0,0.0,0.0,0.0,0.0,0.0,0.0,0.0,0.0,0.0,0.0,0.0,0.0,0.0,0.0,0.0,0.0,0.0,0.0,0.0,0.0,0.0,0.0,0.0,0.0,0.0,0.0,0.0,0.0,0.0,0.0,0.0,0.0,0.0,0.0,0.0,0.0,0.0,0.0,0.0,0.0,0.0,0.0,0.0,0.0,0.0,0.0,0.0,0.0,0.0,0.0,0.0,0.0,0.0,0.0,0.0,0.0,0.0,0.0,0.0,0.0,0.0,0.0,0.0,0.0,0.0,0.0,0.0,0.0,0.0,0.0,0.0,0.0,0.0,0.0,0.0,0.0,0.0,0.0,0.0,0.0,0.0,0.0,0.0,0.0,0.0,0.0,0.0,0.0,0.0,0.0,0.0,0.0,0.0,0.0,0.0,0.0,0.0,0.0,0.0,0.0,0.0,0.0,0.0,0.0,0.0,0.0,0.0,0.0,0.0,0.0,0.0,0.0,0.0,0.0,0.0,0.0,0.0,0.0,0.0,0.0,0.0,0.0,0.0,0.0,0.0,0.0,0.0,0.0,0.0,0.0,0.0,0.0,0.0,0.0,0.0,0.0,0.0,0.0,0.0,0.0,0.0,0.0,0.0,0.0,0.0,0.0,0.0,0.0,0.0,0.0,0.0,0.0,0.0,0.0,0.0,0.0,0.0,0.0,0.0,0.0,0.0,0.0,0.0,0.0,0.0,0.0,0.0,0.0,0.0,0.0,0.0,0.0,0.0,0.0,0.0,0.0,0.0,0.0,0.0,0.0,0.0,0.0,0.0,0.0,0.0,0.0,0.0,0.0,0.0,0.0,0.0,0.0,0.0,0.0,0.0,0.0,0.0,0.0,0.0,0.0,0.0,0.0,0.0,0.0,0.0,0.0,0.0,0.0,0.0,0.0,0.0,0.0,0.0,0.0,0.0,0.0,0.0,0.0,0.0,0.0,0.0,0.0,0.0,0.0,0.0,0.0,0.0,0.0,0.0,0.0,0.0,0.0,0.0,0.0,0.0,0.0,0.0,0.0,0.0,0.0,0.0,0.0,0.0,0.0,0.0,0.0,0.0,0.0,0.0,0.0,0.0,0.0,0.0,0.0,0.0,0.0,0.0,0.0,0.0,0.0,0.0,0.0,0.0,0.0,0.0,0.0,0.0,0.0,0.0,0.0,0.0,0.0,0.0,0.0,0.0,0.0,0.0,0.0,0.0,0.0,0.0,0.0,0.0,0.0,0.0,0.0,0.0,0.0,0.0,0.0,0.0,0.0,0.0,0.0,0.0,0.0,0.0,0.0,0.0,0.0,0.0,0.0,0.0,0.0,0.0,0.0,0.0,0.0,0.0,0.0,0.0,0.0,0.0,0.0,0.0,0.0,0.0,0.0,0.0,0.0,0.0,0.0,0.0,0.0,0.0,0.0,0.0,0.0,0.0,0.0,0.0,0.0,0.0,0.0,0.0,0.0,0.0,0.0,0.0,0.0,0.0,0.0,0.0,0.0,0.0,0.0,0.0,0.0,0.0,0.0,0.0,0.0,0.0,0.0,0.0,0.0,0.0,0.0,0.0,0.0,0.0,0.0,0.0,0.0,0.0,0.0,0.0,0.0,0.0,0.0,0.0,0.0,0.0,0.0,0.0,0.0,0.0,0.0,0.0,0.0,0.0,0.0,0.0,0.0,0.0,0.0,0.0,0.0,0.0,0.0,0.0,0.0,0.0,0.0,0.0,0.0,0.0,0.0,0.0,0.0,0.0,0.0,0.0,0.0,0.0,0.0,0.0,0.0,0.0,0.0,0.0,0.0,0.0,0.0,0.0,0.0,0.0,0.0,0.0,0.0,0.0,0.0,0.0,0.0,0.0,0.0,0.0,0.0,0.0,0.0,0.0,0.0,0.0,0.0,0.0,0.0,0.0,0.0,0.0,0.0,0.0,0.0,0.0,0.0,0.0,0.0,0.0,0.0,0.0,0.0,0.0,0.0,0.0,0.0,0.0,0.0,0.0,0.0,0.0,0.0,0.0,0.0,0.0,0.0,0.0,0.0,0.0,0.0,0.0,0.0,0.0,0.0,0.0,0.0,0.0,0.0,0.0,0.0,0.0,0.0,0.0,0.0,0.0,0.0,0.0,0.0,0.0,0.0,0.0,0.0,0.0,0.0,0.0,0.0,0.0,0.0,0.0,0.0,0.0,0.0,0.0,0.0,0.0,0.0,0.0,0.0,0.0,0.0,0.0,0.0,0.0,0.0,0.0,0.0,0.0,0.0,0.0,0.0,0.0,0.0,0.0,0.0,0.0,0.0,0.0,0.0,0.0,0.0,0.0,0.0,0.0,0.0,0.0,0.0,0.0,0.0,0.0,0.0,0.0,0.0,0.0,0.0,0.0,0.0,0.0,0.0,0.0,0.0,0.0,0.0,0.0,0.0,0.0,0.0,0.0,0.0,0.0,0.0,0.0,0.0,0.0,0.0,0.0,0.0,0.0,0.0,0.0,0.0,0.0,0.0,0.0,0.0,0.0,0.0,0.0,0.0,0.0,0.0,0.0,0.0,0.0,0.0,0.0,0.0,0.0,0.0,0.0,0.0,0.0,0.0,0.0,0.0,0.0,0.0,0.0,0.0,0.0,0.0,0.0,0.0,0.0,0.0,0.0,0.0,0.0,0.0,0.0,0.0,0.0,0.0,0.0,0.0,0.0,0.0,0.0,0.0,0.0,0.0,0.0,0.0,0.0,0.0,0.0,0.0,0.0,0.0,0.0,0.0,0.0,0.0,0.0,0.0,0.0,0.0,0.0,0.0,0.0,0.0,0.0,0.0,0.0,0.0,0.0,0.0,0.0,0.0,0.0,0.0,0.0,0.0,0.0,0.0,0.0,0.0,0.0,0.0,0.0,0.0,0.0,0.0,0.0,0.0,0.0,0.0,0.0,0.0,0.0,0.0,0.0,0.0,0.0,0.0,0.0,0.0,0.0,0.0,0.0,0.0,0.0,0.0,0.0,0.0,0.0,0.0,0.0,0.0,0.0,0.0,0.0,0.0,0.0,0.0,0.0,0.0,0.0,0.0,0.0,0.0,0.0,0.0,0.0,0.0,0.0,0.0,0.0,0.0,0.0,0.0,0.0,0.0,0.0,0.0,0.0,0.0,0.0,0.0,0.0,0.0,0.0,0.0,0.0,0.0,0.0,0.0,0.0,0.0,0.0,0.0,0.0,0.0,0.0,0.0,0.0,0.0,0.0,0.0,0.0,0.0,0.0,0.0,0.0,0.0,0.0,0.0,0.0,0.0,0.0,0.0,0.0,0.0,0.0,0.0,0.0,0.0,0.0,0.0,0.0,0.0,0.0,0.0,0.0,0.0,0.0,0.0,0.0,0.0,0.0,0.0,0.0,0.0,0.0,0.0,0.0,0.0,0.0,0.0,0.0,0.0,0.0,0.0,0.0,0.0,0.0,0.0,0.0,0.0,0.0,0.0,0.0,0.0,0.0,0.0,0.0,0.0,0.0,0.0,0.0,0.0,0.0,0.0,0.0,0.0,0.0,0.0,0.0,0.0,0.0,0.0,0.0,0.0,0.0,0.0,0.0,0.0,0.0,0.0,0.0,0.0,0.0,0.0,0.0,0.0,0.0,0.0,0.0,0.0,0.0,0.0,0.0,0.0,0.0,0.0,0.0,0.0,0.0,0.0,0.0,0.0,0.0,0.0,0.0,0.0,-1.16,0.0,0.0,0.0,0.0,0.0,0.0,0.0,0.0,0.0,0.0,0.0,0.0,0.0,0.0,0.0,0.0,0.0,0.0,0.0,0.0,0.0,0.0,0.0,0.0,0.0,0.0,0.0,0.0,0.0,0.0,0.0,0.0,0.0,0.0,0.0,0.0,0.0,0.0,0.0,0.0,0.0,0.0,0.0,0.0,0.0,0.0,0.0,0.0,0.0,0.0,0.0,0.0,0.0,0.0,0.0,0.0,0.0,0.0,0.0,0.0,0.0,0.0,0.0,0.0,0.0,0.0,0.0,0.0,0.0,0.0,0.0,0.0,0.0,0.0,0.0,0.0,0.0,0.0,0.0,0.0,0.0,0.0,0.0,0.0,0.0,0.0,0.0,0.0,0.0,0.0,0.0,0.0,0.0,0.0,0.0,0.0,0.0,0.0,0.0,0.0,0.0,0.0,0.0,0.0,0.0,0.0,0.0,0.0,0.0,0.0,-1.3331,-1.2427,-1.2925,-1.2858,-1.2115,0.0,0.0,0.0,0.0,0.0,0.0,0.0,0.0,0.0,0.0,0.0,0.0,0.0,0.0,0.0,0.0,0.0,0.0,0.0,0.0,0.0,0.0,0.0,0.0,0.0,0.0,0.0,0.0,0.0,0.0,0.0,0.0,0.0,0.0,0.0,0.0,0.0,0.0,0.0,0.0,0.0,0.0,0.0,0.0,0.0,0.0,0.0,0.0,0.0,0.0,0.0,0.0,0.0,0.0,0.0,0.0,0.0,0.0,0.0,0.0,0.0,0.0,0.0,0.0,0.0,0.0,0.0,0.0,0.0,0.0,0.0,0.0,0.0,0.0,0.0,0.0,0.0,0.0,0.0,0.0,0.0,0.0,0.0,0.0,0.0,0.0,0.0,0.0,0.0,0.0,0.0,0.0,0.0,0.0,0.0,0.0,0.0,0.0,0.0,0.0,0.0,0.0,0.0,0.0,0.0,0.0,0.0,0.0,0.0,0.0,0.0,0.0,-1.4181,-1.4171,-1.3467,0.0,0.0,0.0,0.0,0.0,0.0,0.0,0.0,0.0,0.0,0.0,0.0,0.0,0.0,0.0,0.0,0.0,0.0,0.0,0.0,0.0,0.0,0.0,0.0,0.0,0.0,0.0,0.0,0.0,0.0,0.0,0.0,0.0,0.0,0.0,0.0,0.0,0.0,0.0,0.0,0.0,0.0,0.0,0.0,0.0,0.0,0.0,0.0,0.0,0.0,0.0,0.0,0.0,0.0,0.0,0.0,0.0,0.0,0.0,0.0,0.0,0.0,0.0,0.0,0.0,0.0,0.0,0.0,0.0,0.0,0.0,0.0,0.0,0.0,0.0,0.0,0.0,0.0,0.0,0.0,0.0,0.0,0.0,0.0,0.0,0.0,0.0,0.0,0.0,0.0,0.0,0.0,0.0,0.0,0.0,0.0,0.0,0.0,0.0,0.0,0.0,0.0,0.0,0.0,0.0,0.0,0.0,0.0,0.0,0.0,-1.5097,-1.5534,-1.6827,0.0,-1.6135,0.0,0.0,0.0,0.0,0.0,0.0,0.0,0.0,0.0,0.0,0.0,0.0,0.0,0.0,0.0,0.0,0.0,0.0,0.0,0.0,0.0,0.0,0.0,0.0,0.0,0.0,0.0,0.0,0.0,0.0,0.0,0.0,0.0,0.0,0.0,0.0,0.0,0.0,0.0,0.0,0.0,0.0,0.0,0.0,0.0,0.0,0.0,0.0,0.0,0.0,0.0,0.0,0.0,0.0,0.0,0.0,0.0,0.0,0.0,0.0,0.0,0.0,0.0,0.0,0.0,0.0,0.0,0.0,0.0,0.0,0.0,0.0,0.0,0.0,0.0,0.0,0.0,0.0,0.0,0.0,0.0,0.0,0.0,0.0,0.0,0.0,0.0,0.0,0.0,0.0,0.0,0.0,0.0,0.0,0.0,0.0,0.0,0.0,0.0,0.0,0.0,0.0,0.0,0.0,0.0,0.0,0.0,0.0,0.0,0.0,0.0,-1.5982,-1.6508,-1.6611,0.0,0.0,0.0,0.0,0.0,0.0,0.0,0.0,0.0,0.0,0.0,0.0,0.0,0.0,0.0,0.0,0.0,0.0,0.0,0.0,0.0,0.0,0.0,0.0,0.0,0.0,0.0,0.0,0.0,0.0,0.0,0.0,0.0,0.0,0.0,0.0,0.0,0.0,0.0,0.0,0.0,0.0,0.0,0.0,0.0,0.0,0.0,0.0,0.0,0.0,0.0,0.0,0.0,0.0,0.0,0.0,0.0,0.0,0.0,0.0,0.0,0.0,0.0,0.0,0.0,0.0,0.0,0.0,0.0,0.0,0.0,0.0,0.0,0.0,0.0,0.0,0.0,0.0,0.0,0.0,0.0,0.0,0.0,0.0,0.0,0.0,0.0,0.0,0.0,0.0,0.0,0.0,0.0,0.0,0.0,0.0,0.0,0.0,0.0,0.0,0.0,0.0,0.0,0.0,0.0,0.0,0.0,0.0,0.0,0.0,-1.6443,0.0,-1.7355,-1.7093,-1.6686,-1.617,0.0,0.0,0.0,0.0,0.0,0.0,0.0,0.0,0.0,0.0,0.0,0.0,0.0,0.0,0.0,0.0,0.0,0.0,0.0,0.0,0.0,0.0,0.0,0.0,0.0,0.0,0.0,0.0,0.0,0.0,0.0,0.0,0.0,0.0,0.0,0.0,0.0,0.0,0.0,0.0,0.0,0.0,0.0,0.0,0.0,0.0,0.0,0.0,0.0,0.0,0.0,0.0,0.0,0.0,0.0,0.0,0.0,0.0,0.0,0.0,0.0,0.0,0.0,0.0,0.0,0.0,0.0,0.0,0.0,0.0,0.0,0.0,0.0,0.0,0.0,0.0,0.0,0.0,0.0,0.0,0.0,0.0,0.0,0.0,0.0,0.0,0.0,0.0,0.0,0.0,0.0,0.0,0.0,0.0,0.0,0.0,0.0,0.0,0.0,0.0,0.0,0.0,0.0,0.0,0.0,0.0,0.0,0.0,0.0,-1.8005,-1.8368,-2.039,-1.969,-1.8306,0.0,0.0,0.0,0.0,0.0,0.0,0.0,0.0,0.0,0.0,0.0,0.0,0.0,0.0,0.0,0.0,0.0,0.0,0.0,0.0,0.0,0.0,0.0,0.0,0.0,0.0,0.0,0.0,0.0,0.0,0.0,0.0,0.0,0.0,0.0,0.0,0.0,0.0,0.0,0.0,0.0,0.0,0.0,0.0,0.0,0.0,0.0,0.0,0.0,0.0,0.0,0.0,0.0,0.0,0.0,0.0,0.0,0.0,0.0,0.0,0.0,0.0,0.0,0.0,0.0,0.0,0.0,0.0,0.0,0.0,0.0,0.0,0.0,0.0,0.0,0.0,0.0,0.0,0.0,0.0,0.0,0.0,0.0,0.0,0.0,0.0,0.0,0.0,0.0,0.0,0.0,0.0,0.0,0.0,0.0,0.0,0.0,0.0,0.0,0.0,0.0,0.0,0.0,0.0,0.0,0.0,0.0,0.0,0.0,-1.5383,-1.666,-1.9032,0.0,-1.9635,-1.8109,0.0,0.0,0.0,0.0,0.0,0.0,0.0,0.0,0.0,0.0,0.0,0.0,0.0,0.0,0.0,0.0,0.0,0.0,0.0,0.0,0.0,0.0,0.0,0.0,0.0,0.0,0.0,0.0,0.0,0.0,0.0,0.0,0.0,0.0,0.0,0.0,0.0,0.0,0.0,0.0,0.0,0.0,0.0,0.0,0.0,0.0,0.0,0.0,0.0,0.0,0.0,0.0,0.0,0.0,0.0,0.0,0.0,0.0,0.0,0.0,0.0,0.0,0.0,0.0,0.0,0.0,0.0,0.0,0.0,0.0,0.0,0.0,0.0,0.0,0.0,0.0,0.0,0.0,0.0,0.0,0.0,0.0,0.0,0.0,0.0,0.0,0.0,0.0,0.0,0.0,0.0,0.0,0.0,0.0,0.0,0.0,0.0,0.0,0.0,0.0,0.0,0.0,0.0,0.0,0.0,0.0,0.0,0.0,0.0,-1.5201,0.0,-2.0311,0.0,-1.9646,-1.7905,0.0,0.0,0.0,0.0,0.0,0.0,0.0,0.0,0.0,0.0,0.0,0.0,0.0,0.0,0.0,0.0,0.0,0.0,0.0,0.0,0.0,0.0,0.0,0.0,0.0,0.0,0.0,0.0,0.0,0.0,0.0,0.0,0.0,0.0,0.0,0.0,0.0,0.0,0.0,0.0,0.0,0.0,0.0,0.0,0.0,0.0,0.0,0.0,0.0,0.0,0.0,0.0,0.0,0.0,0.0,0.0,0.0,0.0,0.0,0.0,0.0,0.0,0.0,0.0,0.0,0.0,0.0,0.0,0.0,0.0,0.0,0.0,0.0,0.0,0.0,0.0,0.0,0.0,0.0,0.0,0.0,0.0,0.0,0.0,0.0,0.0,0.0,0.0,0.0,0.0,0.0,0.0,0.0,0.0,0.0,0.0,0.0,0.0,0.0,0.0,0.0,0.0,0.0,0.0,0.0,0.0,0.0,0.0,0.0,-1.9369,-2.1549,-2.2029,-2.0849,-1.9975,-1.7897,0.0,0.0,0.0,0.0,0.0,0.0,0.0,0.0,0.0,0.0,0.0,0.0,0.0,0.0,0.0,0.0,0.0,0.0,0.0,0.0,0.0,0.0,0.0,0.0,0.0,0.0,0.0,0.0,0.0,0.0,0.0,0.0,0.0,0.0,0.0,0.0,0.0,0.0,0.0,0.0,0.0,0.0,0.0,0.0,0.0,0.0,0.0,0.0,0.0,0.0,0.0,0.0,0.0,0.0,0.0,0.0,0.0,0.0,0.0,0.0,0.0,0.0,0.0,0.0,0.0,0.0,0.0,0.0,0.0,0.0,0.0,0.0,0.0,0.0,0.0,0.0,0.0,0.0,0.0,0.0,0.0,0.0,0.0,0.0,0.0,0.0,0.0,0.0,0.0,0.0,0.0,0.0,0.0,0.0,0.0,0.0,0.0,0.0,0.0,0.0,0.0,0.0,0.0,0.0,0.0,0.0,0.0,0.0,0.0,-1.884,-1.9998,-2.1632,-2.3503,-2.0091,-1.8319,0.0,0.0,0.0,0.0,0.0,0.0,0.0,0.0,0.0,0.0,0.0,0.0,0.0,0.0,0.0,0.0,0.0,0.0,0.0,0.0,0.0,0.0,0.0,0.0,0.0,0.0,0.0,0.0,0.0,0.0,0.0,0.0,0.0,0.0,0.0,0.0,0.0,0.0,0.0,0.0,0.0,0.0,0.0,0.0,0.0,0.0,0.0,0.0,0.0,0.0,0.0,0.0,0.0,0.0,0.0,0.0,0.0,0.0,0.0,0.0,0.0,0.0,0.0,0.0,0.0,0.0,0.0,0.0,0.0,0.0,0.0,0.0,0.0,0.0,0.0,0.0,0.0,0.0,0.0,0.0,0.0,0.0,0.0,0.0,0.0,0.0,0.0,0.0,0.0,0.0,0.0,0.0,0.0,0.0,0.0,0.0,0.0,0.0,0.0,0.0,0.0,0.0,0.0,0.0,0.0,0.0,0.0,0.0,0.0,-2.1019,-2.1963,-2.3189,-2.4663,-2.1036,-1.9197,-1.9412,0.0,0.0,0.0,0.0,0.0,0.0,0.0,0.0,0.0,0.0,0.0,0.0,0.0,0.0,0.0,0.0,0.0,0.0,0.0,0.0,0.0,0.0,0.0,0.0,0.0,0.0,0.0,0.0,0.0,0.0,0.0,0.0,0.0,0.0,0.0,0.0,0.0,0.0,0.0,0.0,0.0,0.0,0.0,0.0,0.0,0.0,0.0,0.0,0.0,0.0,0.0,0.0,0.0,0.0,0.0,0.0,0.0,0.0,0.0,0.0,0.0,0.0,0.0,0.0,0.0,0.0,0.0,0.0,0.0,0.0,0.0,0.0,0.0,0.0,0.0,0.0,0.0,0.0,0.0,0.0,0.0,0.0,0.0,0.0,0.0,0.0,0.0,0.0,0.0,0.0,0.0,0.0,0.0,0.0,0.0,0.0,0.0,0.0,0.0,0.0,0.0,0.0,0.0,0.0,0.0,0.0,0.0,0.0,-2.5176,-2.672,-2.6471,-2.4414,-2.2775,-2.0633,0.0,0.0,0.0,0.0,0.0,0.0,0.0,0.0,0.0,0.0,0.0,0.0,0.0,0.0,0.0,0.0,0.0,0.0,0.0,0.0,0.0,0.0,0.0,0.0,0.0,0.0,0.0,0.0,0.0,0.0,0.0,0.0,0.0,0.0,0.0,0.0,0.0,0.0,0.0,0.0,0.0,0.0,0.0,0.0,0.0,0.0,0.0,0.0,0.0,0.0,0.0,0.0,0.0,0.0,0.0,0.0,0.0,0.0,0.0,0.0,0.0,0.0,0.0,0.0,0.0,0.0,0.0,0.0,0.0,0.0,0.0,0.0,0.0,0.0,0.0,0.0,0.0,0.0,0.0,0.0,0.0,0.0,0.0,0.0,0.0,0.0,0.0,0.0,0.0,0.0,0.0,0.0,0.0,0.0,0.0,0.0,0.0,0.0,0.0,0.0,0.0,0.0,0.0,0.0,0.0,0.0,0.0,0.0,0.0,-2.6957,-2.8738,-2.9135,-2.7976,-2.5027,-2.2576,0.0,0.0,0.0,0.0,0.0,0.0,0.0,0.0,0.0,0.0,0.0,0.0,0.0,0.0,0.0,0.0,0.0,0.0,0.0,0.0,0.0,0.0,0.0,0.0,0.0,0.0,0.0,0.0,0.0,0.0,0.0,0.0,0.0,0.0,0.0,0.0,0.0,0.0,0.0,0.0,0.0,0.0,0.0,0.0,0.0,0.0,0.0,0.0,0.0,0.0,0.0,0.0,0.0,0.0,0.0,0.0,0.0,0.0,0.0,0.0,0.0,0.0,0.0,0.0,0.0,0.0,0.0,0.0,0.0,0.0,0.0,0.0,0.0,0.0,0.0,0.0,0.0,0.0,0.0,0.0,0.0,0.0,0.0,0.0,0.0,0.0,0.0,0.0,0.0,0.0,0.0,0.0,0.0,0.0,0.0,0.0,0.0,0.0,0.0,0.0,0.0,0.0,0.0,0.0,0.0,0.0,0.0,0.0,-2.5832,-2.8648,-3.0775,-3.1404,-3.0377,-2.7581,-2.4863,0.0,0.0,0.0,0.0,0.0,0.0,0.0,0.0,0.0,0.0,0.0,0.0,0.0,0.0,0.0,0.0,0.0,0.0,0.0,0.0,0.0,0.0,0.0,0.0,0.0,0.0,0.0,0.0,0.0,0.0,0.0,0.0,0.0,0.0,0.0,0.0,0.0,0.0,0.0,0.0,0.0,0.0,0.0,0.0,0.0,0.0,0.0,0.0,0.0,0.0,0.0,0.0,0.0,0.0,0.0,0.0,0.0,0.0,0.0,0.0,0.0,0.0,0.0,0.0,0.0,0.0,0.0,0.0,0.0,0.0,0.0,0.0,0.0,0.0,0.0,0.0,0.0,0.0,0.0,0.0,0.0,0.0,0.0,0.0,0.0,0.0,0.0,0.0,0.0,0.0,0.0,0.0,0.0,0.0,0.0,0.0,0.0,0.0,0.0,0.0,0.0,0.0,0.0,0.0,0.0,0.0,0.0,0.0,-2.7824,-3.018,-3.2679,-3.3306,-3.1865,-3.0,-2.7076,0.0,0.0,0.0,0.0,0.0,0.0,0.0,0.0,0.0,0.0,0.0,0.0,0.0,0.0,0.0,0.0,0.0,0.0,0.0,0.0,0.0,0.0,0.0,0.0,0.0,0.0,0.0,0.0,0.0,0.0,0.0,0.0,0.0,0.0,0.0,0.0,0.0,0.0,0.0,0.0,0.0,0.0,0.0,0.0,0.0,0.0,0.0,0.0,0.0,0.0,0.0,0.0,0.0,0.0,0.0,0.0,0.0,0.0,0.0,0.0,0.0,0.0,0.0,0.0,0.0,0.0,0.0,0.0,0.0,0.0,0.0,0.0,0.0,0.0,0.0,0.0,0.0,0.0,0.0,0.0,0.0,0.0,0.0,0.0,0.0,0.0,0.0,0.0,0.0,0.0,0.0,0.0,0.0,0.0,0.0,0.0,0.0,0.0,0.0,0.0,0.0,0.0,0.0,0.0,0.0,0.0,0.0,0.0,-2.8625,-3.1672,-3.379,-3.447,-3.3505,-3.0757,-2.7553,0.0,0.0,0.0,0.0,0.0,0.0,0.0,0.0,0.0,0.0,0.0,0.0,0.0,0.0,0.0,0.0,0.0,0.0,0.0,0.0,0.0,0.0,0.0,0.0,0.0,0.0,0.0,0.0,0.0,0.0,0.0,0.0,0.0,0.0,0.0,0.0,0.0,0.0,0.0,0.0,0.0,0.0,0.0,0.0,0.0,0.0,0.0,0.0,-2.1506,0.0,0.0,0.0,0.0,0.0,0.0,0.0,0.0,0.0,0.0,0.0,0.0,0.0,0.0,0.0,0.0,0.0,0.0,0.0,0.0,0.0,0.0,0.0,0.0,0.0,0.0,0.0,0.0,0.0,0.0,0.0,0.0,0.0,0.0,0.0,0.0,0.0,0.0,0.0,0.0,0.0,0.0,0.0,0.0,0.0,0.0,0.0,0.0,0.0,0.0,0.0,0.0,0.0,0.0,0.0,0.0,0.0,0.0,0.0,-3.0243,-3.2722,-3.4671,-3.5128,-3.3985,-3.1708,-2.8921,0.0,0.0,0.0,0.0,0.0,0.0,0.0,0.0,0.0,0.0,0.0,0.0,0.0,0.0,0.0,0.0,0.0,0.0,0.0,0.0,0.0,0.0,0.0,0.0,0.0,0.0,0.0,0.0,0.0,0.0,0.0,0.0,0.0,0.0,0.0,0.0,0.0,0.0,0.0,0.0,0.0,0.0,0.0,0.0,0.0,0.0,0.0,0.0,0.0,0.0,0.0,0.0,0.0,0.0,0.0,0.0,0.0,0.0,0.0,0.0,0.0,0.0,0.0,0.0,0.0,0.0,0.0,0.0,0.0,0.0,0.0,0.0,0.0,0.0,0.0,0.0,0.0,0.0,0.0,0.0,0.0,0.0,0.0,0.0,0.0,0.0,0.0,0.0,0.0,0.0,0.0,0.0,0.0,0.0,0.0,0.0,0.0,0.0,0.0,0.0,0.0,0.0,0.0,0.0,0.0,0.0,0.0,-2.8541,-3.1703,-3.3653,-3.5471,-3.5729,-3.4237,-3.2637,-3.0387,0.0,0.0,0.0,0.0,0.0,0.0,0.0,0.0,0.0,0.0,0.0,0.0,0.0,0.0,0.0,0.0,0.0,0.0,0.0,0.0,0.0,0.0,0.0,0.0,0.0,0.0,0.0,0.0,0.0,0.0,0.0,0.0,0.0,0.0,0.0,0.0,0.0,0.0,0.0,-2.0289,-2.2726,0.0,0.0,0.0,0.0,0.0,0.0,0.0,0.0,-2.2942,0.0,0.0,0.0,0.0,0.0,0.0,0.0,0.0,0.0,0.0,0.0,0.0,0.0,0.0,0.0,0.0,0.0,0.0,0.0,0.0,0.0,0.0,0.0,0.0,0.0,0.0,0.0,0.0,0.0,0.0,0.0,0.0,0.0,0.0,0.0,0.0,0.0,0.0,0.0,0.0,0.0,0.0,0.0,0.0,0.0,0.0,0.0,0.0,0.0,0.0,0.0,0.0,0.0,0.0,0.0,0.0,-2.7326,-2.8891,-3.1364,-3.4833,-3.6523,-3.6611,-3.5031,-3.323,-3.0828,-2.7754,0.0,0.0,0.0,0.0,0.0,0.0,0.0,0.0,0.0,0.0,0.0,0.0,0.0,0.0,0.0,0.0,0.0,0.0,0.0,0.0,0.0,0.0,0.0,0.0,0.0,0.0,0.0,0.0,0.0,0.0,0.0,0.0,0.0,0.0,0.0,0.0,0.0,0.0,0.0,-2.4856,-2.6328,0.0,0.0,0.0,0.0,0.0,0.0,0.0,0.0,-2.3728,0.0,0.0,0.0,0.0,0.0,0.0,0.0,0.0,0.0,0.0,0.0,0.0,0.0,0.0,0.0,0.0,0.0,0.0,0.0,0.0,0.0,0.0,0.0,0.0,0.0,0.0,0.0,0.0,0.0,0.0,0.0,0.0,0.0,0.0,0.0,0.0,0.0,0.0,0.0,0.0,0.0,0.0,0.0,0.0,0.0,0.0,0.0,0.0,0.0,0.0,0.0,0.0,0.0,0.0,0.0,-2.68,-2.9762,-3.2509,-3.5132,-3.6774,-3.6827,-3.5221,-3.2722,-3.0335,0.0,0.0,0.0,0.0,0.0,0.0,0.0,0.0,0.0,0.0,0.0,0.0,0.0,0.0,0.0,0.0,0.0,0.0,0.0,0.0,0.0,0.0,0.0,0.0,0.0,0.0,0.0,0.0,0.0,0.0,0.0,0.0,0.0,0.0,0.0,0.0,0.0,0.0,0.0,0.0,-2.6307,-2.7484,-2.7261,0.0,0.0,0.0,0.0,0.0,0.0,-2.5488,-2.4676,0.0,0.0,0.0,0.0,0.0,0.0,0.0,0.0,0.0,0.0,0.0,0.0,0.0,0.0,0.0,0.0,0.0,0.0,0.0,0.0,0.0,0.0,0.0,0.0,0.0,0.0,0.0,0.0,0.0,0.0,0.0,0.0,0.0,0.0,0.0,0.0,0.0,0.0,0.0,0.0,0.0,0.0,0.0,0.0,0.0,0.0,0.0,0.0,0.0,0.0,0.0,0.0,0.0,0.0,0.0,-2.5818,-3.0154,-3.333,-3.5168,-3.6756,-3.6827,-3.5239,-3.2474,-3.0,0.0,0.0,0.0,0.0,0.0,0.0,0.0,0.0,0.0,0.0,0.0,0.0,0.0,0.0,0.0,0.0,0.0,0.0,0.0,0.0,0.0,0.0,0.0,0.0,0.0,0.0,0.0,0.0,0.0,0.0,0.0,0.0,0.0,0.0,0.0,0.0,0.0,0.0,0.0,0.0,0.0,-2.8888,-2.9042,-2.8841,0.0,0.0,0.0,0.0,-2.7879,-2.7344,0.0,0.0,0.0,0.0,0.0,0.0,0.0,0.0,0.0,0.0,0.0,0.0,0.0,0.0,0.0,0.0,0.0,0.0,0.0,0.0,0.0,0.0,0.0,0.0,0.0,0.0,0.0,0.0,0.0,0.0,0.0,0.0,0.0,0.0,0.0,0.0,0.0,0.0,0.0,0.0,0.0,0.0,0.0,0.0,0.0,0.0,0.0,0.0,0.0,0.0,0.0,0.0,0.0,0.0,0.0,0.0,-2.5729,-2.9084,-3.2206,-3.5096,-3.6774,-3.6827,-3.5257,-3.3508,-3.0795,0.0,0.0,0.0,0.0,0.0,0.0,0.0,0.0,0.0,0.0,0.0,0.0,0.0,0.0,0.0,0.0,0.0,0.0,0.0,0.0,0.0,0.0,0.0,0.0,0.0,0.0,0.0,0.0,0.0,0.0,0.0,0.0,0.0,0.0,0.0,0.0,0.0,0.0,0.0,0.0,0.0,-3.1607,-2.9936,-3.083,-3.139,0.0,0.0,0.0,-3.1454,-3.149,0.0,0.0,0.0,0.0,0.0,0.0,0.0,0.0,0.0,0.0,0.0,0.0,0.0,0.0,0.0,0.0,0.0,0.0,0.0,0.0,0.0,0.0,0.0,0.0,0.0,0.0,0.0,0.0,0.0,0.0,0.0,0.0,0.0,0.0,0.0,0.0,0.0,0.0,0.0,0.0,0.0,0.0,0.0,0.0,0.0,0.0,0.0,0.0,0.0,0.0,0.0,0.0,0.0,0.0,0.0,-2.2446,-2.7085,-3.0261,-3.3169,-3.581,-3.6988,-3.6827,-3.5239,-3.283,-3.0042,0.0,0.0,0.0,0.0,0.0,0.0,0.0,0.0,0.0,0.0,0.0,0.0,0.0,0.0,0.0,0.0,0.0,0.0,0.0,0.0,0.0,0.0,0.0,0.0,0.0,0.0,0.0,0.0,0.0,0.0,0.0,0.0,0.0,0.0,0.0,0.0,0.0,0.0,0.0,0.0,0.0,0.0,-3.2412,-3.2967,0.0,0.0,0.0,-3.2829,-3.2857,0.0,0.0,0.0,0.0,0.0,0.0,0.0,0.0,0.0,0.0,0.0,0.0,0.0,0.0,0.0,0.0,0.0,0.0,0.0,0.0,0.0,0.0,0.0,0.0,0.0,0.0,0.0,0.0,0.0,0.0,0.0,0.0,0.0,0.0,0.0,0.0,0.0,0.0,0.0,0.0,0.0,0.0,0.0,0.0,0.0,0.0,0.0,0.0,0.0,0.0,0.0,0.0,0.0,0.0,0.0,0.0,0.0,-2.8128,-3.1492,-3.424,-3.6328,-3.7184,-3.6827,-3.5221,-3.2527,0.0,0.0,0.0,0.0,0.0,0.0,0.0,0.0,0.0,0.0,0.0,0.0,0.0,0.0,0.0,0.0,0.0,0.0,0.0,0.0,0.0,0.0,0.0,0.0,0.0,0.0,0.0,-1.2258,0.0,0.0,0.0,0.0,0.0,0.0,0.0,0.0,0.0,0.0,0.0,0.0,0.0,0.0,-3.2192,-3.4563,-3.5245,-3.5573,0.0,0.0,-3.5303,-3.4684,-3.4769,-3.3683,0.0,0.0,0.0,0.0,0.0,0.0,0.0,0.0,0.0,0.0,0.0,0.0,0.0,0.0,0.0,0.0,0.0,0.0,0.0,0.0,0.0,0.0,0.0,0.0,0.0,0.0,0.0,0.0,0.0,0.0,0.0,0.0,0.0,0.0,0.0,0.0,0.0,0.0,0.0,0.0,0.0,0.0,0.0,0.0,0.0,0.0,0.0,0.0,0.0,0.0,0.0,0.0,0.0,0.0,0.0,-2.8164,-3.2045,-3.4793,-3.6363,-3.7166,-3.6827,-3.5257,-3.3598,-3.0564,0.0,0.0,0.0,0.0,0.0,0.0,0.0,0.0,0.0,0.0,0.0,0.0,0.0,0.0,0.0,0.0,0.0,0.0,0.0,0.0,0.0,0.0,0.0,0.0,0.0,0.0,0.0,0.0,0.0,0.0,0.0,0.0,0.0,0.0,0.0,0.0,0.0,0.0,0.0,0.0,0.0,-3.4648,-3.5602,-3.7649,-3.9061,0.0,0.0,-3.879,-3.7975,-3.8464,-3.7395,-3.2723,0.0,0.0,0.0,0.0,0.0,0.0,0.0,0.0,0.0,0.0,0.0,0.0,0.0,0.0,0.0,0.0,0.0,0.0,0.0,0.0,0.0,0.0,0.0,0.0,0.0,0.0,0.0,0.0,0.0,0.0,0.0,0.0,0.0,0.0,0.0,0.0,0.0,0.0,0.0,0.0,0.0,0.0,0.0,0.0,0.0,0.0,0.0,0.0,0.0,0.0,0.0,0.0,0.0,-2.4712,-2.9565,-3.2581,-3.5096,-3.7023,-3.7416,-3.6845,-3.5239,-3.4187,-3.1403,0.0,0.0,0.0,0.0,0.0,0.0,0.0,0.0,0.0,0.0,0.0,0.0,0.0,0.0,0.0,0.0,0.0,0.0,0.0,0.0,0.0,0.0,0.0,0.0,0.0,0.0,0.0,0.0,-1.7959,-1.897,-1.9673,0.0,0.0,0.0,0.0,0.0,0.0,0.0,0.0,0.0,0.0,-3.5245,-3.7652,-3.9206,0.0,0.0,-4.051,-4.0546,-3.9749,-3.9061,-3.7504,-3.4208,-3.218,0.0,0.0,0.0,0.0,0.0,0.0,0.0,0.0,0.0,0.0,0.0,0.0,0.0,0.0,0.0,0.0,0.0,0.0,0.0,0.0,0.0,0.0,0.0,0.0,0.0,0.0,0.0,0.0,0.0,0.0,0.0,0.0,0.0,0.0,0.0,0.0,0.0,0.0,0.0,0.0,0.0,0.0,0.0,0.0,0.0,0.0,0.0,0.0,0.0,0.0,0.0,0.0,-2.5479,-3.0457,-3.3098,-3.5453,-3.7559,-3.7577,-3.6952,-3.5614,-3.4633,-3.2099,0.0,0.0,0.0,0.0,0.0,0.0,0.0,0.0,0.0,0.0,0.0,0.0,0.0,0.0,0.0,0.0,0.0,0.0,0.0,0.0,0.0,0.0,0.0,0.0,0.0,0.0,0.0,0.0,-1.9814,-2.0385,-2.0341,0.0,0.0,0.0,0.0,0.0,0.0,0.0,0.0,0.0,0.0,-3.6813,-3.966,-4.0727,-4.1216,-4.1216,-4.1705,-4.1705,-4.0673,-3.9804,-3.8282,-3.5421,0.0,0.0,0.0,0.0,0.0,0.0,0.0,0.0,0.0,0.0,0.0,0.0,0.0,0.0,0.0,0.0,0.0,0.0,0.0,0.0,0.0,0.0,0.0,0.0,0.0,0.0,0.0,0.0,0.0,0.0,0.0,0.0,0.0,0.0,0.0,0.0,0.0,0.0,0.0,0.0,0.0,0.0,0.0,0.0,0.0,0.0,0.0,0.0,0.0,0.0,0.0,0.0,0.0,0.0,-3.0475,-3.358,-3.5953,-3.7523,-3.7577,-3.7184,-3.6345,-3.49,-3.2616,-2.9387,0.0,0.0,0.0,0.0,0.0,0.0,0.0,0.0,0.0,0.0,0.0,0.0,0.0,0.0,0.0,0.0,0.0,0.0,0.0,0.0,0.0,0.0,0.0,0.0,0.0,0.0,-2.06,-2.0541,-2.0159,0.0,0.0,0.0,0.0,0.0,0.0,0.0,0.0,0.0,0.0,-3.7305,-3.984,-4.1397,-4.2321,-4.2774,-4.2792,-4.2828,-4.2321,-4.08,-4.1126,-4.0275,0.0,0.0,0.0,0.0,0.0,0.0,0.0,0.0,0.0,0.0,0.0,0.0,0.0,0.0,0.0,0.0,0.0,0.0,0.0,0.0,0.0,0.0,0.0,0.0,0.0,0.0,0.0,-2.2285,-2.1518,0.0,0.0,0.0,0.0,0.0,0.0,0.0,0.0,0.0,0.0,0.0,-2.9762,-3.0814,0.0,0.0,0.0,0.0,0.0,0.0,0.0,0.0,0.0,0.0,0.0,0.0,-2.7103,-3.0475,-3.3598,-3.5989,-3.7523,-3.7577,-3.7202,-3.6417,-3.5382,-3.2884,-2.8727,0.0,0.0,0.0,0.0,0.0,0.0,0.0,0.0,0.0,0.0,0.0,0.0,0.0,0.0,0.0,0.0,0.0,0.0,0.0,0.0,0.0,0.0,0.0,0.0,0.0,-2.071,0.0,0.0,0.0,0.0,0.0,0.0,0.0,0.0,0.0,0.0,0.0,-3.3713,-3.7341,-3.9152,-4.0709,-4.2285,-4.2719,-4.29,0.0,0.0,0.0,0.0,0.0,0.0,0.0,0.0,0.0,0.0,0.0,0.0,0.0,0.0,-3.8373,-3.4172,-3.2741,-3.227,-3.2542,0.0,0.0,0.0,0.0,0.0,0.0,0.0,0.0,0.0,0.0,0.0,0.0,0.0,0.0,0.0,0.0,-2.5497,0.0,0.0,0.0,0.0,0.0,0.0,0.0,0.0,-3.1439,-3.3062,-3.3776,-3.4829,-3.4633,0.0,-3.2866,-3.0083,0.0,0.0,0.0,0.0,0.0,0.0,0.0,0.0,-2.8191,-3.1296,-3.4169,-3.6274,-3.7505,-3.7577,-3.7345,-3.6792,-3.5525,-3.3134,-2.9547,-2.6942,-2.4819,0.0,0.0,0.0,0.0,0.0,0.0,0.0,0.0,0.0,0.0,0.0,0.0,0.0,0.0,0.0,0.0,0.0,0.0,0.0,0.0,0.0,0.0,0.0,-2.2032,0.0,0.0,0.0,0.0,0.0,0.0,0.0,0.0,0.0,-3.16,-3.3723,-3.6471,-3.975,-4.0854,-4.1832,-4.3136,0.0,0.0,0.0,0.0,0.0,0.0,0.0,-4.1433,-4.1361,-4.0546,-3.9858,-3.9822,-4.1126,-4.1995,-4.1452,0.0,0.0,-3.7609,-3.61,-3.561,-3.5895,-3.5994,-3.6061,-3.6431,-3.6784,-3.7241,0.0,0.0,0.0,0.0,0.0,0.0,0.0,0.0,-3.1885,-3.1831,0.0,-3.0957,0.0,0.0,0.0,0.0,0.0,0.0,0.0,0.0,-3.722,-3.8397,-3.7702,-3.7702,-3.7327,-3.6667,-3.8023,-3.6738,-3.2844,-2.6942,0.0,0.0,0.0,0.0,0.0,0.0,-2.9851,-3.2902,-3.5257,-3.6827,-3.7612,-3.763,-3.7594,-3.7506,-3.5382,-3.3437,-3.1778,-3.0208,-2.804,-2.5082,-2.4009,0.0,0.0,0.0,0.0,0.0,0.0,0.0,0.0,0.0,0.0,0.0,0.0,0.0,0.0,0.0,0.0,0.0,0.0,0.0,0.0,-2.274,0.0,0.0,0.0,0.0,0.0,0.0,0.0,0.0,0.0,0.0,-3.3991,-3.7033,-4.0039,-4.1596,0.0,0.0,0.0,0.0,-4.3262,-4.4023,-4.4132,-4.4132,-4.4132,-4.4729,-4.4675,-4.3208,0.0,0.0,-4.3208,-4.424,-4.4711,-4.3262,-4.4204,-4.4841,-4.3359,-4.1142,-3.9958,-4.068,-3.9714,-3.9017,-3.979,-4.0577,-4.1123,-3.6381,0.0,0.0,0.0,0.0,-3.3116,-3.449,-3.672,-3.6149,-3.5578,-3.5043,-3.4811,0.0,0.0,0.0,0.0,0.0,0.0,-3.4472,-3.5828,-3.7862,-3.9272,-4.011,-4.0663,-4.0521,-3.9771,-3.9646,-3.8736,-3.7023,-3.4151,-3.0029,-2.4926,0.0,0.0,0.0,0.0,-3.1956,-3.449,-3.631,-3.7648,-3.8451,-3.8469,-3.7916,-3.6774,-3.6114,-3.474,-3.2616,-3.1625,-3.0188,-2.821,-2.5823,0.0,0.0,0.0,0.0,0.0,0.0,0.0,0.0,0.0,0.0,0.0,0.0,0.0,0.0,0.0,0.0,0.0,0.0,0.0,-2.2238,-2.3696,-2.4956,0.0,0.0,0.0,0.0,0.0,0.0,0.0,0.0,0.0,-3.926,-4.0311,-4.1651,0.0,0.0,-4.4476,-4.415,-4.4385,-4.4693,-4.491,0.0,0.0,0.0,-4.4675,-4.4476,-4.4584,-4.5019,-4.5128,-4.4693,-4.4983,-4.5185,-4.481,-4.5119,-4.5321,-4.5094,-4.4399,-4.3887,-4.4051,-4.3853,-4.3743,-4.4016,-4.4326,-4.4471,-4.127,-3.813,-3.6399,-3.6399,-3.7505,-3.7416,-3.8611,-4.061,-3.9807,-3.9361,-3.9165,-3.854,-3.7148,-3.5204,-3.4561,0.0,0.0,0.0,-3.7077,-3.8326,-3.9593,-4.0681,-4.1573,-4.2073,-4.2037,-4.1573,-4.1074,-4.0467,-3.97,-3.8736,-3.5471,-3.0208,0.0,0.0,-2.9654,-3.2206,-3.4579,-3.6595,-3.788,-3.8754,-3.9236,-3.895,-3.8183,-3.6916,-3.656,-3.5578,-3.3865,-3.3108,-3.1995,-3.0543,-2.811,-2.5985,0.0,0.0,0.0,0.0,0.0,0.0,0.0,0.0,0.0,0.0,0.0,-1.8435,0.0,0.0,0.0,0.0,-2.1532,-2.3433,-2.5335,-2.6928,0.0,0.0,0.0,0.0,0.0,0.0,0.0,-3.7431,-4.0057,-4.2212,-4.3444,-4.3607,-4.3969,-4.4928,-4.52,-4.5236,-4.5073,0.0,-4.5417,-4.5725,-4.578,-4.5888,-4.6196,-4.5852,-4.5689,-4.616,-4.625,-4.625,-4.625,-4.625,-4.6291,-4.635,-4.635,-4.639,-4.6549,-4.6491,-4.6294,-4.5787,-4.5735,-4.5865,-4.5847,-4.5865,-4.5902,-4.4946,-4.4624,-4.177,-4.0877,-4.1431,-4.2162,-4.2876,-4.3518,-4.2787,-4.2912,-4.3483,-4.2037,-4.061,-3.9182,-3.7719,0.0,0.0,-3.9629,-4.0681,-4.1395,-4.2073,-4.2376,-4.2376,-4.2323,-4.2287,-4.2287,-4.2287,-4.1912,-4.1217,-4.1163,-3.9718,-3.6899,-3.5471,-3.4954,-3.5328,-3.6149,-3.738,-3.8968,-3.9664,-4.0003,-4.0003,-3.9218,-3.8451,-3.7702,-3.6845,-3.6024,-3.5221,-3.449,-3.3498,-3.2116,-3.0435,-2.8262,-2.5511,0.0,0.0,0.0,0.0,0.0,0.0,0.0,0.0,0.0,0.0,0.0,0.0,0.0,0.0,0.0,-2.5371,0.0,-2.9771,-3.1437,0.0,0.0,0.0,-3.4208,-3.524,-3.7938,-3.9985,-4.0782,0.0,0.0,0.0,0.0,-4.6721,-4.6794,-4.6033,-4.5761,-4.6504,-4.6051,-4.587,-4.6757,-4.683,-4.7065,-4.779,-4.7862,-4.7844,-4.7898,-4.7898,-4.7898,-4.7898,-4.7898,-4.7898,-4.794,-4.7898,-4.794,-4.794,-4.8129,-4.7816,-4.6672,-4.6269,-4.614,-4.6195,-4.6232,-4.625,-4.7854,-4.7265,-4.6516,-4.5285,-4.3822,-4.3982,-4.4178,-4.4321,-4.4161,-4.4161,-4.4321,-4.3946,-4.3572,-4.3215,-4.284,-4.2769,-4.2965,-4.3322,-4.359,-4.375,-4.3393,-4.3215,-4.3197,-4.259,-4.2287,-4.2287,-4.2287,-4.218,-4.2019,-4.2002,-4.1627,-4.0895,-4.0521,-3.8915,-3.6274,-3.7523,-3.9004,-4.0538,-4.0735,-4.0806,-4.077,-3.9504,-3.8701,-3.8522,-3.7131,-3.6024,-3.5221,-3.4605,-3.3809,-3.2865,-3.0846,-2.9411,-2.8648,-2.4679,0.0,0.0,0.0,0.0,0.0,0.0,0.0,0.0,0.0,-2.4302,-2.0318,0.0,-2.6928,0.0,-2.9934,-3.1673,-3.1655,-3.3085,0.0,0.0,-3.7051,-3.8319,-4.147,-4.1977,-4.2611,-4.4005,-4.5381,-4.6522,-4.7337,-4.7953,-4.8568,-4.9112,-4.8007,-4.721,-4.7409,-4.7826,-4.8333,-4.9003,-4.9148,-4.9311,-4.942,-4.9528,-4.9474,-4.9528,-4.9492,-4.951,-4.9528,-4.951,-4.9572,-4.9622,-4.9665,-4.9792,-4.9857,-5.0035,-5.0006,-4.9646,-4.8636,-4.7737,-4.7737,-4.7737,-4.7755,-4.9067,-4.8675,-4.8693,-4.7925,-4.6659,-4.598,-4.5677,-4.5641,-4.5302,-4.5142,-4.5142,-4.4785,-4.4607,-4.4607,-4.4607,-4.4607,-4.4607,-4.4607,-4.4607,-4.4589,-4.4196,-4.4,-4.3982,-4.3536,-4.3161,-4.284,-4.284,-4.2644,-4.2305,-4.2287,-4.2287,-4.2287,-4.2287,-4.1199,-3.9147,-3.9914,-4.0788,-4.1627,-4.1627,-4.1466,-4.1074,-3.9932,-3.8986,-3.8272,-3.7398,-3.6221,-3.4775,-3.4766,-3.4096,-3.2667,-3.1127,-3.0143,-2.9753,-2.662,-2.4646,0.0,0.0,0.0,0.0,0.0,0.0,0.0,0.0,0.0,0.0,0.0,-3.0405,0.0,-3.3538,0.0,-3.5385,-3.716,-3.8971,-4.0637,-4.1144,-4.223,-4.4403,-4.4548,-4.4983,-4.6232,-4.7083,-4.788,-4.8659,-4.9148,-4.9582,-5.0035,-4.9311,-4.8768,-4.8804,-4.9166,-4.9601,-5.0017,-5.009,-5.009,-5.009,-5.009,-5.009,-5.009,-5.009,-5.0134,-5.0177,-5.0196,-5.0221,-5.0271,-5.0356,-5.0399,-5.0501,-5.0584,-5.0703,-5.0574,-5.0028,-4.9499,-4.9426,-4.9426,-4.9407,-4.9549,-4.946,-4.9478,-4.9406,-4.921,-4.7854,-4.7301,-4.7229,-4.6551,-4.6195,-4.607,-4.5267,-4.491,-4.4928,-4.491,-4.491,-4.4928,-4.4928,-4.4928,-4.491,-4.4803,-4.4767,-4.4767,-4.466,-4.4285,-4.3661,-4.3643,-4.3233,-4.2448,-4.243,-4.2394,-4.2287,-4.2287,-4.2287,-4.2287,-4.2287,-4.2287,-4.2287,-4.2287,-4.1948,-4.1252,-4.0485,-3.9361,-3.7951,-3.7594,-3.6435,-3.4383,-3.4894,-3.4351,-3.2415,-3.1711,-3.1038,-3.0278,-2.8757,-2.7508,0.0,-2.6675,0.0,0.0,0.0,0.0,0.0,0.0,0.0,0.0,-3.3158,-3.4516,-3.5023,-3.6779,-3.8427,-3.9731,-4.1868,-4.3462,-4.4186,-4.4983,-4.5454,-4.549,-4.625,-4.7083,-4.779,-4.8568,-4.9347,-5.0071,-5.0253,-5.0253,-5.0452,-5.047,-5.0397,-5.0379,-5.0307,-5.0289,-5.0343,-5.0397,-5.0597,-5.0542,-5.0488,-5.0488,-5.0434,-5.0506,-5.0442,-5.0682,-5.0664,-5.0671,-5.0763,-5.086,-5.0824,-5.0733,-5.0908,-5.0991,-5.1064,-5.111,-5.1004,-5.0747,-5.0655,-5.082,-5.0887,-5.0281,-5.0281,-4.9906,-4.9299,-4.8996,-4.8871,-4.8853,-4.8728,-4.8318,-4.7693,-4.689,-4.6551,-4.6534,-4.6551,-4.6534,-4.6534,-4.6551,-4.6534,-4.6516,-4.5873,-4.557,-4.5552,-4.491,-4.4535,-4.441,-4.441,-4.4018,-4.3268,-4.3268,-4.2947,-4.2305,-4.2287,-4.2287,-4.2287,0.0,0.0,0.0,-4.2287,-4.2216,-4.2055,-4.1288,-4.0431,-3.9468,-3.7612,0.0,-3.5061,-3.4676,-3.4307,-3.3908,-3.3869,0.0,0.0,0.0,0.0,0.0,0.0,0.0,0.0,0.0,0.0,0.0,-3.4534,-3.3701,-3.3121,-3.6761,-3.8699,-3.7721,-4.0691,-4.2592,-4.2285,-4.3788,-4.491,-4.5091,-4.5798,-4.6287,-4.6323,-4.7572,-4.8532,-4.8659,-4.9383,-5.0162,-5.0923,-5.1067,-5.1303,-5.1846,-5.2045,-5.2045,-5.1991,-5.143,-5.1321,-5.1864,-5.1919,-5.2009,-5.2027,-5.1973,-5.1882,-5.2045,-5.2045,-5.2019,-5.2081,-5.2081,-5.2181,-5.2277,-5.2437,-5.2444,-5.2444,-5.2602,-5.2595,-5.2687,-5.2669,-5.2362,-5.1096,-5.082,-5.082,-5.1458,0.0,-5.1101,-5.0852,0.0,-5.0495,-5.0495,-5.0441,-4.9638,-4.9103,-4.871,-4.8318,-4.7925,-4.7568,-4.7586,-4.7354,-4.6998,-4.6998,-4.6998,-4.698,-4.6569,-4.6373,-4.6373,-4.598,-4.5588,-4.5213,-4.5195,-4.4803,-4.4089,-4.4053,-4.3661,-4.2894,-4.2894,-4.2697,-4.2305,-4.2287,-4.2287,-4.2287,-4.2287,-4.2287,-4.2251,-4.152,-4.0717,-3.9896,0.0,0.0,0.0,0.0,0.0,0.0,0.0,0.0,0.0,0.0,0.0,-3.3386,-3.4111,-3.4552,-3.4588,-3.5639,-3.6852,-3.8065,-3.85,-3.8176,-3.7015,-3.9496,-4.1126,-4.1144,-4.2973,-4.4095,-4.4132,-4.5164,-4.5888,-4.5943,-4.6975,-4.7681,-4.7808,-4.8749,-4.9637,-5.0035,-5.0434,-5.0995,-5.1774,-5.1882,-5.2027,-5.2426,-5.2498,-5.2498,-5.248,-5.2154,-5.2063,-5.2444,-5.2498,-5.248,-5.2498,-5.2498,-5.2498,-5.248,-5.2526,-5.2581,-5.2654,-5.2761,-5.285,-5.2955,-5.306,-5.3103,-5.3103,-5.3164,-5.3206,-5.3206,-5.3206,-5.3004,-5.2142,-5.1995,-5.1995,-5.2011,-5.1904,-5.1904,-5.1833,-5.169,-5.169,-5.169,-5.1601,0.0,0.0,0.0,-4.9388,-4.896,-4.8389,-4.8389,-4.8015,-4.7408,-4.7265,-4.7212,-4.7194,-4.7069,-4.6998,-4.6998,-4.6998,-4.6659,-4.6034,-4.6016,-4.5606,-4.4856,-4.4821,-4.4428,-4.3768,-4.3697,-4.3304,-4.2555,-4.2358,-4.2287,-4.2287,-4.2287,-4.2287,-4.2269,-4.1645,-4.0931,-4.0146,-3.9397,-3.8363,-3.6916,-3.6933,-3.6411,-3.5238,-3.5371,-3.5453,-3.5476,-3.6091,-3.6743,-3.7413,-3.8663,-3.9224,-3.8862,-4.0003,-4.0528,-4.0039,-4.1325,-4.185,-4.1198,-4.1741,-4.2737,-4.4186,-4.4421,-4.4802,-4.5454,-4.6232,-4.6776,-4.6939,-4.8116,-4.8949,-4.913,-4.9818,-5.0542,-5.1158,-5.1393,-5.1756,-5.2353,-5.2444,-5.2498,-5.2498,-5.2498,-5.2498,-5.2498,-5.2462,-5.2426,-5.248,-5.2498,-5.2498,-5.2498,-5.2498,-5.2498,-5.2508,-5.2581,-5.2654,-5.2806,-5.2955,-5.3042,-5.3164,-5.3206,-5.3206,-5.3206,-5.3206,-5.3206,-5.3206,-5.3206,-5.3206,-5.3206,-5.3206,-5.3133,-5.3314,-5.2707,-5.2707,-5.2332,-5.169,-5.169,-5.169,-5.1619,-5.0727,-5.0334,-5.0298,-4.962,-4.9246,-4.9156,-4.9156,-4.9103,-4.8942,-4.8318,-4.8015,0.0,-4.7319,-4.6998,-4.6998,-4.6998,-4.6944,-4.6837,-4.6837,-4.6409,-4.5713,-4.5624,-4.5231,-4.4553,-4.4464,-4.4071,-4.334,-4.2644,-4.2287,-4.2287,-4.2287,-4.2287,-4.2287,-4.218,-4.1734,-4.0949,-4.0259,-3.9512,-3.8599,-3.869,-3.8724,-3.8543,-3.9245,-3.9352,-3.8771,-3.879,-3.8952,-3.9043,-3.926,-3.993,-4.1107,-4.1433,-4.1796,-4.2375,-4.3226,-4.3715,-4.3625,-4.3697,-4.4132,-4.5055,-4.5707,-4.6196,-4.6377,-4.7065,-4.779,-4.8424,-4.8786,-4.9166,-4.9854,-5.0633,-5.1176,-5.1339,-5.1919,-5.2299,-5.2444,-5.2498,-5.2498,-5.2498,-5.2498,-5.2498,-5.2498,-5.2498,-5.2498,-5.2498,-5.2498,-5.2498,-5.2498,-5.2498,-5.2526,-5.2563,-5.2608,-5.2698,-5.2893,-5.2999,-5.3042,-5.3164,-5.3206,-5.3206,-5.3206,-5.3206,-5.3206,-5.3206,-5.3206,-5.3206,-5.3206,-5.3206,-5.3206,-5.3813,-5.3528,-5.3492,-5.3296,-5.2921,-5.2529,-5.2332,-5.2261,-5.1512,-5.1137,-5.1119,-5.0762,-5.037,-4.9995,-4.9959,-4.9727,-4.9299,-4.8942,-4.88,-4.8764,-4.8425,-4.8032,-4.7658,-4.7622,-4.7408,-4.7015,-4.6998,-4.6819,-4.648,-4.6444,-4.6052,-4.5285,-4.4839,-4.4446,-4.4089,-4.334,-4.2947,-4.2929,-4.2519,-4.2287,-4.2287,-4.2287,-4.2149,-4.185,-4.116,-4.0607,-4.0269,-3.9967,-3.9806,-3.9842,-4.0203,-4.0293,-4.0039,-4.0401,-4.0655,-4.0673,-4.1053,-4.1596,-4.2303,-4.2357,-4.2701,-4.348,-4.3878,-4.4476,-4.5345,-4.5001,-4.5091,-4.587,-4.6305,-4.6685,-4.712,-4.788,-4.8514,-4.8876,-4.9655,-5.0343,-5.0741,-5.1466,-5.1937,-5.1955,-5.2263,-5.2498,-5.2498,-5.2498,-5.2498,-5.2498,-5.2498,-5.2498,-5.2516,-5.2516,-5.2498,-5.2498,-5.2498,-5.2498,-5.2498,-5.2498,-5.2526,-5.2554,-5.2627,-5.2761,-5.2912,-5.3017,-5.3103,-5.3164,-5.3225,-5.3206,-5.3243,-5.3206,-5.3206,-5.3206,-5.3206,-5.3206,-5.3206,-5.3206,-5.3206,-5.4456,-5.4295,-5.4295,-5.4188,-5.3974,-5.3385,-5.3135,-5.3064,-5.2297,-5.1958,-5.194,-5.1779,-5.1351,-5.0816,-5.0762,-5.0441,-4.9888,-4.9656,-4.9585,-4.9567,-4.9406,-4.9014,-4.8461,-4.8282,-4.7836,-4.7283,-4.7087,-4.6998,-4.6998,-4.6998,-4.6694,-4.6052,-4.5285,-4.4892,-4.4874,-4.4143,-4.3679,-4.35,-4.2876,-4.2465,-4.2287,-4.2287,-4.2346,-4.2468,-4.1934,-4.1615,-4.1695,-4.1175,-4.0925,-4.0962,-4.0962,-4.098,-4.1071,-4.1633,-4.1977,-4.2049,-4.2556,-4.2973,-4.3136,-4.3154,-4.3516,-4.4295,-4.4548,-4.5164,-4.6269,-4.6124,-4.6087,-4.6667,-4.6812,-4.712,-4.788,-4.8496,-4.9039,-4.942,-5.0506,-5.1285,-5.1593,-5.2136,-5.2498,-5.2498,-5.2498,-5.2498,-5.2498,-5.2498,-5.2589,-5.277,-5.277,-5.2824,-5.2987,-5.3041,-5.3041,-5.2951,-5.2752,-5.2498,-5.2498,-5.2498,-5.248,-5.2526,-5.269,-5.2933,-5.3087,-5.3353,-5.3567,-5.3775,-5.383,-5.3885,-5.3794,-5.3812,-5.3757,-5.3665,-5.3573,-5.3518,-5.3555,-5.3537,-5.339,-5.574,-5.5152,-5.5116,-5.467,-5.4081,-5.3956,-5.392,-5.3813,-5.31,-5.2779,-5.2671,-5.2011,-5.1654,-5.1601,-5.1565,-5.1476,-5.1333,-5.0727,-5.0388,-5.0298,-4.9638,-4.9281,-4.9156,-4.8532,-4.8139,-4.7979,-4.7372,-4.7069,-4.7051,-4.7015,-4.6962,-4.6801,-4.6088,-4.5713,-4.5624,-4.4928,-4.4196,-4.3536,-4.3429,-4.3036,-4.2323,-4.2287,-4.2387,-4.2503,-4.2476,-4.2541,-4.2582,-4.2643,-4.2665,-4.2665,-4.2629,-4.2647,-4.2647,-4.2737,-4.2774,-4.2774,-4.2846,-4.319,-4.3878,-4.3987,-4.4331,-4.5128,-4.5834,-4.6269,-4.6558,-4.7102,-4.7482,-4.7591,-4.7591,-4.7935,-4.8677,-4.8931,-4.9582,-5.0705,-5.1176,-5.1574,-5.219,-5.2444,-5.2498,-5.2498,-5.2498,-5.2498,-5.2498,-5.2552,-5.2824,-5.3403,-5.3548,-5.3784,-5.4291,-5.4418,-5.4436,-5.4309,-5.353,-5.2697,-5.2643,-5.2516,-5.2744,-5.2727,-5.2771,-5.3225,-5.3851,-5.4195,-5.4454,-5.4821,-5.517,-5.5133,-5.5188,-5.5335,-5.5005,-5.4436,-5.4289,-5.4289,-5.4289,-5.4289,-5.4069,-5.6222,-5.5901,-5.5901,-5.574,-5.5384,-5.4937,-5.4723,-5.4598,-5.3421,-5.2868,-5.2779,-5.2029,-5.169,-5.169,-5.169,-5.169,-5.1672,-5.1369,-5.1208,-5.1191,-5.0852,-5.0477,-5.0013,-4.9727,-4.9335,-4.8817,-4.8068,-4.7693,-4.7604,-4.7229,-4.6998,-4.698,-4.6641,-4.6498,-4.6444,-4.5713,-4.516,-4.4839,-4.3651,-4.3005,-4.2899,-4.2232,-4.1959,-4.2127,-4.2169,-4.2274,-4.2454,-4.2711,-4.29,-4.29,-4.29,-4.29,-4.29,-4.29,-4.29,-4.2918,-4.3353,-4.3751,-4.4059,-4.453,-4.5146,-4.5943,-4.6305,-4.6685,-4.7174,-4.7536,-4.7898,-4.8333,-4.8442,-4.8586,-4.8967,-4.9764,-5.0597,-5.123,-5.1701,-5.2136,-5.2444,-5.2498,-5.2498,-5.2498,-5.2498,-5.2498,-5.257,-5.2915,-5.3313,-5.3729,-5.4074,-5.4581,-5.4888,-5.4907,-5.4907,-5.4834,-5.4291,-5.3983,-5.3874,-5.3929,-5.394,-5.3969,-5.409,-5.4492,-5.4665,-5.4964,-5.5244,-5.5611,-5.5702,-5.5702,-5.5519,-5.5592,-5.5445,-5.5115,-5.5097,-5.5097,-5.5097,-5.5097,-5.4913,-5.6383,-5.6383,-5.6383,-5.6383,-5.6329,-5.5794,-5.5544,-5.5366,-5.4099,-5.3385,-5.3118,-5.2368,-5.1886,-5.1708,-5.169,-5.169,-5.169,-5.169,-5.169,-5.169,-5.169,-5.1387,-5.0869,-5.0566,-5.0209,-4.9603,-4.8871,-4.8389,-4.8139,-4.764,-4.7166,-4.6877,-4.6934,-4.6934,-4.6724,-4.6282,-4.6016,-4.5668,-4.4145,-4.3454,-4.343,-4.2509,-4.2,-4.2079,-4.211,-4.2192,-4.2378,-4.2711,-4.29,-4.29,-4.29,-4.29,-4.29,-4.29,-4.2973,-4.3262,-4.3969,-4.453,-4.4729,-4.5291,-4.5979,-4.6721,-4.683,-4.7065,-4.7591,-4.7898,-4.8279,-4.8804,-4.9293,-4.9601,-4.9709,-5.0615,-5.1321,-5.1611,-5.219,-5.2498,-5.2498,-5.2498,-5.2498,-5.2498,-5.2498,-5.2607,-5.286,-5.3331,-5.3802,-5.4381,-5.487,-5.5359,-5.5468,-5.5595,-5.5577,-5.554,-5.554,-5.5323,-5.5033,-5.478,-5.4907,-5.4985,-5.4982,-5.5139,-5.5477,-5.5815,-5.6161,-5.6547,-5.6308,-5.6308,-5.6547,-5.6418,-5.6088,-5.5941,-5.5794,-5.5757,-5.5886,-5.5904,-5.6051,-5.6383,-5.6383,-5.6383,-5.6383,-5.6383,-5.6329,-5.6311,-5.6077,-5.533,-5.4599,-5.3815,-5.3048,-5.2404,-5.1693,-5.1607,-5.169,-5.169,-5.169,-5.169,-5.169,-5.1708,-5.1672,-5.1601,-5.0887,-5.0446,-5.0222,-4.9541,-4.8859,-4.8247,-4.8104,-4.7494,-4.6337,-4.672,-4.6684,-4.6315,-4.6595,-4.6506,-4.5711,-4.5012,-4.4453,-4.3793,-4.3218,-4.2737,-4.2619,-4.2606,-4.2717,-4.2878,-4.2918,-4.2918,-4.2918,-4.2918,-4.29,-4.2918,-4.2936,-4.3317,-4.4005,-4.4802,-4.558,-4.6178,-4.6377,-4.6757,-4.7464,-4.7554,-4.7663,-4.7826,-4.8387,-4.884,-4.8985,-5.0271,-5.1013,-5.1104,-5.1267,-5.1683,-5.2263,-5.2426,-5.2498,-5.2498,-5.2498,-5.2498,-5.2498,-5.257,-5.286,-5.3512,-5.3657,-5.4472,-5.5359,-5.5866,-5.6156,-5.6699,-5.6953,-5.6917,-5.6899,-5.6826,-5.6573,-5.5305,-5.5269,-5.5209,-5.5341,-5.5655,-5.5623,-5.62,-5.6731,-5.7143,-5.7501,-5.7464,-5.7538,-5.7776,-5.7666,-5.7299,-5.6914,-5.629,-5.6198,-5.6675,-5.673,-5.6877,-5.6383,-5.6383,-5.6383,-5.6144,-5.5826,-5.6199,-5.5901,-5.5137,-5.475,-5.4143,-5.3364,-5.2188,-5.1472,-5.1158,-5.0669,-5.0911,-5.164,-5.169,-5.169,-5.164,-5.1297,-5.114,-5.1105,-5.0822,-5.0453,-5.0045,-4.9661,-4.9076,-4.83,-4.7872,-4.7368,-4.6835,-4.623,-4.5784,-4.5683,-4.5835,-4.5728,-4.5399,-4.4509,-4.401,-4.4103,-4.3151,-4.293,-4.3588,-4.3629,-4.3757,-4.3983,-4.3758,-4.3643,-4.3643,-4.319,-4.3136,-4.3643,-4.415,-4.4548,-4.4892,-4.5635,-4.6196,-4.6504,-4.6993,-4.7391,-4.7645,-4.7699,-4.7971,-4.8405,-4.8768,-4.9293,-5.0271,-5.085,-5.1448,-5.1955,-5.2045,-5.2154,-5.2408,-5.2498,-5.2498,-5.2498,-5.2498,-5.2498,-5.257,-5.2896,-5.3403,-5.3838,-5.4544,-5.5359,-5.5903,-5.6428,-5.6844,-5.708,-5.7188,-5.7188,-5.7188,-5.717,-5.7025,-5.6591,-5.641,-5.6441,-5.6472,-5.6625,-5.6787,-5.7204,-5.7372,-5.774,-5.7721,-5.7941,-5.7978,-5.7923,-5.7905,-5.7703,-5.7593,-5.6969,-5.6932,-5.7501,-5.7373,-5.7556,-5.6144,-5.5826,-5.6032,-5.5694,-5.5147,-5.5578,-5.5266,-5.4385,-5.427,-5.3844,-5.308,-5.2071,-5.1503,-5.1158,-5.0452,-5.0585,-5.1317,-5.1229,-5.1105,-5.1035,-5.0659,-5.0495,-5.0495,-5.0495,-5.0254,-4.9867,-4.9716,-4.9236,-4.8521,-4.8033,-4.7544,-4.7037,-4.608,-4.5576,-4.5451,-4.5335,-4.5303,-4.5094,-4.4289,-4.4121,-4.4509,-4.3715,-4.3683,-4.4571,-4.4741,-4.4751,-4.4778,-4.4588,-4.4494,-4.4403,-4.3951,-4.3914,-4.4494,-4.5236,-4.5689,-4.578,-4.645,-4.6884,-4.6957,-4.7428,-4.7808,-4.8079,-4.8116,-4.8442,-4.9184,-4.9528,-5.0234,-5.1067,-5.1593,-5.1955,-5.2317,-5.248,-5.2498,-5.2498,-5.2498,-5.2498,-5.2498,-5.2498,-5.2625,-5.2933,-5.3331,-5.382,-5.4436,-5.5341,-5.5975,-5.6319,-5.688,-5.717,-5.7188,-5.7188,-5.7188,-5.7188,-5.7188,-5.7188,-5.6971,-5.693,-5.698,-5.7048,-5.7128,-5.7462,-5.7715,-5.7904,-5.7997,-5.7978,-5.7978,-5.7978,-5.7978,-5.7978,-5.7978,-5.7978,-5.7795,-5.7593,-5.7831,-5.7905,-5.7941,-5.5578,-5.4641,-5.5147,-5.5009,-5.4454,-5.4516,-5.4454,-5.4247,-5.4293,-5.38,-5.3095,-5.298,-5.2341,-5.188,-5.102,-5.0858,-5.0796,-5.0211,-4.9948,-4.9953,-4.9861,-4.9804,-4.9821,-4.9821,-4.9821,-4.9705,-4.9786,-4.9407,-4.8695,-4.8506,-4.7917,-4.6918,-4.6435,-4.6037,-4.5635,-4.5443,-4.5283,-4.5213,-4.4729,-4.4715,-4.5338,-4.4793,-4.4832,-4.5643,-4.5743,-4.5547,-4.5168,-4.5224,-4.5251,-4.5309,-4.5218,-4.5254,-4.5381,-4.6069,-4.6522,-4.6631,-4.7246,-4.7645,-4.7717,-4.779,-4.8188,-4.8749,-4.8931,-4.9257,-5.0035,-5.0687,-5.1158,-5.1466,-5.1991,-5.2462,-5.2462,-5.2498,-5.2498,-5.2498,-5.2498,-5.2498,-5.2498,-5.2534,-5.2842,-5.3548,-5.3892,-5.4418,-5.5486,-5.6047,-5.6391,-5.6899,-5.7134,-5.7188,-5.7188,-5.7188,-5.7188,-5.7188,-5.7188,-5.7188,-5.7239,-5.727,-5.7338,-5.737,-5.748,-5.7649,-5.7745,-5.7904,-5.7997,-5.7978,-5.7978,-5.7978,-5.7978,-5.7978,-5.7978,-5.7978,-5.7978,-5.7978,-5.7978,-5.7978,-5.7978,-5.4765,-5.4454,-5.4624,-5.4345,-5.3813,-5.42,-5.3878,-5.3145,-5.3516,-5.3314,-5.2673,-5.2118,-5.1749,-5.143,-5.0726,-5.0456,-5.0324,-4.9684,-4.9469,-4.9674,-4.9351,-4.9171,-4.9171,-4.9171,-4.9171,-4.9171,-4.9171,-4.9069,-4.8779,-4.8371,-4.7827,-4.7344,-4.6421,-4.6144,-4.6254,-4.5462,-4.5213,-4.5866,-4.4756,-4.4597,-4.5459,-4.4855,-4.491,-4.5749,-4.5665,-4.5688,-4.6132,-4.5809,-4.5755,-4.6065,-4.5599,-4.5544,-4.6142,-4.6884,-4.7319,-4.7355,-4.7536,-4.7989,-4.8478,-4.8568,-4.8876,-4.9528,-4.9727,-5.0108,-5.0778,-5.114,-5.1556,-5.1973,-5.2371,-5.2498,-5.2498,-5.2498,-5.2498,-5.2498,-5.2498,-5.2498,-5.2625,-5.3005,-5.3675,-5.4418,-5.4961,-5.5504,-5.5957,-5.6373,-5.6862,-5.7098,-5.7188,-5.7188,-5.7188,-5.7188,-5.7188,-5.7188,-5.7188,-5.7188,-5.7239,-5.7338,-5.7437,-5.7504,-5.7601,-5.7697,-5.7792,-5.7904,-5.7932,-5.7978,-5.7978,-5.7978,-5.7978,-5.7978,-5.7978,-5.7978,-5.7978,-5.7978,-5.7978,-5.7978,-5.7978,-5.4072,-5.3698,-5.3943,-5.3632,-5.3076,-5.3499,-5.3332,-5.2886,-5.3196,-5.3128,-5.27,-5.228,-5.1941,-5.1599,-5.0932,-5.0618,-5.0535,-4.9839,-4.9523,-4.9463,-4.8861,-4.856,-4.856,-4.856,-4.8543,-4.8543,-4.856,-4.856,-4.8526,-4.8123,-4.7872,-4.7646,-4.6733,-4.6367,-4.6636,-4.5696,-4.5453,-4.5648,-4.5014,-4.4963,-4.5459,-4.5161,-4.5267,-4.585,-4.5749,-4.59,-4.6418,-4.6227,-4.6416,-4.6783,-4.645,-4.6486,-4.6957,-4.7428,-4.7699,-4.7753,-4.8007,-4.8405,-4.8876,-4.9184,-4.9691,-5.0361,-5.0542,-5.0904,-5.1538,-5.1737,-5.2009,-5.2389,-5.2498,-5.2498,-5.2498,-5.2498,-5.2498,-5.2498,-5.2498,-5.2625,-5.2933,-5.3657,-5.4436,-5.516,-5.5667,-5.6084,-5.65,-5.679,-5.7188,-5.7188,-5.7188,-5.7188,-5.7188,-5.7188,-5.7188,-5.7188,-5.7239,-5.7307,-5.7307,-5.7388,-5.7534,-5.7601,-5.7715,-5.7745,-5.781,-5.7886,-5.7978,-5.7978,-5.7978,-5.7978,-5.7978,-5.7978,-5.7978,-5.7978,-5.7978,-5.7978,-5.7978,-5.7978,-5.7978,-5.3516,-5.2516,-5.3076,-5.3076,-5.257,-5.264,-5.2939,-5.3382,-5.3516,-5.3449,-5.3365,-5.3298,-5.2992,-5.237,-5.191,-5.1712,-5.1406,-5.0705,-5.0042,-4.936,-4.8629,-4.8247,-4.8148,-4.8115,-4.8115,-4.8066,-4.8066,-4.8066,-4.8115,-4.8048,-4.8001,-4.79,-4.7336,-4.7005,-4.6982,-4.6275,-4.5673,-4.5596,-4.5645,-4.5695,-4.5839,-4.5787,-4.587,-4.5968,-4.595,-4.6,-4.6178,-4.6618,-4.7142,-4.7597,-4.7536,-4.75,-4.7663,-4.7699,-4.7717,-4.7862,-4.8514,-4.8931,-4.9184,-4.98,-5.0506,-5.123,-5.1393,-5.1647,-5.2245,-5.2335,-5.2353,-5.248,-5.2452,-5.2434,-5.2434,-5.2387,-5.2423,-5.2589,-5.2715,-5.3023,-5.3766,-5.4544,-5.5233,-5.5848,-5.6102,-5.6319,-5.6989,-5.7134,-5.717,-5.7188,-5.7188,-5.7188,-5.7188,-5.7188,-5.7188,-5.7239,-5.7307,-5.7356,-5.7356,-5.7553,-5.7649,-5.7697,-5.781,-5.7839,-5.7839,-5.7932,-5.7978,-5.7978,-5.7978,-5.7978,-5.7978,-5.7978,-5.7978,-5.7978,-5.7978,-5.7978,-5.7978,-5.7978,-5.7978,-5.2694,-5.2445,-5.257,-5.2834,-5.3145,-5.3145,-5.3516,-5.4072,-5.4136,-5.3847,-5.3583,-5.396,-5.3698,-5.3179,-5.3445,-5.3587,-5.3122,-5.2251,-5.1327,-5.0522,-4.9327,-4.8498,-4.81,-4.8001,-4.8001,-4.8001,-4.8001,-4.8001,-4.8001,-4.8001,-4.8001,-4.8001,-4.7785,-4.7911,-4.8157,-4.7178,-4.7133,-4.751,-4.6574,-4.6385,-4.6569,-4.6109,-4.5692,-4.5494,-4.5597,-4.5802,-4.6165,-4.6999,-4.7511,-4.7657,-4.7699,-4.7699,-4.7753,-4.7753,-4.8007,-4.8568,-4.884,-4.9492,-5.0434,-5.0832,-5.1357,-5.2045,-5.21,-5.2263,-5.2444,-5.2498,-5.2498,-5.2434,-5.2162,-5.2,-5.2275,-5.2132,-5.23,-5.3212,-5.3411,-5.3881,-5.4997,-5.5577,-5.6011,-5.6699,-5.6826,-5.6971,-5.7098,-5.7188,-5.7188,-5.7188,-5.7188,-5.7188,-5.7188,-5.7188,-5.7188,-5.7257,-5.7307,-5.7356,-5.7455,-5.7649,-5.7745,-5.7792,-5.7839,-5.7932,-5.7932,-5.7978,-5.7978,-5.7978,-5.7978,-5.7978,-5.7978,-5.7978,-5.7978,-5.7978,-5.7978,-5.7978,-5.7978,-5.7978,-5.7978,-5.2373,-5.2373,-5.2373,-5.264,-5.2939,-5.2939,-5.3516,-5.42,-5.4072,-5.4136,-5.4136,-5.4025,-5.3943,-5.383,-5.3632,-5.3698,-5.3827,-5.2809,-5.1782,-5.0642,-4.926,-4.8398,-4.8067,-4.8001,-4.8001,-4.8001,-4.8001,-4.8001,-4.8001,-4.8001,-4.8001,-4.8001,-4.8001,-4.8163,-4.8336,-4.7955,-4.76,-4.798,-4.7437,-4.721,-4.7119,-4.6975,-4.684,-4.6639,-4.6621,-4.6845,-4.7444,-4.8246,-4.8442,-4.7916,-4.7717,-4.7844,-4.817,-4.8224,-4.8586,-4.9347,-4.9709,-5.0397,-5.1104,-5.1574,-5.2009,-5.2371,-5.2498,-5.2322,-5.2162,-5.2114,-5.2114,-5.1701,-5.1414,-5.1414,-5.1654,-5.1665,-5.2669,-5.4224,-5.4458,-5.4769,-5.5871,-5.6283,-5.6681,-5.7062,-5.7188,-5.7188,-5.7188,-5.7188,-5.7188,-5.7188,-5.7188,-5.7188,-5.7188,-5.7188,-5.7188,-5.7257,-5.7356,-5.7455,-5.7553,-5.7745,-5.7839,-5.7886,-5.7886,-5.7978,-5.7978,-5.7978,-5.7978,-5.7978,-5.7978,-5.7978,-5.7978,-5.7978,-5.7978,-5.7978,-5.7978,-5.7978,-5.7978,-5.7978,-5.7978,-5.2373,-5.2373,-5.2373,-5.2445,-5.257,-5.257,-5.3315,-5.4136,-5.3878,-5.4154,-5.4641,-5.3943,-5.383,-5.42,-5.3382,-5.3076,-5.3499,-5.2941,-5.1605,-5.0323,-4.8995,-4.8199,-4.8034,-4.8001,-4.8001,-4.8001,-4.8001,-4.8001,-4.8001,-4.8001,-4.8001,-4.8001,-4.8001,-4.8001,-4.8163,-4.8113,-4.7878,-4.7776,-4.8158,-4.7902,-4.7592,-4.7734,-4.7798,-4.7646,-4.7928,-4.839,-4.9032,-4.9613,-4.9401,-4.8043,-4.7971,-4.8424,-4.8985,-4.9021,-4.9438,-5.009,-5.0723,-5.1176,-5.1502,-5.2082,-5.2426,-5.2498,-5.2498,-5.2209,-5.1835,-5.1736,-5.1482,-5.0964,-5.0697,-5.0714,-5.1066,-5.1573,-5.3122,-5.4826,-5.5133,-5.5435,-5.5908,-5.6704,-5.7188,-5.7138,-5.7138,-5.7188,-5.7188,-5.7188,-5.7188,-5.7188,-5.7188,-5.7188,-5.7188,-5.7188,-5.7239,-5.7257,-5.7406,-5.7601,-5.7697,-5.7839,-5.7886,-5.7978,-5.7932,-5.7978,-5.7978,-5.7978,-5.7978,-5.7978,-5.7978,-5.7978,-5.7978,-5.7978,-5.7978,-5.7978,-5.7978,-5.7978,-5.7978,-5.7978,-5.7978,-5.2373,-5.2373,-5.2373,-5.2694,-5.3128,-5.3196,-5.3649,-5.4328,-5.42,-5.4025,-5.396,-5.4008,-5.396,-5.3698,-5.3764,-5.4072,-5.3943,-5.3281,-5.2151,-5.0237,-4.9342,-4.8531,-4.8133,-4.8034,-4.8001,-4.8001,-4.8001,-4.8001,-4.8001,-4.8001,-4.8001,-4.8001,-4.8001,-4.8066,-4.8179,-4.8227,-4.8322,-4.8409,-4.8608,-4.8386,-4.7963,-4.7987,-4.7905,-4.7557,-4.8135,-4.899,-4.9721,-5.0027,-4.9908,-4.9673,-4.9601,-4.9709,-4.98,-4.9836,-5.0234,-5.085,-5.1176,-5.1574,-5.21,-5.2353,-5.2498,-5.2498,-5.248,-5.2275,-5.1669,-5.1569,-5.126,-5.0751,-5.0331,-5.0397,-5.113,-5.266,-5.3756,-5.4603,-5.508,-5.5283,-5.5603,-5.6438,-5.6845,-5.6688,-5.6863,-5.7188,-5.7188,-5.7188,-5.7188,-5.7188,-5.7188,-5.7188,-5.7188,-5.7188,-5.7239,-5.7307,-5.7455,-5.7601,-5.7745,-5.7839,-5.7932,-5.7978,-5.7978,-5.7978,-5.7978,-5.7978,-5.7978,-5.7978,-5.7978,-5.7978,-5.7978,-5.7978,-5.7978,-5.7978,-5.7978,-5.7978,-5.7978,-5.7978,-5.7978,-5.2373,-5.2373,-5.2373,-5.257,-5.2886,-5.2939,-5.3332,-5.3764,-5.3583,-5.3632,-5.3764,-5.3698,-5.3583,-5.383,-5.3649,-5.3566,-5.3596,-5.2859,-5.1846,-5.062,-4.9674,-4.8895,-4.8514,-4.8166,-4.8001,-4.8001,-4.8001,-4.8001,-4.8001,-4.8001,-4.8001,-4.8001,-4.8066,-4.8115,-4.8227,-4.8373,-4.858,-4.8736,-4.8894,-4.8737,-4.8477,-4.8426,-4.8472,-4.85,-4.9309,-5.0254,-5.0778,-5.1158,-5.123,-5.1194,-5.1176,-5.0995,-5.0687,-5.0669,-5.1067,-5.1683,-5.1864,-5.1991,-5.2389,-5.2498,-5.2498,-5.2498,-5.2498,-5.2144,-5.1651,-5.1381,-5.0893,-5.0492,-5.0252,-5.0497,-5.1899,-5.2492,-5.3567,-5.4594,-5.4807,-5.4913,-5.5052,-5.5755,-5.6294,-5.6055,-5.6348,-5.6635,-5.6793,-5.6915,-5.7138,-5.7138,-5.7188,-5.7188,-5.7188,-5.7188,-5.7289,-5.7338,-5.7486,-5.7649,-5.7792,-5.7886,-5.7932,-5.7978,-5.7978,-5.7978,-5.7978,-5.7978,-5.7978,-5.7978,-5.7978,-5.7978,-5.7978,-5.7978,-5.7978,-5.7978,-5.7978,-5.7978,-5.7978,-5.7978,-5.7978,-5.2373,-5.2373,-5.2373,-5.2373,-5.2373,-5.2445,-5.2764,-5.306,-5.2624,-5.3093,-5.3698,-5.2817,-5.306,-5.3632,-5.2939,-5.2817,-5.2805,-5.2246,-5.1533,-5.1015,-5.0171,-4.9442,-4.9011,-4.8531,-4.8166,-4.8034,-4.8001,-4.8001,-4.8001,-4.8001,-4.8001,-4.8066,-4.8115,-4.8227,-4.8292,-4.858,-4.8707,-4.8753,-4.8877,-4.8923,-4.8855,-4.8917,-4.9197,-4.9894,-5.0504,-5.1269,-5.1633,-5.2058,-5.2389,-5.2498,-5.2498,-5.2118,-5.1683,-5.1502,-5.1719,-5.2444,-5.2389,-5.2408,-5.2444,-5.2498,-5.2498,-5.2498,-5.2498,-5.2096,-5.1533,-5.1017,-5.0564,-5.039,-5.0383,-5.1264,-5.2866,-5.3007,-5.3506,-5.4451,-5.4516,-5.4345,-5.4345,-5.4782,-5.5026,-5.5308,-5.5716,-5.6128,-5.6348,-5.6528,-5.6845,-5.7069,-5.7138,-5.7188,-5.7188,-5.7239,-5.7338,-5.7437,-5.7583,-5.7745,-5.7839,-5.7886,-5.7978,-5.7978,-5.7978,-5.7978,-5.7978,-5.7978,-5.7978,-5.7978,-5.7978,-5.7978,-5.7978,-5.7978,-5.7978,-5.7978,-5.7978,-5.7978,-5.7978,-5.7978,-5.7978,-5.2373,-5.2373,-5.2373,-5.2373,-5.2373,-5.2373,-5.2445,-5.2516,-5.2445,-5.2499,-5.2694,-5.2516,-5.2499,-5.2694,-5.2624,-5.2499,-5.2574,-5.225,-5.1897,-5.1499,-5.0886,-5.0388,-4.9459,-4.9144,-4.863,-4.8133,-4.805,-4.8166,-4.8017,-4.8001,-4.8066,-4.8098,-4.8163,-4.8211,-4.842,-4.869,-4.8707,-4.869,-4.8832,-4.8956,-4.8894,-4.9001,-4.9538,-5.0331,-5.0805,-5.1381,-5.2162,-5.2387,-5.2498,-5.2498,-5.2498,-5.2408,-5.2245,-5.2208,-5.2317,-5.2426,-5.2498,-5.2498,-5.2498,-5.2498,-5.2498,-5.2498,-5.2498,-5.1933,-5.1191,-5.0857,-5.0689,-5.0676,-5.1176,-5.2078,-5.238,-5.289,-5.3314,-5.3783,-5.3849,-5.3734,-5.3717,-5.3915,-5.4141,-5.4534,-5.5069,-5.556,-5.5716,-5.5999,-5.6402,-5.6688,-5.6863,-5.7036,-5.7188,-5.7289,-5.7406,-5.7534,-5.7679,-5.7839,-5.795,-5.795,-5.7978,-5.7978,-5.7978,-5.7978,-5.7978,-5.7978,-5.7978,-5.7978,-5.7978,-5.7978,-5.7978,-5.7978,-5.7978,-5.7978,-5.7978,-5.7978,-5.7978,-5.7978,-5.7978,-5.2373,-5.2373,-5.2373,-5.2373,-5.2373,-5.2373,-5.2373,-5.2373,-5.2373,-5.2373,-5.2373,-5.2373,-5.2373,-5.2373,-5.2373,-5.2445,-5.2499,-5.2499,-5.2354,-5.2091,-5.1691,-5.1258,-5.0376,-5.0109,-4.9427,-4.8961,-4.8761,-4.8463,-4.805,-4.8001,-4.8066,-4.8115,-4.8163,-4.8227,-4.8373,-4.85,-4.8627,-4.8707,-4.8832,-4.8877,-4.8894,-4.9018,-4.958,-5.0369,-5.0734,-5.1294,-5.2209,-5.2498,-5.2498,-5.2498,-5.2498,-5.2498,-5.2498,-5.248,-5.2498,-5.2498,-5.2498,-5.2498,-5.2498,-5.2498,-5.2498,-5.2498,-5.2498,-5.2096,-5.1505,-5.1262,-5.1234,-5.1412,-5.164,-5.2503,-5.2909,-5.3281,-5.3467,-5.3518,-5.3518,-5.3518,-5.3518,-5.3518,-5.3734,-5.3994,-5.4471,-5.4887,-5.4991,-5.5349,-5.5887,-5.6239,-5.6528,-5.6811,-5.7087,-5.7239,-5.7338,-5.7601,-5.7745,-5.7839,-5.7997,-5.7997,-5.7978,-5.7978,-5.7978,-5.7978,-5.7978,-5.7978,-5.7978,-5.7978,-5.7978,-5.7978,-5.7978,-5.7978,-5.7978,-5.7978,-5.7978,-5.7978,-5.7978,-5.7978,-5.7978,-5.2373,-5.2373,-5.2373,-5.2373,-5.2373,-5.2373,-5.2373,-5.2373,-5.2373,-5.2373,-5.2373,-5.2373,-5.2373,-5.2373,-5.2445,-5.2445,-5.264,-5.2624,-5.2661,-5.2683,-5.2282,-5.1897,-5.1614,-5.1145,-5.0343,-4.966,-4.9576,-4.911,-4.8199,-4.8131,-4.8131,-4.8115,-4.8163,-4.8227,-4.8292,-4.85,-4.8644,-4.8644,-4.8849,-4.8877,-4.9001,-4.9063,-4.9479,-5.0425,-5.0535,-5.1034,-5.2114,-5.2228,-5.2228,-5.2275,-5.2275,-5.2275,-5.2322,-5.2322,-5.2322,-5.2322,-5.2434,-5.2498,-5.2498,-5.2498,-5.2498,-5.2498,-5.2387,-5.2071,-5.1898,-5.1794,-5.1994,-5.2289,-5.2553,-5.2807,-5.3281,-5.3484,-5.3518,-5.3518,-5.3518,-5.3518,-5.3518,-5.3518,-5.3518,-5.3783,-5.4059,-5.4171,-5.4362,-5.4686,-5.5231,-5.5543,-5.583,-5.642,-5.6635,-5.6948,-5.7152,-5.7534,-5.7792,-5.7886,-5.7978,-5.7978,-5.7978,-5.7978,-5.7978,-5.7978,-5.7978,-5.7978,-5.7978,-5.7978,-5.7978,-5.7978,-5.7978,-5.7978,-5.7978,-5.7978,-5.7978,-5.7978,-5.7978,-5.7978,-5.7978,-5.2373,-5.2373,-5.2373,-5.2373,-5.2373,-5.2373,-5.2373,-5.2373,-5.2373,-5.2373,-5.2373,-5.2373,-5.2373,-5.2373,-5.2461,-5.2516,-5.257,-5.2694,-5.2781,-5.287,-5.265,-5.2282,-5.1831,-5.1439,-5.0975,-5.0409,-5.0258,-4.931,-4.8547,-4.8427,-4.8308,-4.8244,-4.8292,-4.8356,-4.8244,-4.85,-4.858,-4.8436,-4.8736,-4.9001,-4.9001,-4.9001,-4.9376,-4.9815,-5.0142,-5.0587,-5.1551,-5.1701,-5.1719,-5.1701,-5.1719,-5.1719,-5.1719,-5.1719,-5.1719,-5.1884,-5.2144,-5.2498,-5.2434,-5.2387,-5.2387,-5.2293,-5.2054,-5.1859,-5.1961,-5.2088,-5.2252,-5.2329,-5.2875,-5.3264,-5.345,-5.3501,-5.3518,-5.3518,-5.3518,-5.3518,-5.3518,-5.3518,-5.3518,-5.3501,-5.3783,-5.3734,-5.3734,-5.4188,-5.4579,-5.4826,-5.5129,-5.5773,-5.6348,-5.6722,-5.7102,-5.7583,-5.7792,-5.7932,-5.7978,-5.7978,-5.7978,-5.7978,-5.7978,-5.7978,-5.7978,-5.7978,-5.7978,-5.7978,-5.7978,-5.7978,-5.7978,-5.7978,-5.7978,-5.7978,-5.7978,-5.7978,-5.7978,-5.7978,-5.7978,-5.2373,-5.2373,-5.2373,-5.2373,-5.2373,-5.2373,-5.2373,-5.2373,-5.2373,-5.2373,-5.2373,-5.2373,-5.2373,-5.2445,-5.257,-5.2694,-5.2764,-5.2834,-5.3058,-5.3144,-5.311,-5.2874,-5.2655,-5.2384,-5.1948,-5.1208,-5.0958,-5.0524,-4.9526,-4.8895,-4.8645,-4.8229,-4.8244,-4.8292,-4.8244,-4.8483,-4.8564,-4.8644,-4.8815,-4.9001,-4.9018,-4.9063,-4.9273,-4.9832,-4.989,-5.0366,-5.0876,-5.1087,-5.1105,-5.1087,-5.1087,-5.1105,-5.1087,-5.1087,-5.1087,-5.1087,-5.1312,-5.1601,-5.1902,-5.2018,-5.2036,-5.2014,-5.193,-5.2089,-5.2421,-5.2421,-5.2587,-5.2993,-5.3281,-5.3484,-5.3518,-5.3518,-5.3518,-5.3518,-5.3518,-5.3518,-5.3518,-5.3518,-5.3518,-5.3518,-5.3518,-5.3518,-5.3518,-5.3734,-5.4171,-5.4562,-5.4991,-5.5601,-5.6348,-5.6948,-5.732,-5.7697,-5.7839,-5.7932,-5.7978,-5.7978,-5.7978,-5.7978,-5.7978,-5.7978,-5.7978,-5.7978,-5.7978,-5.7978,-5.7978,-5.7978,-5.7978,-5.7978,-5.7978,-5.7978,-5.7978,-5.7978,-5.7978,-5.7978,-5.7978,-5.2373,-5.2373,-5.2373,-5.2373,-5.2373,-5.2373,-5.2373,-5.2373,-5.2373,-5.2373,-5.2373,-5.2373,-5.2373,-5.2445,-5.264,-5.2711,-5.2834,-5.2972,-5.3127,-5.328,-5.328,-5.3179,-5.2957,-5.2872,-5.2516,-5.1791,-5.1808,-5.1289,-5.0554,-4.9957,-4.9377,-4.8348,-4.8279,-4.8261,-4.8292,-4.842,-4.8564,-4.8832,-4.894,-4.9001,-4.9018,-4.9018,-4.9229,-4.9496,-4.9715,-4.993,-5.0387,-5.0497,-5.0497,-5.0497,-5.0497,-5.0497,-5.0497,-5.0497,-5.0497,-5.064,-5.0926,-5.1298,-5.1529,-5.1634,-5.1649,-5.1776,-5.2034,-5.2455,-5.266,-5.2598,-5.2739,-5.3382,-5.345,-5.3501,-5.3518,-5.3518,-5.3518,-5.3518,-5.3518,-5.3518,-5.3518,-5.3518,-5.3518,-5.3518,-5.3518,-5.3518,-5.3518,-5.3518,-5.3849,-5.4328,-5.487,-5.5543,-5.6276,-5.7051,-5.7437,-5.7763,-5.7857,-5.7932,-5.7978,-5.7978,-5.7978,-5.7978,-5.7978,-5.7978,-5.7978,-5.7978,-5.7978,-5.7978,-5.7978,-5.7978,-5.7978,-5.7978,-5.7978,-5.7978,-5.7978,-5.7978,-5.7978,-5.7978,-5.7978,-5.2373,-5.2373,-5.2373,-5.2373,-5.2373,-5.2373,-5.2373,-5.2373,-5.2373,-5.2373,-5.2373,-5.2373,-5.2445,-5.2445,-5.2516,-5.2587,-5.264,-5.2624,-5.2834,-5.285,-5.2781,-5.2834,-5.2834,-5.2694,-5.2537,-5.242,-5.2337,-5.1814,-5.1367,-5.1054,-5.0275,-4.936,-4.8992,-4.8573,-4.8453,-4.8631,-4.8774,-4.8962,-4.9069,-4.9001,-4.9018,-4.9018,-4.9063,-4.9063,-4.9107,-4.9333,-4.9873,-4.993,-4.993,-4.993,-4.993,-4.993,-4.9913,-5.0051,-5.0103,-5.0264,-5.1054,-5.132,-5.1332,-5.1616,-5.1874,-5.2092,-5.2421,-5.2729,-5.2796,-5.3211,-5.3416,-5.3484,-5.3501,-5.3518,-5.3518,-5.3518,-5.3518,-5.3518,-5.3518,-5.3518,-5.3518,-5.3518,-5.3518,-5.3518,-5.3518,-5.3518,-5.3518,-5.3518,-5.3783,-5.4345,-5.5052,-5.5658,-5.6456,-5.717,-5.7486,-5.7745,-5.781,-5.7904,-5.7978,-5.7978,-5.7978,-5.7978,-5.7978,-5.7978,-5.7978,-5.7978,-5.7978,-5.7978,-5.7978,-5.7978,-5.7978,-5.7978,-5.7978,-5.7978,-5.7978,-5.7978,-5.7978,-5.7978,-5.7978,-5.1694,-5.1744,-5.2175,-5.2373,-5.2373,-5.2373,-5.2373,-5.2373,-5.2373,-5.2373,-5.2373,-5.2499,-5.2499,-5.2445,-5.264,-5.264,-5.2624,-5.2764,-5.285,-5.2834,-5.2834,-5.2764,-5.2711,-5.264,-5.2499,-5.2516,-5.2428,-5.2378,-5.2171,-5.1824,-5.1512,-5.0844,-5.024,-4.9687,-4.9513,-4.9123,-4.9215,-4.9413,-4.9272,-4.9035,-4.9018,-4.9018,-4.9018,-4.9018,-4.9018,-4.9124,-4.9333,-4.9333,-4.9333,-4.9445,-4.9462,-4.9513,-4.9615,-4.9871,-5.0042,-5.0161,-5.1081,-5.1363,-5.1371,-5.1692,-5.201,-5.218,-5.2494,-5.2748,-5.2875,-5.3348,-5.3484,-5.3501,-5.3518,-5.3518,-5.3518,-5.3518,-5.3518,-5.3518,-5.3518,-5.3518,-5.3518,-5.3518,-5.3518,-5.3518,-5.3518,-5.3518,-5.3518,-5.3518,-5.3898,-5.4345,-5.5112,-5.5887,-5.667,-5.7239,-5.7534,-5.7745,-5.7839,-5.7904,-5.7978,-5.7978,-5.7978,-5.7978,-5.7978,-5.7978,-5.7978,-5.7978,-5.7978,-5.7978,-5.7978,-5.7978,-5.7978,-5.7978,-5.7978,-5.7978,-5.7978,-5.7978,-5.7978,-5.7978,-5.7978,-5.0949,-5.1048,-5.1728,-5.2191,-5.2357,-5.2373,-5.2373,-5.2373,-5.2373,-5.2373,-5.2373,-5.2516,-5.2499,-5.2516,-5.257,-5.264,-5.257,-5.264,-5.2781,-5.2764,-5.2764,-5.2781,-5.2694,-5.2694,-5.264,-5.2587,-5.2587,-5.2607,-5.2594,-5.2213,-5.215,-5.2152,-5.1949,-5.1275,-5.0362,-4.997,-4.9949,-5.0152,-4.9999,-4.9661,-4.9712,-4.9729,-4.9746,-4.9779,-4.9813,-4.9813,-4.991,-5.0006,-4.9893,-4.9876,-4.9842,-4.9712,-4.9864,-5.0084,-5.0371,-5.0676,-5.1065,-5.1522,-5.1651,-5.183,-5.2294,-5.2649,-5.2753,-5.3094,-5.3331,-5.3518,-5.3518,-5.3518,-5.3518,-5.3518,-5.3518,-5.3518,-5.3518,-5.3518,-5.3518,-5.3518,-5.3518,-5.3518,-5.3518,-5.3518,-5.3518,-5.3501,-5.38,-5.3915,-5.4443,-5.5009,-5.5812,-5.6492,-5.7051,-5.7486,-5.7601,-5.7792,-5.7932,-5.7932,-5.7978,-5.7978,-5.7978,-5.7978,-5.7978,-5.7978,-5.7978,-5.7978,-5.7978,-5.7978,-5.7978,-5.7978,-5.7978,-5.7978,-5.7978,-5.7978,-5.7978,-5.7978,-5.7978,-5.7978,-5.7978,-5.0237,-5.032,-5.0999,-5.1694,-5.2208,-5.2373,-5.2373,-5.2373,-5.2373,-5.2373,-5.2373,-5.2445,-5.2445,-5.2445,-5.2445,-5.2445,-5.2516,-5.2516,-5.2587,-5.2694,-5.2694,-5.2781,-5.2834,-5.2834,-5.2834,-5.2903,-5.2834,-5.2834,-5.2903,-5.2822,-5.2942,-5.3112,-5.2893,-5.2504,-5.1319,-5.1166,-5.1166,-5.1166,-5.1099,-5.0947,-5.0879,-5.0828,-5.0811,-5.0794,-5.0794,-5.0744,-5.0727,-5.0727,-5.071,-5.0727,-5.076,-5.0777,-5.0862,-5.1031,-5.1183,-5.1251,-5.1894,-5.2249,-5.23,-5.2349,-5.2721,-5.3162,-5.3213,-5.3365,-5.3467,-5.3518,-5.3518,-5.3518,-5.3518,-5.3518,-5.3518,-5.3518,-5.3518,-5.3518,-5.3518,-5.3518,-5.3518,-5.3518,-5.3518,-5.3518,-5.3501,-5.3551,-5.398,-5.4397,-5.5044,-5.5733,-5.6582,-5.7138,-5.7486,-5.7601,-5.7697,-5.7839,-5.7978,-5.7978,-5.7978,-5.7978,-5.7978,-5.7978,-5.7978,-5.7978,-5.7978,-5.7978,-5.7978,-5.7978,-5.7978,-5.7978,-5.7978,-5.7978,-5.7978,-5.7978,-5.7978,-5.7978,-5.7978,-5.7978,-5.7978,-4.9475,-4.9541,-5.0253,-5.0717,-5.1065,-5.2009,-5.2373,-5.2373,-5.2373,-5.2373,-5.2373,-5.2373,-5.2373,-5.2373,-5.2445,-5.2445,-5.2499,-5.257,-5.264,-5.2764,-5.2764,-5.2834,-5.2903,-5.2903,-5.2903,-5.2903,-5.292,-5.3041,-5.311,-5.3179,-5.3264,-5.3416,-5.3399,-5.3247,-5.2536,-5.2012,-5.1369,-5.1742,-5.1522,-5.12,-5.1251,-5.1285,-5.1302,-5.1319,-5.1352,-5.1369,-5.1386,-5.1437,-5.1437,-5.142,-5.1437,-5.1403,-5.1471,-5.1623,-5.1928,-5.208,-5.2621,-5.3078,-5.3095,-5.3112,-5.3196,-5.3433,-5.3518,-5.3518,-5.3518,-5.3518,-5.3518,-5.3518,-5.3518,-5.3518,-5.3518,-5.3518,-5.3518,-5.3518,-5.3518,-5.3518,-5.3518,-5.3518,-5.3518,-5.3518,-5.3501,-5.3766,-5.4171,-5.4658,-5.5325,-5.5961,-5.6758,-5.7188,-5.7553,-5.7583,-5.7697,-5.7839,-5.7978,-5.7978,-5.7978,-5.7978,-5.7978,-5.7978,-5.7978,-5.7978,-5.7978,-5.7978,-5.7978,-5.7978,-5.7978,-5.7978,-5.7978,-5.7978,-5.7978,-5.7978,-5.7978,-5.7978,-5.7978,-5.7978,-5.7978,-4.873,-4.8812,-4.9525,-4.9839,-5.0055,-5.138,-5.2108,-5.2324,-5.2373,-5.2373,-5.2373,-5.2445,-5.2499,-5.2516,-5.2587,-5.2587,-5.2694,-5.2694,-5.2834,-5.2972,-5.2989,-5.3058,-5.3127,-5.3127,-5.3144,-5.3144,-5.3127,-5.3195,-5.3264,-5.328,-5.3348,-5.3433,-5.3518,-5.345,-5.3112,-5.2587,-5.23,-5.257,-5.2367,-5.2164,-5.2147,-5.2114,-5.208,-5.2114,-5.2114,-5.208,-5.2029,-5.1995,-5.1995,-5.1961,-5.1961,-5.1961,-5.2147,-5.2367,-5.2723,-5.2926,-5.3112,-5.3484,-5.345,-5.345,-5.3433,-5.3501,-5.3518,-5.3518,-5.3518,-5.3518,-5.3518,-5.3518,-5.3518,-5.3518,-5.3518,-5.3518,-5.3518,-5.3518,-5.3518,-5.3518,-5.3518,-5.3518,-5.3501,-5.3501,-5.3685,-5.4011,-5.4391,-5.4931,-5.5525,-5.6221,-5.6915,-5.7239,-5.7553,-5.7601,-5.7679,-5.7886,-5.7978,-5.7978,-5.7978,-5.7978,-5.7978,-5.7978,-5.7978,-5.7978,-5.7978,-5.7978,-5.7978,-5.7978,-5.7978,-5.7978,-5.7978,-5.7978,-5.7978,-5.7978,-5.7978,-5.7978,-5.7978,-5.7978,-5.7978,-4.8017,-4.81,-4.8779,-4.9077,-4.9326,-5.0535,-5.1615,-5.2295,-5.2312,-5.2279,-5.2295,-5.237,-5.2457,-5.254,-5.2731,-5.292,-5.2903,-5.2903,-5.3041,-5.3179,-5.3195,-5.3348,-5.3365,-5.3433,-5.3365,-5.3433,-5.3433,-5.3348,-5.3484,-5.3433,-5.3433,-5.3518,-5.3518,-5.3518,-5.3399,-5.3298,-5.3196,-5.3179,-5.3145,-5.301,-5.2993,-5.3179,-5.3095,-5.3078,-5.3095,-5.3112,-5.3112,-5.3145,-5.3213,-5.3264,-5.3331,-5.3382,-5.345,-5.3484,-5.3501,-5.3501,-5.3484,-5.3501,-5.3518,-5.3518,-5.3518,-5.3518,-5.3518,-5.3518,-5.3518,-5.3518,-5.3518,-5.3518,-5.3518,-5.3518,-5.3518,-5.3518,-5.3518,-5.3518,-5.3518,-5.3518,-5.3518,-5.3501,-5.3568,-5.3618,-5.38,-5.4124,-5.4765,-5.5349,-5.5755,-5.6456,-5.7018,-5.7239,-5.7486,-5.7649,-5.7745,-5.7886,-5.7978,-5.7978,-5.7978,-5.7978,-5.7978,-5.7978,-5.7978,-5.7978,-5.7978,-5.7978,-5.7978,-5.7978,-5.7978,-5.7978,-5.7978,-5.7978,-5.7978,-5.7978,-5.7978,-5.7978,-5.7978,-5.7978,-5.7978,-4.8001,-4.8034,-4.8233,-4.8315,-4.8465,-4.9427,-5.0291,-5.094,-5.099,-5.1075,-5.1244,-5.1762,-5.2065,-5.2081,-5.2652,-5.2905,-5.3041,-5.311,-5.3264,-5.3332,-5.3348,-5.3433,-5.3501,-5.3518,-5.3518,-5.3518,-5.3518,-5.3518,-5.3501,-5.3518,-5.3518,-5.3518,-5.3518,-5.3518,-5.3518,-5.3518,-5.3518,-5.3518,-5.3518,-5.3518,-5.3518,-5.3518,-5.3518,-5.3518,-5.3518,-5.3518,-5.3518,-5.3518,-5.3518,-5.3518,-5.3518,-5.3518,-5.3518,-5.3518,-5.3501,-5.3501,-5.3501,-5.3518,-5.3518,-5.3518,-5.3518,-5.3518,-5.3518,-5.3518,-5.3518,-5.3518,-5.3518,-5.3518,-5.3518,-5.3518,-5.3518,-5.3518,-5.3518,-5.3518,-5.3518,-5.3518,-5.3518,-5.3501,-5.3551,-5.3832,-5.4011,-5.4614,-5.5189,-5.5543,-5.5999,-5.6688,-5.7138,-5.7338,-5.7437,-5.7601,-5.7745,-5.7886,-5.7978,-5.7978,-5.7978,-5.7978,-5.7978,-5.7978,-5.7978,-5.7978,-5.7978,-5.7978,-5.7978,-5.7978,-5.7978,-5.7978,-5.7978,-5.7978,-5.7978,-5.7978,-5.7978,-5.7978,-5.7978,-5.7978,-5.7978,-4.8001,-4.8001,-4.8066,-4.8115,-4.8246,-4.8759,-4.9291,-4.9807,-5.0276,-5.0627,-5.0777,-5.1246,-5.1665,-5.2017,-5.2471,-5.2859,-5.3332,-5.3348,-5.3348,-5.3433,-5.3518,-5.3518,-5.3518,-5.3518,-5.3518,-5.3518,-5.3518,-5.3518,-5.3518,-5.3518,-5.3518,-5.3518,-5.3518,-5.3518,-5.3518,-5.3518,-5.3518,-5.3518,-5.3518,-5.3518,-5.3518,-5.3518,-5.3518,-5.3518,-5.3518,-5.3518,-5.3518,-5.3518,-5.3518,-5.3518,-5.3518,-5.3518,-5.3518,-5.3518,-5.3518,-5.3518,-5.3518,-5.3518,-5.3518,-5.3518,-5.3518,-5.3518,-5.3518,-5.3518,-5.3518,-5.3518,-5.3518,-5.3518,-5.3518,-5.3518,-5.3518,-5.3518,-5.3518,-5.3518,-5.3518,-5.3518,-5.3518,-5.3518,-5.3734,-5.4011,-5.4471,-5.5087,-5.556,-5.5848,-5.6239,-5.6915,-5.7289,-5.7388,-5.7504,-5.7601,-5.7697,-5.7839,-5.7932,-5.7978,-5.7978,-5.7978,-5.7978,-5.7978,-5.7978,-5.7978,-5.7978,-5.7978,-5.7978,-5.7978,-5.7978,-5.7978,-5.7978,-5.7978,-5.7978,-5.7978,-5.7978,-5.7978,-5.7978,-5.7978,-5.7978,-4.8001,-4.8066,-4.8179,-4.8356,-4.8483,-4.8597,-4.8694,-4.8921,-5.0003,-5.0509,-5.0525,-5.0774,-5.1226,-5.1612,-5.1982,-5.2487,-5.2825,-5.3028,-5.3129,-5.3416,-5.3501,-5.3501,-5.3518,-5.3518,-5.3518,-5.3518,-5.3518,-5.3518,-5.3518,-5.3518,-5.3518,-5.3518,-5.3518,-5.3518,-5.3518,-5.3518,-5.3518,-5.3518,-5.3518,-5.3518,-5.3518,-5.3518,-5.3518,-5.3518,-5.3518,-5.3518,-5.3518,-5.3518,-5.3518,-5.3518,-5.3518,-5.3518,-5.3518,-5.3518,-5.3518,-5.3518,-5.3518,-5.3518,-5.3518,-5.3518,-5.3518,-5.3518,-5.3518,-5.3518,-5.3518,-5.3518,-5.3518,-5.3518,-5.3518,-5.3518,-5.3518,-5.3518,-5.3518,-5.3518,-5.3518,-5.3518,-5.3518,-5.38,-5.4379,-5.4703,-5.5231,-5.583,-5.6073,-5.6366,-5.6528,-5.7138,-5.7356,-5.7406,-5.7504,-5.7553,-5.7697,-5.7774,-5.7886,-5.7932,-5.7978,-5.7978,-5.7978,-5.7978,-5.7978,-5.7978,-5.7978,-5.7978,-5.7978,-5.7978,-5.7978,-5.7978,-5.7978,-5.7978,-5.7978,-5.7978,-5.7978,-5.7978,-5.7978,-5.7978,-5.7978,-4.8049,-4.8179,-4.8356,-4.8564,-4.8707,-4.8707,-4.8815,-4.8973,-4.9215,-4.9468,-4.9519,-5.0054,-5.0443,-5.0764,-5.1237,-5.1708,-5.1911,-5.2435,-5.257,-5.2841,-5.3095,-5.3315,-5.3484,-5.345,-5.3501,-5.3518,-5.3518,-5.3518,-5.3518,-5.3518,-5.3518,-5.3518,-5.3518,-5.3518,-5.3518,-5.3518,-5.3518,-5.3518,-5.3518,-5.3518,-5.3518,-5.3518,-5.3518,-5.3518,-5.3518,-5.3518,-5.3518,-5.3518,-5.3518,-5.3518,-5.3518,-5.3518,-5.3518,-5.3518,-5.3518,-5.3518,-5.3518,-5.3518,-5.3518,-5.3518,-5.3518,-5.3518,-5.3518,-5.3518,-5.3518,-5.3518,-5.3518,-5.3518,-5.3518,-5.3518,-5.3518,-5.3518,-5.3518,-5.3518,-5.3518,-5.3518,-5.3501,-5.4205,-5.4905,-5.5426,-5.5981,-5.633,-5.6528,-5.6688,-5.6966,-5.7087,-5.7188,-5.7289,-5.7356,-5.7455,-5.7649,-5.7745,-5.7792,-5.7886,-5.7932,-5.7978,-5.7978,-5.7978,-5.7978,-5.7978,-5.7978,-5.7978,-5.7978,-5.7978,-5.7978,-5.7978,-5.7978,-5.7978,-5.7978,-5.7978,-5.7978,-5.7978,-5.7978,-5.7978,-5.7978,-4.8115,-4.8244,-4.85,-4.8753,-4.8894,-4.8894,-4.8956,-4.9001,-4.9018,-4.9018,-4.9035,-4.9424,-4.9763,-5.0033,-5.0557,-5.0947,-5.115,-5.1623,-5.1792,-5.2046,-5.252,-5.2824,-5.3044,-5.3298,-5.3484,-5.3518,-5.3518,-5.3518,-5.3518,-5.3518,-5.3518,-5.3518,-5.3518,-5.3518,-5.3518,-5.3518,-5.3518,-5.3518,-5.3518,-5.3518,-5.3518,-5.3518,-5.3518,-5.3518,-5.3518,-5.3518,-5.3518,-5.3518,-5.3518,-5.3518,-5.3518,-5.3518,-5.3518,-5.3518,-5.3518,-5.3518,-5.3518,-5.3518,-5.3518,-5.3518,-5.3518,-5.3518,-5.3518,-5.3518,-5.3518,-5.3518,-5.3518,-5.3518,-5.3518,-5.3518,-5.3518,-5.3518,-5.3518,-5.3518,-5.3518,-5.3518,-5.3866,-5.4443,-5.4782,-5.4887,-5.5525,-5.6294,-5.6474,-5.6474,-5.6706,-5.7138,-5.7188,-5.7239,-5.7338,-5.7406,-5.7601,-5.7745,-5.7792,-5.7886,-5.7932,-5.7978,-5.7978,-5.7978,-5.7978,-5.7978,-5.7978,-5.7978,-5.7978,-5.7978,-5.7978,-5.7978,-5.7978,-5.7978,-5.7978,-5.7978,-5.7978,-5.7978,-5.7978,-5.7978,-5.7978,-4.8227,-4.8373,-4.869,-4.8894,-4.9001,-4.9001,-4.9001,-4.9018,-4.9018,-4.9018,-4.9018,-4.9035,-4.9424,-4.9763,-4.9982,-5.0439,-5.0777,-5.0947,-5.1031,-5.1268,-5.1843,-5.2266,-5.2655,-5.2942,-5.3213,-5.3433,-5.3518,-5.3518,-5.3518,-5.3518,-5.3518,-5.3518,-5.3518,-5.3518,-5.3518,-5.3518,-5.3518,-5.3518,-5.3518,-5.3518,-5.3518,-5.3518,-5.3518,-5.3518,-5.3518,-5.3518,-5.3518,-5.3518,-5.3518,-5.3518,-5.3518,-5.3518,-5.3518,-5.3518,-5.3518,-5.3518,-5.3518,-5.3518,-5.3518,-5.3518,-5.3518,-5.3518,-5.3518,-5.3518,-5.3518,-5.3518,-5.3518,-5.3501,-5.3501,-5.3501,-5.3501,-5.3518,-5.3518,-5.3501,-5.3501,-5.3685,-5.4205,-5.4738,-5.4782,-5.4765,-5.5583,-5.642,-5.6474,-5.6474,-5.6653,-5.7087,-5.7239,-5.7289,-5.7388,-5.7455,-5.7601,-5.7745,-5.7886,-5.7932,-5.7978,-5.7978,-5.7978,-5.7978,-5.7978,-5.7978,-5.7978,-5.7978,-5.7978,-5.7978,-5.7978,-5.7978,-5.7978,-5.7978,-5.7978,-5.7978,-5.7978,-5.7978,-5.7978,-5.7978,-5.7978,-4.8564,-4.8707,-4.8894,-4.9018,-4.9001,-4.9018,-4.9018,-4.9018,-4.9018,-4.9018,-4.9018,-4.9018,-4.9137,-4.9221,-4.9204,-4.9475,-4.9763,-5.0084,-5.027,-5.0439,-5.1099,-5.1708,-5.2266,-5.2706,-5.2976,-5.3264,-5.3518,-5.3518,-5.3518,-5.3518,-5.3518,-5.3518,-5.3518,-5.3518,-5.3518,-5.3518,-5.3518,-5.3518,-5.3518,-5.3518,-5.3518,-5.3518,-5.3518,-5.3518,-5.3518,-5.3518,-5.3518,-5.3518,-5.3518,-5.3518,-5.3518,-5.3518,-5.3518,-5.3518,-5.3518,-5.3518,-5.3518,-5.3518,-5.3518,-5.3518,-5.3518,-5.3518,-5.3518,-5.3518,-5.3518,-5.3518,-5.3501,-5.3501,-5.3501,-5.3551,-5.3551,-5.3501,-5.3518,-5.3501,-5.3568,-5.4141,-5.4738,-5.5207,-5.5484,-5.5869,-5.6546,-5.6915,-5.6915,-5.6915,-5.6915,-5.7188,-5.7257,-5.7307,-5.7455,-5.7504,-5.7649,-5.7792,-5.7932,-5.7932,-5.7978,-5.7978,-5.7978,-5.7978,-5.7978,-5.7978,-5.7978,-5.7978,-5.7978,-5.7978,-5.7978,-5.7978,-5.7978,-5.7978,-5.7978,-5.7978,-5.7978,-5.7978,-5.7978,-5.7978,-5.7978]}]]